<?xml version="1.0" encoding="UTF-8" standalone="no" ?>
<gpx xmlns="http://www.topografix.com/GPX/1/1" xmlns:xsi="http://www.w3.org/2001/XMLSchema-instance" xsi:schemaLocation="http://www.topografix.com/GPX/1/1 http://www.topografix.com/GPX/1/1/gpx.xsd" version="1.1" creator="VisuGPX - https://www.visugpx.com">
  <metadata>
    <name>BEARN</name>
    <desc><![CDATA[Eysus Asasp Issor Escot]]></desc>
  </metadata>
  <trk>
    <name><![CDATA[Chapelle de Rousse 2010]]></name>
    <trkseg>
      <trkpt lat="43.26025" lon="-0.42181">
        <ele>324.402</ele>
        <time>2010-09-19T06:39:04Z</time>
      </trkpt>
      <trkpt lat="43.26025" lon="-0.42181">
        <ele>324.402</ele>
        <time>2010-09-19T06:39:05Z</time>
      </trkpt>
      <trkpt lat="43.26024" lon="-0.42182">
        <ele>324.655</ele>
        <time>2010-09-19T06:39:08Z</time>
      </trkpt>
      <trkpt lat="43.26024" lon="-0.42182">
        <ele>324.742</ele>
        <time>2010-09-19T06:39:19Z</time>
      </trkpt>
      <trkpt lat="43.26024" lon="-0.42182">
        <ele>324.833</ele>
        <time>2010-09-19T06:39:24Z</time>
      </trkpt>
      <trkpt lat="43.26024" lon="-0.42182">
        <ele>324.842</ele>
        <time>2010-09-19T06:39:27Z</time>
      </trkpt>
      <trkpt lat="43.26024" lon="-0.42182">
        <ele>324.879</ele>
        <time>2010-09-19T06:39:50Z</time>
      </trkpt>
      <trkpt lat="43.26024" lon="-0.42182">
        <ele>325.013</ele>
        <time>2010-09-19T06:39:52Z</time>
      </trkpt>
      <trkpt lat="43.26024" lon="-0.42183">
        <ele>324.787</ele>
        <time>2010-09-19T06:39:56Z</time>
      </trkpt>
      <trkpt lat="43.26024" lon="-0.42182">
        <ele>324.79</ele>
        <time>2010-09-19T06:39:57Z</time>
      </trkpt>
      <trkpt lat="43.26023" lon="-0.42182">
        <ele>324.925</ele>
        <time>2010-09-19T06:40:07Z</time>
      </trkpt>
      <trkpt lat="43.26023" lon="-0.42182">
        <ele>324.874</ele>
        <time>2010-09-19T06:40:16Z</time>
      </trkpt>
      <trkpt lat="43.26023" lon="-0.42182">
        <ele>324.973</ele>
        <time>2010-09-19T06:40:20Z</time>
      </trkpt>
      <trkpt lat="43.26022" lon="-0.42182">
        <ele>325.01</ele>
        <time>2010-09-19T06:40:23Z</time>
      </trkpt>
      <trkpt lat="43.26022" lon="-0.42183">
        <ele>325.008</ele>
        <time>2010-09-19T06:40:27Z</time>
      </trkpt>
      <trkpt lat="43.26022" lon="-0.42183">
        <ele>325.033</ele>
        <time>2010-09-19T06:40:28Z</time>
      </trkpt>
      <trkpt lat="43.26022" lon="-0.42182">
        <ele>325.032</ele>
        <time>2010-09-19T06:40:47Z</time>
      </trkpt>
      <trkpt lat="43.26022" lon="-0.42182">
        <ele>325.048</ele>
        <time>2010-09-19T06:40:48Z</time>
      </trkpt>
      <trkpt lat="43.26022" lon="-0.42182">
        <ele>325.057</ele>
        <time>2010-09-19T06:40:49Z</time>
      </trkpt>
      <trkpt lat="43.26021" lon="-0.42182">
        <ele>325.104</ele>
        <time>2010-09-19T06:40:55Z</time>
      </trkpt>
      <trkpt lat="43.26021" lon="-0.42182">
        <ele>325.141</ele>
        <time>2010-09-19T06:40:59Z</time>
      </trkpt>
      <trkpt lat="43.26021" lon="-0.42182">
        <ele>325.07</ele>
        <time>2010-09-19T06:41:01Z</time>
      </trkpt>
      <trkpt lat="43.26021" lon="-0.42182">
        <ele>325.239</ele>
        <time>2010-09-19T06:41:03Z</time>
      </trkpt>
      <trkpt lat="43.26021" lon="-0.42182">
        <ele>325.14</ele>
        <time>2010-09-19T06:41:06Z</time>
      </trkpt>
      <trkpt lat="43.26021" lon="-0.42182">
        <ele>325.146</ele>
        <time>2010-09-19T06:41:07Z</time>
      </trkpt>
      <trkpt lat="43.2602" lon="-0.42183">
        <ele>325.387</ele>
        <time>2010-09-19T06:41:30Z</time>
      </trkpt>
      <trkpt lat="43.26019" lon="-0.42184">
        <ele>325.361</ele>
        <time>2010-09-19T06:41:34Z</time>
      </trkpt>
      <trkpt lat="43.26019" lon="-0.42184">
        <ele>325.545</ele>
        <time>2010-09-19T06:41:36Z</time>
      </trkpt>
      <trkpt lat="43.26018" lon="-0.42184">
        <ele>325.522</ele>
        <time>2010-09-19T06:41:38Z</time>
      </trkpt>
      <trkpt lat="43.26017" lon="-0.42186">
        <ele>325.636</ele>
        <time>2010-09-19T06:41:46Z</time>
      </trkpt>
      <trkpt lat="43.26017" lon="-0.42187">
        <ele>325.535</ele>
        <time>2010-09-19T06:41:50Z</time>
      </trkpt>
      <trkpt lat="43.26017" lon="-0.42191">
        <ele>325.612</ele>
        <time>2010-09-19T06:42:07Z</time>
      </trkpt>
      <trkpt lat="43.26014" lon="-0.42199">
        <ele>325.76</ele>
        <time>2010-09-19T06:42:48Z</time>
      </trkpt>
      <trkpt lat="43.26013" lon="-0.422">
        <ele>325.732</ele>
        <time>2010-09-19T06:42:51Z</time>
      </trkpt>
      <trkpt lat="43.26013" lon="-0.42207">
        <ele>326.343</ele>
        <time>2010-09-19T06:43:04Z</time>
      </trkpt>
      <trkpt lat="43.26013" lon="-0.42213">
        <ele>326.471</ele>
        <time>2010-09-19T06:43:09Z</time>
      </trkpt>
      <trkpt lat="43.26013" lon="-0.42215">
        <ele>326.526</ele>
        <time>2010-09-19T06:43:11Z</time>
      </trkpt>
      <trkpt lat="43.26008" lon="-0.42231">
        <ele>325.839</ele>
        <time>2010-09-19T06:43:18Z</time>
      </trkpt>
      <trkpt lat="43.26" lon="-0.42246">
        <ele>325.362</ele>
        <time>2010-09-19T06:43:24Z</time>
      </trkpt>
      <trkpt lat="43.25987" lon="-0.42272">
        <ele>323.992</ele>
        <time>2010-09-19T06:43:32Z</time>
      </trkpt>
      <trkpt lat="43.25971" lon="-0.42298">
        <ele>322.534</ele>
        <time>2010-09-19T06:43:39Z</time>
      </trkpt>
      <trkpt lat="43.25962" lon="-0.42312">
        <ele>321.829</ele>
        <time>2010-09-19T06:43:43Z</time>
      </trkpt>
      <trkpt lat="43.25961" lon="-0.42316">
        <ele>321.497</ele>
        <time>2010-09-19T06:43:44Z</time>
      </trkpt>
      <trkpt lat="43.25959" lon="-0.42319">
        <ele>321.169</ele>
        <time>2010-09-19T06:43:45Z</time>
      </trkpt>
      <trkpt lat="43.25953" lon="-0.42328">
        <ele>320.326</ele>
        <time>2010-09-19T06:43:48Z</time>
      </trkpt>
      <trkpt lat="43.25944" lon="-0.42339">
        <ele>318.618</ele>
        <time>2010-09-19T06:43:53Z</time>
      </trkpt>
      <trkpt lat="43.25936" lon="-0.42335">
        <ele>317.776</ele>
        <time>2010-09-19T06:43:57Z</time>
      </trkpt>
      <trkpt lat="43.25935" lon="-0.42325">
        <ele>318.176</ele>
        <time>2010-09-19T06:44:01Z</time>
      </trkpt>
      <trkpt lat="43.25934" lon="-0.42315">
        <ele>318.829</ele>
        <time>2010-09-19T06:44:04Z</time>
      </trkpt>
      <trkpt lat="43.25934" lon="-0.42309">
        <ele>319.448</ele>
        <time>2010-09-19T06:44:06Z</time>
      </trkpt>
      <trkpt lat="43.25933" lon="-0.42305">
        <ele>319.818</ele>
        <time>2010-09-19T06:44:07Z</time>
      </trkpt>
      <trkpt lat="43.25932" lon="-0.42297">
        <ele>320.781</ele>
        <time>2010-09-19T06:44:10Z</time>
      </trkpt>
      <trkpt lat="43.25932" lon="-0.42292">
        <ele>321.36</ele>
        <time>2010-09-19T06:44:12Z</time>
      </trkpt>
      <trkpt lat="43.25923" lon="-0.42284">
        <ele>322.637</ele>
        <time>2010-09-19T06:44:17Z</time>
      </trkpt>
      <trkpt lat="43.25921" lon="-0.42282">
        <ele>322.464</ele>
        <time>2010-09-19T06:44:18Z</time>
      </trkpt>
      <trkpt lat="43.25897" lon="-0.42268">
        <ele>319.889</ele>
        <time>2010-09-19T06:44:23Z</time>
      </trkpt>
      <trkpt lat="43.25866" lon="-0.42245">
        <ele>316.664</ele>
        <time>2010-09-19T06:44:28Z</time>
      </trkpt>
      <trkpt lat="43.25847" lon="-0.42231">
        <ele>317.295</ele>
        <time>2010-09-19T06:44:32Z</time>
      </trkpt>
      <trkpt lat="43.25835" lon="-0.42223">
        <ele>318.138</ele>
        <time>2010-09-19T06:44:35Z</time>
      </trkpt>
      <trkpt lat="43.25813" lon="-0.42209">
        <ele>320.612</ele>
        <time>2010-09-19T06:44:42Z</time>
      </trkpt>
      <trkpt lat="43.25792" lon="-0.42195">
        <ele>322.995</ele>
        <time>2010-09-19T06:44:51Z</time>
      </trkpt>
      <trkpt lat="43.25775" lon="-0.42183">
        <ele>324.252</ele>
        <time>2010-09-19T06:44:58Z</time>
      </trkpt>
      <trkpt lat="43.25759" lon="-0.42167">
        <ele>325.207</ele>
        <time>2010-09-19T06:45:05Z</time>
      </trkpt>
      <trkpt lat="43.25736" lon="-0.42143">
        <ele>324</ele>
        <time>2010-09-19T06:45:13Z</time>
      </trkpt>
      <trkpt lat="43.25705" lon="-0.42113">
        <ele>322.393</ele>
        <time>2010-09-19T06:45:21Z</time>
      </trkpt>
      <trkpt lat="43.25686" lon="-0.42095">
        <ele>322.701</ele>
        <time>2010-09-19T06:45:27Z</time>
      </trkpt>
      <trkpt lat="43.25658" lon="-0.42069">
        <ele>324.011</ele>
        <time>2010-09-19T06:45:37Z</time>
      </trkpt>
      <trkpt lat="43.25655" lon="-0.42067">
        <ele>324.213</ele>
        <time>2010-09-19T06:45:38Z</time>
      </trkpt>
      <trkpt lat="43.25635" lon="-0.42075">
        <ele>321.989</ele>
        <time>2010-09-19T06:45:43Z</time>
      </trkpt>
      <trkpt lat="43.25624" lon="-0.42081">
        <ele>320.046</ele>
        <time>2010-09-19T06:45:45Z</time>
      </trkpt>
      <trkpt lat="43.25609" lon="-0.42106">
        <ele>315.195</ele>
        <time>2010-09-19T06:45:49Z</time>
      </trkpt>
      <trkpt lat="43.25602" lon="-0.42122">
        <ele>312.668</ele>
        <time>2010-09-19T06:45:51Z</time>
      </trkpt>
      <trkpt lat="43.25582" lon="-0.42169">
        <ele>306.937</ele>
        <time>2010-09-19T06:45:56Z</time>
      </trkpt>
      <trkpt lat="43.25554" lon="-0.42221">
        <ele>301.346</ele>
        <time>2010-09-19T06:46:01Z</time>
      </trkpt>
      <trkpt lat="43.25512" lon="-0.42296">
        <ele>294.979</ele>
        <time>2010-09-19T06:46:08Z</time>
      </trkpt>
      <trkpt lat="43.25498" lon="-0.4232">
        <ele>292.271</ele>
        <time>2010-09-19T06:46:11Z</time>
      </trkpt>
      <trkpt lat="43.25484" lon="-0.42358">
        <ele>287.41</ele>
        <time>2010-09-19T06:46:16Z</time>
      </trkpt>
      <trkpt lat="43.25482" lon="-0.42369">
        <ele>286.67</ele>
        <time>2010-09-19T06:46:18Z</time>
      </trkpt>
      <trkpt lat="43.25483" lon="-0.42374">
        <ele>286.334</ele>
        <time>2010-09-19T06:46:19Z</time>
      </trkpt>
      <trkpt lat="43.25496" lon="-0.42388">
        <ele>285.809</ele>
        <time>2010-09-19T06:46:24Z</time>
      </trkpt>
      <trkpt lat="43.25503" lon="-0.42382">
        <ele>285.794</ele>
        <time>2010-09-19T06:46:27Z</time>
      </trkpt>
      <trkpt lat="43.25505" lon="-0.42378">
        <ele>285.832</ele>
        <time>2010-09-19T06:46:28Z</time>
      </trkpt>
      <trkpt lat="43.2552" lon="-0.42356">
        <ele>286.267</ele>
        <time>2010-09-19T06:46:35Z</time>
      </trkpt>
      <trkpt lat="43.25535" lon="-0.42333">
        <ele>286.966</ele>
        <time>2010-09-19T06:46:42Z</time>
      </trkpt>
      <trkpt lat="43.25541" lon="-0.42323">
        <ele>287.272</ele>
        <time>2010-09-19T06:46:45Z</time>
      </trkpt>
      <trkpt lat="43.25556" lon="-0.42302">
        <ele>288.365</ele>
        <time>2010-09-19T06:46:52Z</time>
      </trkpt>
      <trkpt lat="43.25565" lon="-0.4229">
        <ele>289.206</ele>
        <time>2010-09-19T06:46:56Z</time>
      </trkpt>
      <trkpt lat="43.25567" lon="-0.42287">
        <ele>289.4</ele>
        <time>2010-09-19T06:46:57Z</time>
      </trkpt>
      <trkpt lat="43.25569" lon="-0.42284">
        <ele>289.48</ele>
        <time>2010-09-19T06:46:58Z</time>
      </trkpt>
      <trkpt lat="43.25574" lon="-0.42279">
        <ele>289.834</ele>
        <time>2010-09-19T06:47:00Z</time>
      </trkpt>
      <trkpt lat="43.25576" lon="-0.42276">
        <ele>289.987</ele>
        <time>2010-09-19T06:47:01Z</time>
      </trkpt>
      <trkpt lat="43.25593" lon="-0.42255">
        <ele>291.031</ele>
        <time>2010-09-19T06:47:09Z</time>
      </trkpt>
      <trkpt lat="43.25611" lon="-0.42234">
        <ele>292.249</ele>
        <time>2010-09-19T06:47:17Z</time>
      </trkpt>
      <trkpt lat="43.25617" lon="-0.42224">
        <ele>293.086</ele>
        <time>2010-09-19T06:47:23Z</time>
      </trkpt>
      <trkpt lat="43.25625" lon="-0.42221">
        <ele>293.087</ele>
        <time>2010-09-19T06:47:30Z</time>
      </trkpt>
      <trkpt lat="43.25629" lon="-0.4222">
        <ele>292.697</ele>
        <time>2010-09-19T06:47:36Z</time>
      </trkpt>
      <trkpt lat="43.25631" lon="-0.42219">
        <ele>292.564</ele>
        <time>2010-09-19T06:47:44Z</time>
      </trkpt>
      <trkpt lat="43.25635" lon="-0.42215">
        <ele>293.337</ele>
        <time>2010-09-19T06:47:50Z</time>
      </trkpt>
      <trkpt lat="43.25638" lon="-0.42211">
        <ele>294.414</ele>
        <time>2010-09-19T06:47:56Z</time>
      </trkpt>
      <trkpt lat="43.2564" lon="-0.42208">
        <ele>295.394</ele>
        <time>2010-09-19T06:47:58Z</time>
      </trkpt>
      <trkpt lat="43.25642" lon="-0.42205">
        <ele>296.078</ele>
        <time>2010-09-19T06:48:00Z</time>
      </trkpt>
      <trkpt lat="43.25648" lon="-0.422">
        <ele>296.559</ele>
        <time>2010-09-19T06:48:04Z</time>
      </trkpt>
      <trkpt lat="43.25664" lon="-0.42198">
        <ele>297.541</ele>
        <time>2010-09-19T06:48:12Z</time>
      </trkpt>
      <trkpt lat="43.2568" lon="-0.42204">
        <ele>298.496</ele>
        <time>2010-09-19T06:48:19Z</time>
      </trkpt>
      <trkpt lat="43.25697" lon="-0.4222">
        <ele>300.919</ele>
        <time>2010-09-19T06:48:28Z</time>
      </trkpt>
      <trkpt lat="43.25704" lon="-0.42235">
        <ele>302.838</ele>
        <time>2010-09-19T06:48:34Z</time>
      </trkpt>
      <trkpt lat="43.25712" lon="-0.42255">
        <ele>303.753</ele>
        <time>2010-09-19T06:48:41Z</time>
      </trkpt>
      <trkpt lat="43.25719" lon="-0.42273">
        <ele>304.085</ele>
        <time>2010-09-19T06:48:46Z</time>
      </trkpt>
      <trkpt lat="43.25729" lon="-0.42291">
        <ele>304.401</ele>
        <time>2010-09-19T06:48:52Z</time>
      </trkpt>
      <trkpt lat="43.2573" lon="-0.42301">
        <ele>303.171</ele>
        <time>2010-09-19T06:48:57Z</time>
      </trkpt>
      <trkpt lat="43.25723" lon="-0.42322">
        <ele>297.806</ele>
        <time>2010-09-19T06:49:04Z</time>
      </trkpt>
      <trkpt lat="43.25723" lon="-0.42326">
        <ele>297.057</ele>
        <time>2010-09-19T06:49:05Z</time>
      </trkpt>
      <trkpt lat="43.25735" lon="-0.42338">
        <ele>295.413</ele>
        <time>2010-09-19T06:49:09Z</time>
      </trkpt>
      <trkpt lat="43.25762" lon="-0.42346">
        <ele>292.449</ele>
        <time>2010-09-19T06:49:14Z</time>
      </trkpt>
      <trkpt lat="43.25769" lon="-0.42351">
        <ele>289.607</ele>
        <time>2010-09-19T06:49:16Z</time>
      </trkpt>
      <trkpt lat="43.25768" lon="-0.42367">
        <ele>286.772</ele>
        <time>2010-09-19T06:49:19Z</time>
      </trkpt>
      <trkpt lat="43.25759" lon="-0.42397">
        <ele>281.542</ele>
        <time>2010-09-19T06:49:22Z</time>
      </trkpt>
      <trkpt lat="43.25741" lon="-0.42454">
        <ele>269.235</ele>
        <time>2010-09-19T06:49:27Z</time>
      </trkpt>
      <trkpt lat="43.25719" lon="-0.42488">
        <ele>264.969</ele>
        <time>2010-09-19T06:49:31Z</time>
      </trkpt>
      <trkpt lat="43.25702" lon="-0.42512">
        <ele>262.819</ele>
        <time>2010-09-19T06:49:35Z</time>
      </trkpt>
      <trkpt lat="43.25687" lon="-0.42532">
        <ele>260.955</ele>
        <time>2010-09-19T06:49:39Z</time>
      </trkpt>
      <trkpt lat="43.25668" lon="-0.42566">
        <ele>257.673</ele>
        <time>2010-09-19T06:49:44Z</time>
      </trkpt>
      <trkpt lat="43.25658" lon="-0.42582">
        <ele>254.575</ele>
        <time>2010-09-19T06:49:47Z</time>
      </trkpt>
      <trkpt lat="43.25645" lon="-0.42589">
        <ele>251.014</ele>
        <time>2010-09-19T06:49:51Z</time>
      </trkpt>
      <trkpt lat="43.25637" lon="-0.42593">
        <ele>249.334</ele>
        <time>2010-09-19T06:49:56Z</time>
      </trkpt>
      <trkpt lat="43.25638" lon="-0.42614">
        <ele>245.616</ele>
        <time>2010-09-19T06:50:00Z</time>
      </trkpt>
      <trkpt lat="43.25646" lon="-0.4263">
        <ele>240.631</ele>
        <time>2010-09-19T06:50:04Z</time>
      </trkpt>
      <trkpt lat="43.25663" lon="-0.4263">
        <ele>237.052</ele>
        <time>2010-09-19T06:50:07Z</time>
      </trkpt>
      <trkpt lat="43.25674" lon="-0.42625">
        <ele>234.75</ele>
        <time>2010-09-19T06:50:09Z</time>
      </trkpt>
      <trkpt lat="43.25685" lon="-0.42615">
        <ele>233.553</ele>
        <time>2010-09-19T06:50:11Z</time>
      </trkpt>
      <trkpt lat="43.25717" lon="-0.42593">
        <ele>229.79</ele>
        <time>2010-09-19T06:50:16Z</time>
      </trkpt>
      <trkpt lat="43.25742" lon="-0.42574">
        <ele>225.197</ele>
        <time>2010-09-19T06:50:20Z</time>
      </trkpt>
      <trkpt lat="43.2575" lon="-0.42575">
        <ele>224.437</ele>
        <time>2010-09-19T06:50:22Z</time>
      </trkpt>
      <trkpt lat="43.25753" lon="-0.42586">
        <ele>224.218</ele>
        <time>2010-09-19T06:50:25Z</time>
      </trkpt>
      <trkpt lat="43.25751" lon="-0.42592">
        <ele>223.687</ele>
        <time>2010-09-19T06:50:26Z</time>
      </trkpt>
      <trkpt lat="43.25734" lon="-0.42633">
        <ele>218.053</ele>
        <time>2010-09-19T06:50:31Z</time>
      </trkpt>
      <trkpt lat="43.25725" lon="-0.42652">
        <ele>214.629</ele>
        <time>2010-09-19T06:50:34Z</time>
      </trkpt>
      <trkpt lat="43.25713" lon="-0.42677">
        <ele>210.31</ele>
        <time>2010-09-19T06:50:38Z</time>
      </trkpt>
      <trkpt lat="43.25694" lon="-0.4271">
        <ele>202.658</ele>
        <time>2010-09-19T06:50:43Z</time>
      </trkpt>
      <trkpt lat="43.25676" lon="-0.42742">
        <ele>197.663</ele>
        <time>2010-09-19T06:50:47Z</time>
      </trkpt>
      <trkpt lat="43.25668" lon="-0.4275">
        <ele>195.984</ele>
        <time>2010-09-19T06:50:48Z</time>
      </trkpt>
      <trkpt lat="43.25657" lon="-0.42765">
        <ele>193.152</ele>
        <time>2010-09-19T06:50:50Z</time>
      </trkpt>
      <trkpt lat="43.25649" lon="-0.42787">
        <ele>190.298</ele>
        <time>2010-09-19T06:50:54Z</time>
      </trkpt>
      <trkpt lat="43.25659" lon="-0.42805">
        <ele>188.605</ele>
        <time>2010-09-19T06:50:58Z</time>
      </trkpt>
      <trkpt lat="43.25661" lon="-0.42809">
        <ele>188.03</ele>
        <time>2010-09-19T06:50:59Z</time>
      </trkpt>
      <trkpt lat="43.25671" lon="-0.42826">
        <ele>186.672</ele>
        <time>2010-09-19T06:51:04Z</time>
      </trkpt>
      <trkpt lat="43.25684" lon="-0.42847">
        <ele>185.335</ele>
        <time>2010-09-19T06:51:09Z</time>
      </trkpt>
      <trkpt lat="43.25693" lon="-0.42864">
        <ele>184.933</ele>
        <time>2010-09-19T06:51:15Z</time>
      </trkpt>
      <trkpt lat="43.25702" lon="-0.42876">
        <ele>184.415</ele>
        <time>2010-09-19T06:51:21Z</time>
      </trkpt>
      <trkpt lat="43.25709" lon="-0.42884">
        <ele>184.289</ele>
        <time>2010-09-19T06:51:25Z</time>
      </trkpt>
      <trkpt lat="43.25725" lon="-0.42901">
        <ele>184.233</ele>
        <time>2010-09-19T06:51:31Z</time>
      </trkpt>
      <trkpt lat="43.25752" lon="-0.42927">
        <ele>184.389</ele>
        <time>2010-09-19T06:51:38Z</time>
      </trkpt>
      <trkpt lat="43.25774" lon="-0.42946">
        <ele>183.897</ele>
        <time>2010-09-19T06:51:44Z</time>
      </trkpt>
      <trkpt lat="43.25784" lon="-0.42959">
        <ele>183.884</ele>
        <time>2010-09-19T06:51:49Z</time>
      </trkpt>
      <trkpt lat="43.25798" lon="-0.42976">
        <ele>183.724</ele>
        <time>2010-09-19T06:51:55Z</time>
      </trkpt>
      <trkpt lat="43.25818" lon="-0.42998">
        <ele>183.54</ele>
        <time>2010-09-19T06:52:02Z</time>
      </trkpt>
      <trkpt lat="43.25845" lon="-0.43025">
        <ele>182.949</ele>
        <time>2010-09-19T06:52:10Z</time>
      </trkpt>
      <trkpt lat="43.25867" lon="-0.43047">
        <ele>182.827</ele>
        <time>2010-09-19T06:52:16Z</time>
      </trkpt>
      <trkpt lat="43.25877" lon="-0.43071">
        <ele>182.904</ele>
        <time>2010-09-19T06:52:21Z</time>
      </trkpt>
      <trkpt lat="43.25886" lon="-0.43113">
        <ele>182.605</ele>
        <time>2010-09-19T06:52:29Z</time>
      </trkpt>
      <trkpt lat="43.25897" lon="-0.43116">
        <ele>182.397</ele>
        <time>2010-09-19T06:52:32Z</time>
      </trkpt>
      <trkpt lat="43.25914" lon="-0.43096">
        <ele>181.908</ele>
        <time>2010-09-19T06:52:38Z</time>
      </trkpt>
      <trkpt lat="43.25937" lon="-0.43075">
        <ele>181.72</ele>
        <time>2010-09-19T06:52:45Z</time>
      </trkpt>
      <trkpt lat="43.25951" lon="-0.4307">
        <ele>181.365</ele>
        <time>2010-09-19T06:52:49Z</time>
      </trkpt>
      <trkpt lat="43.25975" lon="-0.43082">
        <ele>181.702</ele>
        <time>2010-09-19T06:52:56Z</time>
      </trkpt>
      <trkpt lat="43.25985" lon="-0.43101">
        <ele>181.676</ele>
        <time>2010-09-19T06:53:01Z</time>
      </trkpt>
      <trkpt lat="43.25996" lon="-0.43132">
        <ele>181.404</ele>
        <time>2010-09-19T06:53:07Z</time>
      </trkpt>
      <trkpt lat="43.26006" lon="-0.43168">
        <ele>181.042</ele>
        <time>2010-09-19T06:53:14Z</time>
      </trkpt>
      <trkpt lat="43.26011" lon="-0.43198">
        <ele>180.818</ele>
        <time>2010-09-19T06:53:20Z</time>
      </trkpt>
      <trkpt lat="43.26017" lon="-0.4323">
        <ele>176.738</ele>
        <time>2010-09-19T06:53:26Z</time>
      </trkpt>
      <trkpt lat="43.26022" lon="-0.43261">
        <ele>179.439</ele>
        <time>2010-09-19T06:53:32Z</time>
      </trkpt>
      <trkpt lat="43.26025" lon="-0.43271">
        <ele>180.518</ele>
        <time>2010-09-19T06:53:34Z</time>
      </trkpt>
      <trkpt lat="43.26046" lon="-0.43317">
        <ele>180.458</ele>
        <time>2010-09-19T06:53:43Z</time>
      </trkpt>
      <trkpt lat="43.2604" lon="-0.43344">
        <ele>181.215</ele>
        <time>2010-09-19T06:53:49Z</time>
      </trkpt>
      <trkpt lat="43.26036" lon="-0.4336">
        <ele>181.579</ele>
        <time>2010-09-19T06:53:52Z</time>
      </trkpt>
      <trkpt lat="43.26029" lon="-0.43387">
        <ele>183.045</ele>
        <time>2010-09-19T06:53:57Z</time>
      </trkpt>
      <trkpt lat="43.26038" lon="-0.43401">
        <ele>184.164</ele>
        <time>2010-09-19T06:54:01Z</time>
      </trkpt>
      <trkpt lat="43.2607" lon="-0.43421">
        <ele>184.47</ele>
        <time>2010-09-19T06:54:08Z</time>
      </trkpt>
      <trkpt lat="43.26096" lon="-0.43436">
        <ele>184.777</ele>
        <time>2010-09-19T06:54:13Z</time>
      </trkpt>
      <trkpt lat="43.26136" lon="-0.43464">
        <ele>184.801</ele>
        <time>2010-09-19T06:54:20Z</time>
      </trkpt>
      <trkpt lat="43.26183" lon="-0.43498">
        <ele>186.2</ele>
        <time>2010-09-19T06:54:28Z</time>
      </trkpt>
      <trkpt lat="43.2623" lon="-0.43524">
        <ele>183.402</ele>
        <time>2010-09-19T06:54:35Z</time>
      </trkpt>
      <trkpt lat="43.26286" lon="-0.43551">
        <ele>182.589</ele>
        <time>2010-09-19T06:54:43Z</time>
      </trkpt>
      <trkpt lat="43.26342" lon="-0.4358">
        <ele>181.57</ele>
        <time>2010-09-19T06:54:51Z</time>
      </trkpt>
      <trkpt lat="43.26392" lon="-0.43607">
        <ele>181.055</ele>
        <time>2010-09-19T06:54:58Z</time>
      </trkpt>
      <trkpt lat="43.26443" lon="-0.43633">
        <ele>180.319</ele>
        <time>2010-09-19T06:55:05Z</time>
      </trkpt>
      <trkpt lat="43.26488" lon="-0.43652">
        <ele>180.681</ele>
        <time>2010-09-19T06:55:12Z</time>
      </trkpt>
      <trkpt lat="43.26538" lon="-0.43671">
        <ele>179.093</ele>
        <time>2010-09-19T06:55:19Z</time>
      </trkpt>
      <trkpt lat="43.26613" lon="-0.43692">
        <ele>177.46</ele>
        <time>2010-09-19T06:55:29Z</time>
      </trkpt>
      <trkpt lat="43.26664" lon="-0.43712">
        <ele>177.236</ele>
        <time>2010-09-19T06:55:36Z</time>
      </trkpt>
      <trkpt lat="43.26719" lon="-0.43741">
        <ele>176.921</ele>
        <time>2010-09-19T06:55:44Z</time>
      </trkpt>
      <trkpt lat="43.26777" lon="-0.4377">
        <ele>177.881</ele>
        <time>2010-09-19T06:55:53Z</time>
      </trkpt>
      <trkpt lat="43.26815" lon="-0.43788">
        <ele>178.536</ele>
        <time>2010-09-19T06:56:00Z</time>
      </trkpt>
      <trkpt lat="43.2682" lon="-0.4379">
        <ele>178.5</ele>
        <time>2010-09-19T06:56:01Z</time>
      </trkpt>
      <trkpt lat="43.26835" lon="-0.4381">
        <ele>178.814</ele>
        <time>2010-09-19T06:56:06Z</time>
      </trkpt>
      <trkpt lat="43.26853" lon="-0.43831">
        <ele>180.697</ele>
        <time>2010-09-19T06:56:13Z</time>
      </trkpt>
      <trkpt lat="43.2687" lon="-0.43844">
        <ele>182.751</ele>
        <time>2010-09-19T06:56:20Z</time>
      </trkpt>
      <trkpt lat="43.26886" lon="-0.43853">
        <ele>184.769</ele>
        <time>2010-09-19T06:56:26Z</time>
      </trkpt>
      <trkpt lat="43.26899" lon="-0.43867">
        <ele>186.993</ele>
        <time>2010-09-19T06:56:32Z</time>
      </trkpt>
      <trkpt lat="43.26903" lon="-0.43872">
        <ele>187.746</ele>
        <time>2010-09-19T06:56:34Z</time>
      </trkpt>
      <trkpt lat="43.2691" lon="-0.43889">
        <ele>190.025</ele>
        <time>2010-09-19T06:56:40Z</time>
      </trkpt>
      <trkpt lat="43.26911" lon="-0.43906">
        <ele>191.696</ele>
        <time>2010-09-19T06:56:47Z</time>
      </trkpt>
      <trkpt lat="43.26909" lon="-0.43923">
        <ele>194.194</ele>
        <time>2010-09-19T06:56:55Z</time>
      </trkpt>
      <trkpt lat="43.26906" lon="-0.43935">
        <ele>194.753</ele>
        <time>2010-09-19T06:57:01Z</time>
      </trkpt>
      <trkpt lat="43.26904" lon="-0.4395">
        <ele>194.692</ele>
        <time>2010-09-19T06:57:06Z</time>
      </trkpt>
      <trkpt lat="43.26899" lon="-0.43973">
        <ele>194.5</ele>
        <time>2010-09-19T06:57:11Z</time>
      </trkpt>
      <trkpt lat="43.26893" lon="-0.44008">
        <ele>194.207</ele>
        <time>2010-09-19T06:57:18Z</time>
      </trkpt>
      <trkpt lat="43.26896" lon="-0.44029">
        <ele>193.402</ele>
        <time>2010-09-19T06:57:22Z</time>
      </trkpt>
      <trkpt lat="43.26899" lon="-0.44047">
        <ele>192.078</ele>
        <time>2010-09-19T06:57:24Z</time>
      </trkpt>
      <trkpt lat="43.26905" lon="-0.44066">
        <ele>192.592</ele>
        <time>2010-09-19T06:57:28Z</time>
      </trkpt>
      <trkpt lat="43.26905" lon="-0.44069">
        <ele>193.001</ele>
        <time>2010-09-19T06:57:30Z</time>
      </trkpt>
      <trkpt lat="43.26904" lon="-0.44074">
        <ele>193.378</ele>
        <time>2010-09-19T06:57:35Z</time>
      </trkpt>
      <trkpt lat="43.26904" lon="-0.44079">
        <ele>194.086</ele>
        <time>2010-09-19T06:57:41Z</time>
      </trkpt>
      <trkpt lat="43.26903" lon="-0.44085">
        <ele>194.771</ele>
        <time>2010-09-19T06:57:47Z</time>
      </trkpt>
      <trkpt lat="43.26903" lon="-0.44092">
        <ele>194.808</ele>
        <time>2010-09-19T06:57:52Z</time>
      </trkpt>
      <trkpt lat="43.26902" lon="-0.44096">
        <ele>195.378</ele>
        <time>2010-09-19T06:57:55Z</time>
      </trkpt>
      <trkpt lat="43.269" lon="-0.44108">
        <ele>196.417</ele>
        <time>2010-09-19T06:58:03Z</time>
      </trkpt>
      <trkpt lat="43.269" lon="-0.4411">
        <ele>196.639</ele>
        <time>2010-09-19T06:58:05Z</time>
      </trkpt>
      <trkpt lat="43.269" lon="-0.44115">
        <ele>197.464</ele>
        <time>2010-09-19T06:58:09Z</time>
      </trkpt>
      <trkpt lat="43.26903" lon="-0.44125">
        <ele>199.022</ele>
        <time>2010-09-19T06:58:17Z</time>
      </trkpt>
      <trkpt lat="43.26904" lon="-0.44127">
        <ele>200.114</ele>
        <time>2010-09-19T06:58:24Z</time>
      </trkpt>
      <trkpt lat="43.26904" lon="-0.44125">
        <ele>200.618</ele>
        <time>2010-09-19T06:58:30Z</time>
      </trkpt>
      <trkpt lat="43.26905" lon="-0.44122">
        <ele>201.831</ele>
        <time>2010-09-19T06:58:36Z</time>
      </trkpt>
      <trkpt lat="43.26909" lon="-0.44117">
        <ele>203.384</ele>
        <time>2010-09-19T06:58:41Z</time>
      </trkpt>
      <trkpt lat="43.2691" lon="-0.44115">
        <ele>203.82</ele>
        <time>2010-09-19T06:58:43Z</time>
      </trkpt>
      <trkpt lat="43.26911" lon="-0.44112">
        <ele>204.371</ele>
        <time>2010-09-19T06:58:45Z</time>
      </trkpt>
      <trkpt lat="43.26916" lon="-0.44104">
        <ele>205.651</ele>
        <time>2010-09-19T06:58:49Z</time>
      </trkpt>
      <trkpt lat="43.26924" lon="-0.44093">
        <ele>207.59</ele>
        <time>2010-09-19T06:58:56Z</time>
      </trkpt>
      <trkpt lat="43.26928" lon="-0.44083">
        <ele>208.758</ele>
        <time>2010-09-19T06:59:01Z</time>
      </trkpt>
      <trkpt lat="43.26931" lon="-0.44076">
        <ele>209.941</ele>
        <time>2010-09-19T06:59:07Z</time>
      </trkpt>
      <trkpt lat="43.2694" lon="-0.44065">
        <ele>211.55</ele>
        <time>2010-09-19T06:59:16Z</time>
      </trkpt>
      <trkpt lat="43.26949" lon="-0.44057">
        <ele>212.53</ele>
        <time>2010-09-19T06:59:21Z</time>
      </trkpt>
      <trkpt lat="43.26958" lon="-0.44047">
        <ele>214.46</ele>
        <time>2010-09-19T06:59:29Z</time>
      </trkpt>
      <trkpt lat="43.26971" lon="-0.44037">
        <ele>216.181</ele>
        <time>2010-09-19T06:59:37Z</time>
      </trkpt>
      <trkpt lat="43.26981" lon="-0.44032">
        <ele>217.767</ele>
        <time>2010-09-19T06:59:44Z</time>
      </trkpt>
      <trkpt lat="43.26991" lon="-0.44034">
        <ele>219.14</ele>
        <time>2010-09-19T06:59:52Z</time>
      </trkpt>
      <trkpt lat="43.27001" lon="-0.44038">
        <ele>219.947</ele>
        <time>2010-09-19T06:59:58Z</time>
      </trkpt>
      <trkpt lat="43.27004" lon="-0.44047">
        <ele>221.456</ele>
        <time>2010-09-19T07:00:05Z</time>
      </trkpt>
      <trkpt lat="43.27002" lon="-0.44049">
        <ele>222.088</ele>
        <time>2010-09-19T07:00:07Z</time>
      </trkpt>
      <trkpt lat="43.2699" lon="-0.44057">
        <ele>224.733</ele>
        <time>2010-09-19T07:00:18Z</time>
      </trkpt>
      <trkpt lat="43.26983" lon="-0.44066">
        <ele>226.169</ele>
        <time>2010-09-19T07:00:25Z</time>
      </trkpt>
      <trkpt lat="43.26975" lon="-0.44082">
        <ele>227.746</ele>
        <time>2010-09-19T07:00:34Z</time>
      </trkpt>
      <trkpt lat="43.26963" lon="-0.44103">
        <ele>228.931</ele>
        <time>2010-09-19T07:00:45Z</time>
      </trkpt>
      <trkpt lat="43.26961" lon="-0.44114">
        <ele>229.799</ele>
        <time>2010-09-19T07:00:50Z</time>
      </trkpt>
      <trkpt lat="43.26955" lon="-0.4413">
        <ele>230.668</ele>
        <time>2010-09-19T07:00:57Z</time>
      </trkpt>
      <trkpt lat="43.26947" lon="-0.44149">
        <ele>229.745</ele>
        <time>2010-09-19T07:01:03Z</time>
      </trkpt>
      <trkpt lat="43.26945" lon="-0.44159">
        <ele>229.933</ele>
        <time>2010-09-19T07:01:08Z</time>
      </trkpt>
      <trkpt lat="43.26942" lon="-0.44167">
        <ele>230.375</ele>
        <time>2010-09-19T07:01:14Z</time>
      </trkpt>
      <trkpt lat="43.26941" lon="-0.44179">
        <ele>231.029</ele>
        <time>2010-09-19T07:01:20Z</time>
      </trkpt>
      <trkpt lat="43.26942" lon="-0.44194">
        <ele>232.389</ele>
        <time>2010-09-19T07:01:28Z</time>
      </trkpt>
      <trkpt lat="43.26943" lon="-0.44208">
        <ele>235.02</ele>
        <time>2010-09-19T07:01:35Z</time>
      </trkpt>
      <trkpt lat="43.26945" lon="-0.4422">
        <ele>236.603</ele>
        <time>2010-09-19T07:01:42Z</time>
      </trkpt>
      <trkpt lat="43.26948" lon="-0.44237">
        <ele>239.072</ele>
        <time>2010-09-19T07:01:52Z</time>
      </trkpt>
      <trkpt lat="43.2695" lon="-0.44253">
        <ele>241.575</ele>
        <time>2010-09-19T07:02:02Z</time>
      </trkpt>
      <trkpt lat="43.26945" lon="-0.44272">
        <ele>241.162</ele>
        <time>2010-09-19T07:02:10Z</time>
      </trkpt>
      <trkpt lat="43.26937" lon="-0.44297">
        <ele>241.844</ele>
        <time>2010-09-19T07:02:19Z</time>
      </trkpt>
      <trkpt lat="43.26932" lon="-0.44315">
        <ele>242.934</ele>
        <time>2010-09-19T07:02:27Z</time>
      </trkpt>
      <trkpt lat="43.26927" lon="-0.44336">
        <ele>244.225</ele>
        <time>2010-09-19T07:02:36Z</time>
      </trkpt>
      <trkpt lat="43.26922" lon="-0.44355">
        <ele>246.032</ele>
        <time>2010-09-19T07:02:45Z</time>
      </trkpt>
      <trkpt lat="43.26915" lon="-0.44376">
        <ele>248.902</ele>
        <time>2010-09-19T07:02:56Z</time>
      </trkpt>
      <trkpt lat="43.2691" lon="-0.4439">
        <ele>251.154</ele>
        <time>2010-09-19T07:03:04Z</time>
      </trkpt>
      <trkpt lat="43.26906" lon="-0.44402">
        <ele>253.086</ele>
        <time>2010-09-19T07:03:11Z</time>
      </trkpt>
      <trkpt lat="43.26902" lon="-0.44416">
        <ele>255.641</ele>
        <time>2010-09-19T07:03:20Z</time>
      </trkpt>
      <trkpt lat="43.26899" lon="-0.4443">
        <ele>257.634</ele>
        <time>2010-09-19T07:03:28Z</time>
      </trkpt>
      <trkpt lat="43.26898" lon="-0.44432">
        <ele>258.016</ele>
        <time>2010-09-19T07:03:29Z</time>
      </trkpt>
      <trkpt lat="43.26899" lon="-0.44439">
        <ele>259.056</ele>
        <time>2010-09-19T07:03:37Z</time>
      </trkpt>
      <trkpt lat="43.26899" lon="-0.44439">
        <ele>259.069</ele>
        <time>2010-09-19T07:03:53Z</time>
      </trkpt>
      <trkpt lat="43.26899" lon="-0.44439">
        <ele>259.083</ele>
        <time>2010-09-19T07:03:57Z</time>
      </trkpt>
      <trkpt lat="43.26899" lon="-0.44438">
        <ele>259.279</ele>
        <time>2010-09-19T07:04:00Z</time>
      </trkpt>
      <trkpt lat="43.26899" lon="-0.44438">
        <ele>259.116</ele>
        <time>2010-09-19T07:04:05Z</time>
      </trkpt>
      <trkpt lat="43.26899" lon="-0.44439">
        <ele>259.242</ele>
        <time>2010-09-19T07:04:12Z</time>
      </trkpt>
      <trkpt lat="43.26899" lon="-0.44439">
        <ele>259.677</ele>
        <time>2010-09-19T07:04:17Z</time>
      </trkpt>
      <trkpt lat="43.26899" lon="-0.44439">
        <ele>259.189</ele>
        <time>2010-09-19T07:04:23Z</time>
      </trkpt>
      <trkpt lat="43.26899" lon="-0.44439">
        <ele>259.277</ele>
        <time>2010-09-19T07:04:25Z</time>
      </trkpt>
      <trkpt lat="43.26899" lon="-0.44439">
        <ele>259.108</ele>
        <time>2010-09-19T07:04:28Z</time>
      </trkpt>
      <trkpt lat="43.26899" lon="-0.44439">
        <ele>259.287</ele>
        <time>2010-09-19T07:04:31Z</time>
      </trkpt>
      <trkpt lat="43.26899" lon="-0.44439">
        <ele>259.206</ele>
        <time>2010-09-19T07:04:32Z</time>
      </trkpt>
      <trkpt lat="43.26898" lon="-0.44439">
        <ele>258.427</ele>
        <time>2010-09-19T07:04:39Z</time>
      </trkpt>
      <trkpt lat="43.26899" lon="-0.44437">
        <ele>258.54</ele>
        <time>2010-09-19T07:05:46Z</time>
      </trkpt>
      <trkpt lat="43.26899" lon="-0.44437">
        <ele>258.586</ele>
        <time>2010-09-19T07:05:50Z</time>
      </trkpt>
      <trkpt lat="43.26899" lon="-0.44437">
        <ele>258.515</ele>
        <time>2010-09-19T07:05:58Z</time>
      </trkpt>
      <trkpt lat="43.26899" lon="-0.44437">
        <ele>258.577</ele>
        <time>2010-09-19T07:06:02Z</time>
      </trkpt>
      <trkpt lat="43.26899" lon="-0.44436">
        <ele>258.573</ele>
        <time>2010-09-19T07:06:09Z</time>
      </trkpt>
      <trkpt lat="43.26899" lon="-0.44436">
        <ele>258.584</ele>
        <time>2010-09-19T07:06:12Z</time>
      </trkpt>
      <trkpt lat="43.269" lon="-0.44436">
        <ele>259.453</ele>
        <time>2010-09-19T07:06:18Z</time>
      </trkpt>
      <trkpt lat="43.26904" lon="-0.44435">
        <ele>259.408</ele>
        <time>2010-09-19T07:06:26Z</time>
      </trkpt>
      <trkpt lat="43.26909" lon="-0.44433">
        <ele>259.668</ele>
        <time>2010-09-19T07:06:30Z</time>
      </trkpt>
      <trkpt lat="43.26919" lon="-0.44424">
        <ele>259.735</ele>
        <time>2010-09-19T07:06:38Z</time>
      </trkpt>
      <trkpt lat="43.2693" lon="-0.44415">
        <ele>259.91</ele>
        <time>2010-09-19T07:06:45Z</time>
      </trkpt>
      <trkpt lat="43.26945" lon="-0.44414">
        <ele>262.59</ele>
        <time>2010-09-19T07:06:53Z</time>
      </trkpt>
      <trkpt lat="43.26947" lon="-0.44413">
        <ele>262.88</ele>
        <time>2010-09-19T07:06:54Z</time>
      </trkpt>
      <trkpt lat="43.26959" lon="-0.44414">
        <ele>263.878</ele>
        <time>2010-09-19T07:07:02Z</time>
      </trkpt>
      <trkpt lat="43.26973" lon="-0.44411">
        <ele>264.681</ele>
        <time>2010-09-19T07:07:10Z</time>
      </trkpt>
      <trkpt lat="43.26984" lon="-0.44417">
        <ele>264.829</ele>
        <time>2010-09-19T07:07:15Z</time>
      </trkpt>
      <trkpt lat="43.26981" lon="-0.44429">
        <ele>264.122</ele>
        <time>2010-09-19T07:07:19Z</time>
      </trkpt>
      <trkpt lat="43.26976" lon="-0.44433">
        <ele>263.74</ele>
        <time>2010-09-19T07:07:21Z</time>
      </trkpt>
      <trkpt lat="43.26958" lon="-0.44459">
        <ele>263.001</ele>
        <time>2010-09-19T07:07:29Z</time>
      </trkpt>
      <trkpt lat="43.26936" lon="-0.44496">
        <ele>262.323</ele>
        <time>2010-09-19T07:07:38Z</time>
      </trkpt>
      <trkpt lat="43.26924" lon="-0.44513">
        <ele>262.336</ele>
        <time>2010-09-19T07:07:42Z</time>
      </trkpt>
      <trkpt lat="43.26906" lon="-0.44538">
        <ele>262.776</ele>
        <time>2010-09-19T07:07:49Z</time>
      </trkpt>
      <trkpt lat="43.26891" lon="-0.44556">
        <ele>261.87</ele>
        <time>2010-09-19T07:07:54Z</time>
      </trkpt>
      <trkpt lat="43.26884" lon="-0.44563">
        <ele>262.419</ele>
        <time>2010-09-19T07:07:56Z</time>
      </trkpt>
      <trkpt lat="43.26872" lon="-0.44563">
        <ele>263.127</ele>
        <time>2010-09-19T07:08:00Z</time>
      </trkpt>
      <trkpt lat="43.26854" lon="-0.44558">
        <ele>265.533</ele>
        <time>2010-09-19T07:08:07Z</time>
      </trkpt>
      <trkpt lat="43.26835" lon="-0.44559">
        <ele>267.88</ele>
        <time>2010-09-19T07:08:14Z</time>
      </trkpt>
      <trkpt lat="43.26816" lon="-0.4456">
        <ele>270.146</ele>
        <time>2010-09-19T07:08:21Z</time>
      </trkpt>
      <trkpt lat="43.26802" lon="-0.44565">
        <ele>271.469</ele>
        <time>2010-09-19T07:08:26Z</time>
      </trkpt>
      <trkpt lat="43.26788" lon="-0.44573">
        <ele>273.036</ele>
        <time>2010-09-19T07:08:31Z</time>
      </trkpt>
      <trkpt lat="43.26775" lon="-0.44581">
        <ele>274.323</ele>
        <time>2010-09-19T07:08:36Z</time>
      </trkpt>
      <trkpt lat="43.26755" lon="-0.44594">
        <ele>276.781</ele>
        <time>2010-09-19T07:08:44Z</time>
      </trkpt>
      <trkpt lat="43.26738" lon="-0.44603">
        <ele>278.742</ele>
        <time>2010-09-19T07:08:51Z</time>
      </trkpt>
      <trkpt lat="43.26713" lon="-0.44618">
        <ele>281.16</ele>
        <time>2010-09-19T07:09:02Z</time>
      </trkpt>
      <trkpt lat="43.26698" lon="-0.44624">
        <ele>282.564</ele>
        <time>2010-09-19T07:09:09Z</time>
      </trkpt>
      <trkpt lat="43.26681" lon="-0.44626">
        <ele>283.935</ele>
        <time>2010-09-19T07:09:16Z</time>
      </trkpt>
      <trkpt lat="43.26662" lon="-0.44622">
        <ele>286.493</ele>
        <time>2010-09-19T07:09:24Z</time>
      </trkpt>
      <trkpt lat="43.26643" lon="-0.44611">
        <ele>288.608</ele>
        <time>2010-09-19T07:09:33Z</time>
      </trkpt>
      <trkpt lat="43.26623" lon="-0.44598">
        <ele>290.492</ele>
        <time>2010-09-19T07:09:43Z</time>
      </trkpt>
      <trkpt lat="43.26606" lon="-0.44585">
        <ele>291.583</ele>
        <time>2010-09-19T07:09:51Z</time>
      </trkpt>
      <trkpt lat="43.26588" lon="-0.44571">
        <ele>292.949</ele>
        <time>2010-09-19T07:09:59Z</time>
      </trkpt>
      <trkpt lat="43.2656" lon="-0.4455">
        <ele>295.644</ele>
        <time>2010-09-19T07:10:12Z</time>
      </trkpt>
      <trkpt lat="43.26537" lon="-0.44532">
        <ele>297.356</ele>
        <time>2010-09-19T07:10:22Z</time>
      </trkpt>
      <trkpt lat="43.26515" lon="-0.44515">
        <ele>298.142</ele>
        <time>2010-09-19T07:10:30Z</time>
      </trkpt>
      <trkpt lat="43.26478" lon="-0.44481">
        <ele>299.546</ele>
        <time>2010-09-19T07:10:43Z</time>
      </trkpt>
      <trkpt lat="43.2644" lon="-0.44446">
        <ele>300.633</ele>
        <time>2010-09-19T07:10:55Z</time>
      </trkpt>
      <trkpt lat="43.2642" lon="-0.44429">
        <ele>300.453</ele>
        <time>2010-09-19T07:11:00Z</time>
      </trkpt>
      <trkpt lat="43.26392" lon="-0.44395">
        <ele>299.568</ele>
        <time>2010-09-19T07:11:06Z</time>
      </trkpt>
      <trkpt lat="43.26362" lon="-0.4437">
        <ele>298.05</ele>
        <time>2010-09-19T07:11:11Z</time>
      </trkpt>
      <trkpt lat="43.26354" lon="-0.44368">
        <ele>297.755</ele>
        <time>2010-09-19T07:11:12Z</time>
      </trkpt>
      <trkpt lat="43.2632" lon="-0.44362">
        <ele>295.835</ele>
        <time>2010-09-19T07:11:16Z</time>
      </trkpt>
      <trkpt lat="43.26258" lon="-0.44351">
        <ele>294.898</ele>
        <time>2010-09-19T07:11:24Z</time>
      </trkpt>
      <trkpt lat="43.26237" lon="-0.4435">
        <ele>295.562</ele>
        <time>2010-09-19T07:11:28Z</time>
      </trkpt>
      <trkpt lat="43.2623" lon="-0.44336">
        <ele>296.658</ele>
        <time>2010-09-19T07:11:32Z</time>
      </trkpt>
      <trkpt lat="43.26231" lon="-0.4433">
        <ele>297.676</ele>
        <time>2010-09-19T07:11:34Z</time>
      </trkpt>
      <trkpt lat="43.26237" lon="-0.44309">
        <ele>299.566</ele>
        <time>2010-09-19T07:11:40Z</time>
      </trkpt>
      <trkpt lat="43.26242" lon="-0.44287">
        <ele>299.615</ele>
        <time>2010-09-19T07:11:46Z</time>
      </trkpt>
      <trkpt lat="43.26246" lon="-0.44269">
        <ele>298.638</ele>
        <time>2010-09-19T07:11:50Z</time>
      </trkpt>
      <trkpt lat="43.26254" lon="-0.44227">
        <ele>292.769</ele>
        <time>2010-09-19T07:11:55Z</time>
      </trkpt>
      <trkpt lat="43.26256" lon="-0.44218">
        <ele>291.064</ele>
        <time>2010-09-19T07:11:56Z</time>
      </trkpt>
      <trkpt lat="43.26252" lon="-0.44178">
        <ele>286.85</ele>
        <time>2010-09-19T07:12:00Z</time>
      </trkpt>
      <trkpt lat="43.26246" lon="-0.44159">
        <ele>285.303</ele>
        <time>2010-09-19T07:12:02Z</time>
      </trkpt>
      <trkpt lat="43.26233" lon="-0.44105">
        <ele>279.423</ele>
        <time>2010-09-19T07:12:08Z</time>
      </trkpt>
      <trkpt lat="43.2622" lon="-0.44078">
        <ele>276.656</ele>
        <time>2010-09-19T07:12:13Z</time>
      </trkpt>
      <trkpt lat="43.26216" lon="-0.44054">
        <ele>274.639</ele>
        <time>2010-09-19T07:12:16Z</time>
      </trkpt>
      <trkpt lat="43.26216" lon="-0.44029">
        <ele>271.069</ele>
        <time>2010-09-19T07:12:18Z</time>
      </trkpt>
      <trkpt lat="43.26211" lon="-0.43956">
        <ele>262.687</ele>
        <time>2010-09-19T07:12:23Z</time>
      </trkpt>
      <trkpt lat="43.2621" lon="-0.4393">
        <ele>259.025</ele>
        <time>2010-09-19T07:12:25Z</time>
      </trkpt>
      <trkpt lat="43.26203" lon="-0.43879">
        <ele>251.602</ele>
        <time>2010-09-19T07:12:29Z</time>
      </trkpt>
      <trkpt lat="43.26184" lon="-0.43808">
        <ele>237.829</ele>
        <time>2010-09-19T07:12:35Z</time>
      </trkpt>
      <trkpt lat="43.26174" lon="-0.43763">
        <ele>227.592</ele>
        <time>2010-09-19T07:12:39Z</time>
      </trkpt>
      <trkpt lat="43.26164" lon="-0.43746">
        <ele>219.142</ele>
        <time>2010-09-19T07:12:42Z</time>
      </trkpt>
      <trkpt lat="43.26163" lon="-0.43744">
        <ele>217.665</ele>
        <time>2010-09-19T07:12:43Z</time>
      </trkpt>
      <trkpt lat="43.26162" lon="-0.43744">
        <ele>216.659</ele>
        <time>2010-09-19T07:12:45Z</time>
      </trkpt>
      <trkpt lat="43.26162" lon="-0.43745">
        <ele>216.491</ele>
        <time>2010-09-19T07:12:53Z</time>
      </trkpt>
      <trkpt lat="43.26157" lon="-0.43744">
        <ele>215.659</ele>
        <time>2010-09-19T07:12:59Z</time>
      </trkpt>
      <trkpt lat="43.26147" lon="-0.4375">
        <ele>214.227</ele>
        <time>2010-09-19T07:13:02Z</time>
      </trkpt>
      <trkpt lat="43.26136" lon="-0.43768">
        <ele>214.735</ele>
        <time>2010-09-19T07:13:07Z</time>
      </trkpt>
      <trkpt lat="43.26124" lon="-0.43791">
        <ele>215.954</ele>
        <time>2010-09-19T07:13:13Z</time>
      </trkpt>
      <trkpt lat="43.26122" lon="-0.43795">
        <ele>216.114</ele>
        <time>2010-09-19T07:13:14Z</time>
      </trkpt>
      <trkpt lat="43.26112" lon="-0.43824">
        <ele>216.76</ele>
        <time>2010-09-19T07:13:20Z</time>
      </trkpt>
      <trkpt lat="43.26106" lon="-0.43853">
        <ele>214.383</ele>
        <time>2010-09-19T07:13:24Z</time>
      </trkpt>
      <trkpt lat="43.26095" lon="-0.43869">
        <ele>212.333</ele>
        <time>2010-09-19T07:13:28Z</time>
      </trkpt>
      <trkpt lat="43.26092" lon="-0.43869">
        <ele>212.442</ele>
        <time>2010-09-19T07:13:29Z</time>
      </trkpt>
      <trkpt lat="43.26084" lon="-0.43869">
        <ele>214.066</ele>
        <time>2010-09-19T07:13:33Z</time>
      </trkpt>
      <trkpt lat="43.26078" lon="-0.43867">
        <ele>216.461</ele>
        <time>2010-09-19T07:13:37Z</time>
      </trkpt>
      <trkpt lat="43.26069" lon="-0.43866">
        <ele>218.779</ele>
        <time>2010-09-19T07:13:42Z</time>
      </trkpt>
      <trkpt lat="43.26059" lon="-0.4387">
        <ele>220.32</ele>
        <time>2010-09-19T07:13:50Z</time>
      </trkpt>
      <trkpt lat="43.26046" lon="-0.43877">
        <ele>220.413</ele>
        <time>2010-09-19T07:13:56Z</time>
      </trkpt>
      <trkpt lat="43.26043" lon="-0.43879">
        <ele>220.314</ele>
        <time>2010-09-19T07:13:57Z</time>
      </trkpt>
      <trkpt lat="43.26035" lon="-0.43883">
        <ele>219.602</ele>
        <time>2010-09-19T07:13:59Z</time>
      </trkpt>
      <trkpt lat="43.26024" lon="-0.43888">
        <ele>218.36</ele>
        <time>2010-09-19T07:14:01Z</time>
      </trkpt>
      <trkpt lat="43.26007" lon="-0.43898">
        <ele>213.727</ele>
        <time>2010-09-19T07:14:04Z</time>
      </trkpt>
      <trkpt lat="43.25988" lon="-0.43914">
        <ele>207.701</ele>
        <time>2010-09-19T07:14:09Z</time>
      </trkpt>
      <trkpt lat="43.25985" lon="-0.43915">
        <ele>206.916</ele>
        <time>2010-09-19T07:14:10Z</time>
      </trkpt>
      <trkpt lat="43.25976" lon="-0.43902">
        <ele>202.621</ele>
        <time>2010-09-19T07:14:15Z</time>
      </trkpt>
      <trkpt lat="43.25977" lon="-0.43895">
        <ele>201.524</ele>
        <time>2010-09-19T07:14:17Z</time>
      </trkpt>
      <trkpt lat="43.25984" lon="-0.43882">
        <ele>200.454</ele>
        <time>2010-09-19T07:14:21Z</time>
      </trkpt>
      <trkpt lat="43.26" lon="-0.43854">
        <ele>198.531</ele>
        <time>2010-09-19T07:14:27Z</time>
      </trkpt>
      <trkpt lat="43.26011" lon="-0.43838">
        <ele>196.824</ele>
        <time>2010-09-19T07:14:30Z</time>
      </trkpt>
      <trkpt lat="43.26018" lon="-0.43828">
        <ele>196.214</ele>
        <time>2010-09-19T07:14:32Z</time>
      </trkpt>
      <trkpt lat="43.26023" lon="-0.4382">
        <ele>196.436</ele>
        <time>2010-09-19T07:14:34Z</time>
      </trkpt>
      <trkpt lat="43.26038" lon="-0.43795">
        <ele>194.565</ele>
        <time>2010-09-19T07:14:39Z</time>
      </trkpt>
      <trkpt lat="43.26042" lon="-0.43764">
        <ele>193.444</ele>
        <time>2010-09-19T07:14:45Z</time>
      </trkpt>
      <trkpt lat="43.26042" lon="-0.43752">
        <ele>192.235</ele>
        <time>2010-09-19T07:14:49Z</time>
      </trkpt>
      <trkpt lat="43.26053" lon="-0.43738">
        <ele>192.733</ele>
        <time>2010-09-19T07:14:56Z</time>
      </trkpt>
      <trkpt lat="43.26057" lon="-0.43732">
        <ele>192.617</ele>
        <time>2010-09-19T07:14:59Z</time>
      </trkpt>
      <trkpt lat="43.26063" lon="-0.4372">
        <ele>193.589</ele>
        <time>2010-09-19T07:15:06Z</time>
      </trkpt>
      <trkpt lat="43.26071" lon="-0.43705">
        <ele>194.339</ele>
        <time>2010-09-19T07:15:14Z</time>
      </trkpt>
      <trkpt lat="43.26077" lon="-0.43692">
        <ele>194.434</ele>
        <time>2010-09-19T07:15:20Z</time>
      </trkpt>
      <trkpt lat="43.26083" lon="-0.43679">
        <ele>195.198</ele>
        <time>2010-09-19T07:15:28Z</time>
      </trkpt>
      <trkpt lat="43.26088" lon="-0.43667">
        <ele>196.35</ele>
        <time>2010-09-19T07:15:36Z</time>
      </trkpt>
      <trkpt lat="43.26092" lon="-0.43655">
        <ele>197.806</ele>
        <time>2010-09-19T07:15:44Z</time>
      </trkpt>
      <trkpt lat="43.26093" lon="-0.43651">
        <ele>198.654</ele>
        <time>2010-09-19T07:15:47Z</time>
      </trkpt>
      <trkpt lat="43.26098" lon="-0.43638">
        <ele>200.221</ele>
        <time>2010-09-19T07:15:56Z</time>
      </trkpt>
      <trkpt lat="43.26095" lon="-0.43635">
        <ele>201.211</ele>
        <time>2010-09-19T07:16:01Z</time>
      </trkpt>
      <trkpt lat="43.26093" lon="-0.43637">
        <ele>201.674</ele>
        <time>2010-09-19T07:16:04Z</time>
      </trkpt>
      <trkpt lat="43.26083" lon="-0.43646">
        <ele>203.358</ele>
        <time>2010-09-19T07:16:13Z</time>
      </trkpt>
      <trkpt lat="43.26074" lon="-0.43654">
        <ele>205.005</ele>
        <time>2010-09-19T07:16:21Z</time>
      </trkpt>
      <trkpt lat="43.26066" lon="-0.4366">
        <ele>206.13</ele>
        <time>2010-09-19T07:16:26Z</time>
      </trkpt>
      <trkpt lat="43.26055" lon="-0.43671">
        <ele>208.105</ele>
        <time>2010-09-19T07:16:34Z</time>
      </trkpt>
      <trkpt lat="43.26046" lon="-0.4368">
        <ele>209.962</ele>
        <time>2010-09-19T07:16:41Z</time>
      </trkpt>
      <trkpt lat="43.26039" lon="-0.43689">
        <ele>211.196</ele>
        <time>2010-09-19T07:16:46Z</time>
      </trkpt>
      <trkpt lat="43.2603" lon="-0.43684">
        <ele>213.357</ele>
        <time>2010-09-19T07:16:52Z</time>
      </trkpt>
      <trkpt lat="43.26031" lon="-0.43676">
        <ele>214.738</ele>
        <time>2010-09-19T07:16:56Z</time>
      </trkpt>
      <trkpt lat="43.26031" lon="-0.43669">
        <ele>215.702</ele>
        <time>2010-09-19T07:16:59Z</time>
      </trkpt>
      <trkpt lat="43.26028" lon="-0.43655">
        <ele>217.045</ele>
        <time>2010-09-19T07:17:05Z</time>
      </trkpt>
      <trkpt lat="43.26021" lon="-0.43642">
        <ele>218.052</ele>
        <time>2010-09-19T07:17:11Z</time>
      </trkpt>
      <trkpt lat="43.26009" lon="-0.43633">
        <ele>219.423</ele>
        <time>2010-09-19T07:17:19Z</time>
      </trkpt>
      <trkpt lat="43.26001" lon="-0.43637">
        <ele>220.761</ele>
        <time>2010-09-19T07:17:25Z</time>
      </trkpt>
      <trkpt lat="43.25989" lon="-0.43646">
        <ele>221.951</ele>
        <time>2010-09-19T07:17:34Z</time>
      </trkpt>
      <trkpt lat="43.25976" lon="-0.43651">
        <ele>223.898</ele>
        <time>2010-09-19T07:17:43Z</time>
      </trkpt>
      <trkpt lat="43.25965" lon="-0.43641">
        <ele>225.17</ele>
        <time>2010-09-19T07:17:51Z</time>
      </trkpt>
      <trkpt lat="43.2595" lon="-0.43629">
        <ele>226.729</ele>
        <time>2010-09-19T07:18:03Z</time>
      </trkpt>
      <trkpt lat="43.2594" lon="-0.4362">
        <ele>227.768</ele>
        <time>2010-09-19T07:18:12Z</time>
      </trkpt>
      <trkpt lat="43.2593" lon="-0.43613">
        <ele>228.802</ele>
        <time>2010-09-19T07:18:20Z</time>
      </trkpt>
      <trkpt lat="43.25918" lon="-0.43604">
        <ele>229.47</ele>
        <time>2010-09-19T07:18:29Z</time>
      </trkpt>
      <trkpt lat="43.25907" lon="-0.43595">
        <ele>230.063</ele>
        <time>2010-09-19T07:18:37Z</time>
      </trkpt>
      <trkpt lat="43.25896" lon="-0.43588">
        <ele>230.063</ele>
        <time>2010-09-19T07:18:43Z</time>
      </trkpt>
      <trkpt lat="43.25884" lon="-0.43579">
        <ele>230.002</ele>
        <time>2010-09-19T07:18:48Z</time>
      </trkpt>
      <trkpt lat="43.25858" lon="-0.4356">
        <ele>229.641</ele>
        <time>2010-09-19T07:18:57Z</time>
      </trkpt>
      <trkpt lat="43.25833" lon="-0.43543">
        <ele>228.581</ele>
        <time>2010-09-19T07:19:04Z</time>
      </trkpt>
      <trkpt lat="43.25801" lon="-0.43519">
        <ele>227.587</ele>
        <time>2010-09-19T07:19:13Z</time>
      </trkpt>
      <trkpt lat="43.25777" lon="-0.43502">
        <ele>227.043</ele>
        <time>2010-09-19T07:19:20Z</time>
      </trkpt>
      <trkpt lat="43.25758" lon="-0.43504">
        <ele>226.88</ele>
        <time>2010-09-19T07:19:25Z</time>
      </trkpt>
      <trkpt lat="43.25743" lon="-0.43503">
        <ele>227.292</ele>
        <time>2010-09-19T07:19:29Z</time>
      </trkpt>
      <trkpt lat="43.25723" lon="-0.43505">
        <ele>226.044</ele>
        <time>2010-09-19T07:19:33Z</time>
      </trkpt>
      <trkpt lat="43.25698" lon="-0.43515">
        <ele>223.998</ele>
        <time>2010-09-19T07:19:37Z</time>
      </trkpt>
      <trkpt lat="43.25672" lon="-0.43536">
        <ele>221.347</ele>
        <time>2010-09-19T07:19:41Z</time>
      </trkpt>
      <trkpt lat="43.25661" lon="-0.4355">
        <ele>220.245</ele>
        <time>2010-09-19T07:19:43Z</time>
      </trkpt>
      <trkpt lat="43.25643" lon="-0.43561">
        <ele>218.194</ele>
        <time>2010-09-19T07:19:47Z</time>
      </trkpt>
      <trkpt lat="43.25641" lon="-0.43565">
        <ele>218.326</ele>
        <time>2010-09-19T07:19:48Z</time>
      </trkpt>
      <trkpt lat="43.25641" lon="-0.43574">
        <ele>220.016</ele>
        <time>2010-09-19T07:19:52Z</time>
      </trkpt>
      <trkpt lat="43.2564" lon="-0.43575">
        <ele>220.228</ele>
        <time>2010-09-19T07:19:53Z</time>
      </trkpt>
      <trkpt lat="43.25636" lon="-0.43574">
        <ele>221.604</ele>
        <time>2010-09-19T07:19:59Z</time>
      </trkpt>
      <trkpt lat="43.25636" lon="-0.4356">
        <ele>223.265</ele>
        <time>2010-09-19T07:20:05Z</time>
      </trkpt>
      <trkpt lat="43.25637" lon="-0.43543">
        <ele>224.459</ele>
        <time>2010-09-19T07:20:12Z</time>
      </trkpt>
      <trkpt lat="43.25637" lon="-0.43527">
        <ele>225.989</ele>
        <time>2010-09-19T07:20:19Z</time>
      </trkpt>
      <trkpt lat="43.25637" lon="-0.43525">
        <ele>226.238</ele>
        <time>2010-09-19T07:20:20Z</time>
      </trkpt>
      <trkpt lat="43.25631" lon="-0.43518">
        <ele>227.69</ele>
        <time>2010-09-19T07:20:25Z</time>
      </trkpt>
      <trkpt lat="43.25628" lon="-0.43524">
        <ele>228.494</ele>
        <time>2010-09-19T07:20:28Z</time>
      </trkpt>
      <trkpt lat="43.25625" lon="-0.43541">
        <ele>230.203</ele>
        <time>2010-09-19T07:20:37Z</time>
      </trkpt>
      <trkpt lat="43.25622" lon="-0.43553">
        <ele>231.733</ele>
        <time>2010-09-19T07:20:44Z</time>
      </trkpt>
      <trkpt lat="43.25619" lon="-0.43564">
        <ele>232.987</ele>
        <time>2010-09-19T07:20:49Z</time>
      </trkpt>
      <trkpt lat="43.25614" lon="-0.43572">
        <ele>234.269</ele>
        <time>2010-09-19T07:20:54Z</time>
      </trkpt>
      <trkpt lat="43.25604" lon="-0.43566">
        <ele>236.301</ele>
        <time>2010-09-19T07:21:01Z</time>
      </trkpt>
      <trkpt lat="43.25592" lon="-0.43555">
        <ele>238</ele>
        <time>2010-09-19T07:21:11Z</time>
      </trkpt>
      <trkpt lat="43.25584" lon="-0.43561">
        <ele>239.559</ele>
        <time>2010-09-19T07:21:17Z</time>
      </trkpt>
      <trkpt lat="43.25579" lon="-0.43565">
        <ele>240.911</ele>
        <time>2010-09-19T07:21:23Z</time>
      </trkpt>
      <trkpt lat="43.25577" lon="-0.43567">
        <ele>241.158</ele>
        <time>2010-09-19T07:21:30Z</time>
      </trkpt>
      <trkpt lat="43.25572" lon="-0.43568">
        <ele>241.014</ele>
        <time>2010-09-19T07:21:41Z</time>
      </trkpt>
      <trkpt lat="43.2557" lon="-0.43568">
        <ele>240.794</ele>
        <time>2010-09-19T07:21:45Z</time>
      </trkpt>
      <trkpt lat="43.25568" lon="-0.4356">
        <ele>240.686</ele>
        <time>2010-09-19T07:21:53Z</time>
      </trkpt>
      <trkpt lat="43.25566" lon="-0.4356">
        <ele>240.389</ele>
        <time>2010-09-19T07:22:00Z</time>
      </trkpt>
      <trkpt lat="43.25562" lon="-0.43563">
        <ele>240.183</ele>
        <time>2010-09-19T07:22:13Z</time>
      </trkpt>
      <trkpt lat="43.25556" lon="-0.43561">
        <ele>240.234</ele>
        <time>2010-09-19T07:22:22Z</time>
      </trkpt>
      <trkpt lat="43.25551" lon="-0.43557">
        <ele>239.895</ele>
        <time>2010-09-19T07:22:31Z</time>
      </trkpt>
      <trkpt lat="43.25548" lon="-0.43554">
        <ele>239.996</ele>
        <time>2010-09-19T07:22:36Z</time>
      </trkpt>
      <trkpt lat="43.25547" lon="-0.43554">
        <ele>239.808</ele>
        <time>2010-09-19T07:22:40Z</time>
      </trkpt>
      <trkpt lat="43.25545" lon="-0.4355">
        <ele>239.818</ele>
        <time>2010-09-19T07:22:45Z</time>
      </trkpt>
      <trkpt lat="43.25546" lon="-0.43551">
        <ele>239.804</ele>
        <time>2010-09-19T07:22:49Z</time>
      </trkpt>
      <trkpt lat="43.25543" lon="-0.43549">
        <ele>239.756</ele>
        <time>2010-09-19T07:22:56Z</time>
      </trkpt>
      <trkpt lat="43.25543" lon="-0.43548">
        <ele>239.693</ele>
        <time>2010-09-19T07:23:06Z</time>
      </trkpt>
      <trkpt lat="43.25543" lon="-0.43548">
        <ele>239.584</ele>
        <time>2010-09-19T07:23:14Z</time>
      </trkpt>
      <trkpt lat="43.25546" lon="-0.43552">
        <ele>239.486</ele>
        <time>2010-09-19T07:23:30Z</time>
      </trkpt>
      <trkpt lat="43.25544" lon="-0.43557">
        <ele>239.098</ele>
        <time>2010-09-19T07:24:03Z</time>
      </trkpt>
      <trkpt lat="43.25545" lon="-0.43561">
        <ele>238.938</ele>
        <time>2010-09-19T07:24:21Z</time>
      </trkpt>
      <trkpt lat="43.25546" lon="-0.43562">
        <ele>238.964</ele>
        <time>2010-09-19T07:24:35Z</time>
      </trkpt>
      <trkpt lat="43.25542" lon="-0.43566">
        <ele>238.898</ele>
        <time>2010-09-19T07:24:45Z</time>
      </trkpt>
      <trkpt lat="43.25532" lon="-0.43575">
        <ele>238.682</ele>
        <time>2010-09-19T07:24:52Z</time>
      </trkpt>
      <trkpt lat="43.25519" lon="-0.4359">
        <ele>238.184</ele>
        <time>2010-09-19T07:24:59Z</time>
      </trkpt>
      <trkpt lat="43.25504" lon="-0.43603">
        <ele>238.012</ele>
        <time>2010-09-19T07:25:07Z</time>
      </trkpt>
      <trkpt lat="43.25491" lon="-0.43619">
        <ele>237.992</ele>
        <time>2010-09-19T07:25:15Z</time>
      </trkpt>
      <trkpt lat="43.2547" lon="-0.43637">
        <ele>238.568</ele>
        <time>2010-09-19T07:25:25Z</time>
      </trkpt>
      <trkpt lat="43.25449" lon="-0.43654">
        <ele>239.673</ele>
        <time>2010-09-19T07:25:35Z</time>
      </trkpt>
      <trkpt lat="43.25431" lon="-0.43669">
        <ele>239.47</ele>
        <time>2010-09-19T07:25:43Z</time>
      </trkpt>
      <trkpt lat="43.25426" lon="-0.43673">
        <ele>239.458</ele>
        <time>2010-09-19T07:25:47Z</time>
      </trkpt>
      <trkpt lat="43.25426" lon="-0.43674">
        <ele>239.318</ele>
        <time>2010-09-19T07:25:57Z</time>
      </trkpt>
      <trkpt lat="43.25427" lon="-0.43674">
        <ele>239.262</ele>
        <time>2010-09-19T07:26:00Z</time>
      </trkpt>
      <trkpt lat="43.25429" lon="-0.43677">
        <ele>239.786</ele>
        <time>2010-09-19T07:26:06Z</time>
      </trkpt>
      <trkpt lat="43.25429" lon="-0.43677">
        <ele>239.897</ele>
        <time>2010-09-19T07:26:25Z</time>
      </trkpt>
      <trkpt lat="43.2543" lon="-0.43681">
        <ele>240.478</ele>
        <time>2010-09-19T07:26:32Z</time>
      </trkpt>
      <trkpt lat="43.25432" lon="-0.43687">
        <ele>242.301</ele>
        <time>2010-09-19T07:26:38Z</time>
      </trkpt>
      <trkpt lat="43.25435" lon="-0.43693">
        <ele>243.706</ele>
        <time>2010-09-19T07:26:43Z</time>
      </trkpt>
      <trkpt lat="43.25438" lon="-0.43705">
        <ele>247.065</ele>
        <time>2010-09-19T07:26:54Z</time>
      </trkpt>
      <trkpt lat="43.25438" lon="-0.43707">
        <ele>247.305</ele>
        <time>2010-09-19T07:26:55Z</time>
      </trkpt>
      <trkpt lat="43.25437" lon="-0.43709">
        <ele>247.933</ele>
        <time>2010-09-19T07:26:58Z</time>
      </trkpt>
      <trkpt lat="43.25432" lon="-0.43713">
        <ele>247.881</ele>
        <time>2010-09-19T07:27:02Z</time>
      </trkpt>
      <trkpt lat="43.25416" lon="-0.43726">
        <ele>248.89</ele>
        <time>2010-09-19T07:27:11Z</time>
      </trkpt>
      <trkpt lat="43.254" lon="-0.43737">
        <ele>250.952</ele>
        <time>2010-09-19T07:27:21Z</time>
      </trkpt>
      <trkpt lat="43.25384" lon="-0.43748">
        <ele>252.528</ele>
        <time>2010-09-19T07:27:31Z</time>
      </trkpt>
      <trkpt lat="43.25373" lon="-0.43757">
        <ele>253.215</ele>
        <time>2010-09-19T07:27:38Z</time>
      </trkpt>
      <trkpt lat="43.25362" lon="-0.43768">
        <ele>253.895</ele>
        <time>2010-09-19T07:27:46Z</time>
      </trkpt>
      <trkpt lat="43.2535" lon="-0.43779">
        <ele>254.534</ele>
        <time>2010-09-19T07:27:54Z</time>
      </trkpt>
      <trkpt lat="43.25344" lon="-0.43793">
        <ele>255.228</ele>
        <time>2010-09-19T07:28:01Z</time>
      </trkpt>
      <trkpt lat="43.25336" lon="-0.43811">
        <ele>258.066</ele>
        <time>2010-09-19T07:28:10Z</time>
      </trkpt>
      <trkpt lat="43.25327" lon="-0.43825">
        <ele>259.329</ele>
        <time>2010-09-19T07:28:19Z</time>
      </trkpt>
      <trkpt lat="43.25318" lon="-0.43839">
        <ele>260.911</ele>
        <time>2010-09-19T07:28:28Z</time>
      </trkpt>
      <trkpt lat="43.25309" lon="-0.43852">
        <ele>262.567</ele>
        <time>2010-09-19T07:28:37Z</time>
      </trkpt>
      <trkpt lat="43.25298" lon="-0.43863">
        <ele>264.473</ele>
        <time>2010-09-19T07:28:45Z</time>
      </trkpt>
      <trkpt lat="43.2529" lon="-0.43874">
        <ele>266.561</ele>
        <time>2010-09-19T07:28:53Z</time>
      </trkpt>
      <trkpt lat="43.25279" lon="-0.43885">
        <ele>268.274</ele>
        <time>2010-09-19T07:29:03Z</time>
      </trkpt>
      <trkpt lat="43.25269" lon="-0.43897">
        <ele>269.089</ele>
        <time>2010-09-19T07:29:13Z</time>
      </trkpt>
      <trkpt lat="43.25257" lon="-0.43914">
        <ele>269.658</ele>
        <time>2010-09-19T07:29:24Z</time>
      </trkpt>
      <trkpt lat="43.25249" lon="-0.43926">
        <ele>269.706</ele>
        <time>2010-09-19T07:29:31Z</time>
      </trkpt>
      <trkpt lat="43.25234" lon="-0.43932">
        <ele>270.259</ele>
        <time>2010-09-19T07:29:39Z</time>
      </trkpt>
      <trkpt lat="43.2522" lon="-0.43924">
        <ele>270.866</ele>
        <time>2010-09-19T07:29:46Z</time>
      </trkpt>
      <trkpt lat="43.25202" lon="-0.43916">
        <ele>273.595</ele>
        <time>2010-09-19T07:29:55Z</time>
      </trkpt>
      <trkpt lat="43.25196" lon="-0.43917">
        <ele>274.857</ele>
        <time>2010-09-19T07:29:58Z</time>
      </trkpt>
      <trkpt lat="43.25193" lon="-0.43919">
        <ele>275.803</ele>
        <time>2010-09-19T07:30:00Z</time>
      </trkpt>
      <trkpt lat="43.25194" lon="-0.43927">
        <ele>277.257</ele>
        <time>2010-09-19T07:30:05Z</time>
      </trkpt>
      <trkpt lat="43.25209" lon="-0.43935">
        <ele>278.673</ele>
        <time>2010-09-19T07:30:16Z</time>
      </trkpt>
      <trkpt lat="43.25217" lon="-0.43948">
        <ele>279.44</ele>
        <time>2010-09-19T07:30:25Z</time>
      </trkpt>
      <trkpt lat="43.25223" lon="-0.4396">
        <ele>280.678</ele>
        <time>2010-09-19T07:30:34Z</time>
      </trkpt>
      <trkpt lat="43.25228" lon="-0.43969">
        <ele>281.68</ele>
        <time>2010-09-19T07:30:41Z</time>
      </trkpt>
      <trkpt lat="43.25236" lon="-0.43978">
        <ele>283.021</ele>
        <time>2010-09-19T07:30:48Z</time>
      </trkpt>
      <trkpt lat="43.25248" lon="-0.43977">
        <ele>284.238</ele>
        <time>2010-09-19T07:30:56Z</time>
      </trkpt>
      <trkpt lat="43.25252" lon="-0.43975">
        <ele>284.603</ele>
        <time>2010-09-19T07:30:59Z</time>
      </trkpt>
      <trkpt lat="43.25263" lon="-0.43966">
        <ele>285.581</ele>
        <time>2010-09-19T07:31:08Z</time>
      </trkpt>
      <trkpt lat="43.25273" lon="-0.43962">
        <ele>287.118</ele>
        <time>2010-09-19T07:31:16Z</time>
      </trkpt>
      <trkpt lat="43.25281" lon="-0.43966">
        <ele>289.535</ele>
        <time>2010-09-19T07:31:23Z</time>
      </trkpt>
      <trkpt lat="43.25281" lon="-0.43966">
        <ele>289.759</ele>
        <time>2010-09-19T07:31:24Z</time>
      </trkpt>
      <trkpt lat="43.25287" lon="-0.43968">
        <ele>290.937</ele>
        <time>2010-09-19T07:31:32Z</time>
      </trkpt>
      <trkpt lat="43.25293" lon="-0.43977">
        <ele>292.21</ele>
        <time>2010-09-19T07:31:42Z</time>
      </trkpt>
      <trkpt lat="43.25295" lon="-0.43984">
        <ele>293.047</ele>
        <time>2010-09-19T07:31:50Z</time>
      </trkpt>
      <trkpt lat="43.25295" lon="-0.43984">
        <ele>293.368</ele>
        <time>2010-09-19T07:32:05Z</time>
      </trkpt>
      <trkpt lat="43.25295" lon="-0.43986">
        <ele>293.736</ele>
        <time>2010-09-19T07:32:07Z</time>
      </trkpt>
      <trkpt lat="43.25292" lon="-0.43989">
        <ele>293.623</ele>
        <time>2010-09-19T07:32:11Z</time>
      </trkpt>
      <trkpt lat="43.25289" lon="-0.4399">
        <ele>294.021</ele>
        <time>2010-09-19T07:32:14Z</time>
      </trkpt>
      <trkpt lat="43.25279" lon="-0.44">
        <ele>295.082</ele>
        <time>2010-09-19T07:32:26Z</time>
      </trkpt>
      <trkpt lat="43.25272" lon="-0.44007">
        <ele>296.123</ele>
        <time>2010-09-19T07:32:34Z</time>
      </trkpt>
      <trkpt lat="43.25265" lon="-0.44016">
        <ele>297.386</ele>
        <time>2010-09-19T07:32:44Z</time>
      </trkpt>
      <trkpt lat="43.2526" lon="-0.44023">
        <ele>298.62</ele>
        <time>2010-09-19T07:32:52Z</time>
      </trkpt>
      <trkpt lat="43.25253" lon="-0.4403">
        <ele>300.281</ele>
        <time>2010-09-19T07:33:01Z</time>
      </trkpt>
      <trkpt lat="43.2525" lon="-0.44034">
        <ele>300.995</ele>
        <time>2010-09-19T07:33:05Z</time>
      </trkpt>
      <trkpt lat="43.25243" lon="-0.44041">
        <ele>302.84</ele>
        <time>2010-09-19T07:33:13Z</time>
      </trkpt>
      <trkpt lat="43.25242" lon="-0.44044">
        <ele>303.253</ele>
        <time>2010-09-19T07:33:19Z</time>
      </trkpt>
      <trkpt lat="43.25241" lon="-0.44045">
        <ele>302.806</ele>
        <time>2010-09-19T07:33:28Z</time>
      </trkpt>
      <trkpt lat="43.2524" lon="-0.44046">
        <ele>302.786</ele>
        <time>2010-09-19T07:33:44Z</time>
      </trkpt>
      <trkpt lat="43.25239" lon="-0.44046">
        <ele>302.802</ele>
        <time>2010-09-19T07:33:49Z</time>
      </trkpt>
      <trkpt lat="43.25239" lon="-0.44046">
        <ele>302.875</ele>
        <time>2010-09-19T07:33:54Z</time>
      </trkpt>
      <trkpt lat="43.25239" lon="-0.44046">
        <ele>302.938</ele>
        <time>2010-09-19T07:33:59Z</time>
      </trkpt>
      <trkpt lat="43.25237" lon="-0.44046">
        <ele>302.859</ele>
        <time>2010-09-19T07:34:08Z</time>
      </trkpt>
      <trkpt lat="43.25237" lon="-0.44046">
        <ele>302.952</ele>
        <time>2010-09-19T07:34:21Z</time>
      </trkpt>
      <trkpt lat="43.25237" lon="-0.44046">
        <ele>302.88</ele>
        <time>2010-09-19T07:34:57Z</time>
      </trkpt>
      <trkpt lat="43.25237" lon="-0.44046">
        <ele>302.835</ele>
        <time>2010-09-19T07:35:09Z</time>
      </trkpt>
      <trkpt lat="43.25237" lon="-0.44046">
        <ele>302.81</ele>
        <time>2010-09-19T07:35:25Z</time>
      </trkpt>
      <trkpt lat="43.25237" lon="-0.44046">
        <ele>302.83</ele>
        <time>2010-09-19T07:35:29Z</time>
      </trkpt>
      <trkpt lat="43.25237" lon="-0.44044">
        <ele>303.199</ele>
        <time>2010-09-19T07:35:32Z</time>
      </trkpt>
      <trkpt lat="43.25236" lon="-0.44044">
        <ele>303.452</ele>
        <time>2010-09-19T07:35:34Z</time>
      </trkpt>
      <trkpt lat="43.25237" lon="-0.44045">
        <ele>303.555</ele>
        <time>2010-09-19T07:35:46Z</time>
      </trkpt>
      <trkpt lat="43.25237" lon="-0.44045">
        <ele>303.576</ele>
        <time>2010-09-19T07:35:47Z</time>
      </trkpt>
      <trkpt lat="43.25231" lon="-0.4405">
        <ele>304.678</ele>
        <time>2010-09-19T07:35:53Z</time>
      </trkpt>
      <trkpt lat="43.25228" lon="-0.44051">
        <ele>305.351</ele>
        <time>2010-09-19T07:35:55Z</time>
      </trkpt>
      <trkpt lat="43.25216" lon="-0.44054">
        <ele>308.378</ele>
        <time>2010-09-19T07:36:06Z</time>
      </trkpt>
      <trkpt lat="43.25203" lon="-0.44058">
        <ele>310.929</ele>
        <time>2010-09-19T07:36:16Z</time>
      </trkpt>
      <trkpt lat="43.25195" lon="-0.44065">
        <ele>313.204</ele>
        <time>2010-09-19T07:36:23Z</time>
      </trkpt>
      <trkpt lat="43.25185" lon="-0.44075">
        <ele>315.57</ele>
        <time>2010-09-19T07:36:32Z</time>
      </trkpt>
      <trkpt lat="43.25175" lon="-0.44087">
        <ele>317.05</ele>
        <time>2010-09-19T07:36:41Z</time>
      </trkpt>
      <trkpt lat="43.25165" lon="-0.44099">
        <ele>317.391</ele>
        <time>2010-09-19T07:36:48Z</time>
      </trkpt>
      <trkpt lat="43.25157" lon="-0.44112">
        <ele>317.394</ele>
        <time>2010-09-19T07:36:54Z</time>
      </trkpt>
      <trkpt lat="43.25142" lon="-0.44132">
        <ele>316.27</ele>
        <time>2010-09-19T07:37:00Z</time>
      </trkpt>
      <trkpt lat="43.25137" lon="-0.44157">
        <ele>316.343</ele>
        <time>2010-09-19T07:37:05Z</time>
      </trkpt>
      <trkpt lat="43.25138" lon="-0.44161">
        <ele>316.458</ele>
        <time>2010-09-19T07:37:06Z</time>
      </trkpt>
      <trkpt lat="43.25143" lon="-0.44179">
        <ele>318.462</ele>
        <time>2010-09-19T07:37:12Z</time>
      </trkpt>
      <trkpt lat="43.25147" lon="-0.44206">
        <ele>320.68</ele>
        <time>2010-09-19T07:37:22Z</time>
      </trkpt>
      <trkpt lat="43.25146" lon="-0.44228">
        <ele>322.338</ele>
        <time>2010-09-19T07:37:31Z</time>
      </trkpt>
      <trkpt lat="43.25144" lon="-0.44248">
        <ele>324.273</ele>
        <time>2010-09-19T07:37:39Z</time>
      </trkpt>
      <trkpt lat="43.25138" lon="-0.44266">
        <ele>326.622</ele>
        <time>2010-09-19T07:37:46Z</time>
      </trkpt>
      <trkpt lat="43.2513" lon="-0.44282">
        <ele>328.828</ele>
        <time>2010-09-19T07:37:54Z</time>
      </trkpt>
      <trkpt lat="43.25122" lon="-0.44293">
        <ele>329.775</ele>
        <time>2010-09-19T07:38:02Z</time>
      </trkpt>
      <trkpt lat="43.25112" lon="-0.44309">
        <ele>331.25</ele>
        <time>2010-09-19T07:38:12Z</time>
      </trkpt>
      <trkpt lat="43.25104" lon="-0.44327">
        <ele>334.04</ele>
        <time>2010-09-19T07:38:23Z</time>
      </trkpt>
      <trkpt lat="43.25097" lon="-0.44343">
        <ele>336.909</ele>
        <time>2010-09-19T07:38:32Z</time>
      </trkpt>
      <trkpt lat="43.25089" lon="-0.44352">
        <ele>338.972</ele>
        <time>2010-09-19T07:38:39Z</time>
      </trkpt>
      <trkpt lat="43.25084" lon="-0.44361">
        <ele>339.294</ele>
        <time>2010-09-19T07:38:45Z</time>
      </trkpt>
      <trkpt lat="43.25069" lon="-0.44378">
        <ele>338.005</ele>
        <time>2010-09-19T07:38:52Z</time>
      </trkpt>
      <trkpt lat="43.25048" lon="-0.44406">
        <ele>333.131</ele>
        <time>2010-09-19T07:38:59Z</time>
      </trkpt>
      <trkpt lat="43.2504" lon="-0.44417">
        <ele>330.529</ele>
        <time>2010-09-19T07:39:03Z</time>
      </trkpt>
      <trkpt lat="43.25033" lon="-0.44419">
        <ele>329.559</ele>
        <time>2010-09-19T07:39:05Z</time>
      </trkpt>
      <trkpt lat="43.25021" lon="-0.44436">
        <ele>326.792</ele>
        <time>2010-09-19T07:39:10Z</time>
      </trkpt>
      <trkpt lat="43.25018" lon="-0.44453">
        <ele>325.11</ele>
        <time>2010-09-19T07:39:14Z</time>
      </trkpt>
      <trkpt lat="43.2501" lon="-0.44461">
        <ele>322.301</ele>
        <time>2010-09-19T07:39:18Z</time>
      </trkpt>
      <trkpt lat="43.25001" lon="-0.44474">
        <ele>320.727</ele>
        <time>2010-09-19T07:39:24Z</time>
      </trkpt>
      <trkpt lat="43.24995" lon="-0.44479">
        <ele>319.755</ele>
        <time>2010-09-19T07:39:29Z</time>
      </trkpt>
      <trkpt lat="43.24993" lon="-0.4448">
        <ele>319.673</ele>
        <time>2010-09-19T07:39:34Z</time>
      </trkpt>
      <trkpt lat="43.24992" lon="-0.4448">
        <ele>319.603</ele>
        <time>2010-09-19T07:39:35Z</time>
      </trkpt>
      <trkpt lat="43.24985" lon="-0.44483">
        <ele>318.261</ele>
        <time>2010-09-19T07:39:39Z</time>
      </trkpt>
      <trkpt lat="43.24978" lon="-0.44496">
        <ele>316.876</ele>
        <time>2010-09-19T07:39:42Z</time>
      </trkpt>
      <trkpt lat="43.24959" lon="-0.4453">
        <ele>312.449</ele>
        <time>2010-09-19T07:39:47Z</time>
      </trkpt>
      <trkpt lat="43.24946" lon="-0.44555">
        <ele>309.188</ele>
        <time>2010-09-19T07:39:50Z</time>
      </trkpt>
      <trkpt lat="43.24923" lon="-0.44578">
        <ele>304.447</ele>
        <time>2010-09-19T07:39:54Z</time>
      </trkpt>
      <trkpt lat="43.24911" lon="-0.44592">
        <ele>300.908</ele>
        <time>2010-09-19T07:39:56Z</time>
      </trkpt>
      <trkpt lat="43.24899" lon="-0.44607">
        <ele>296.859</ele>
        <time>2010-09-19T07:39:58Z</time>
      </trkpt>
      <trkpt lat="43.24874" lon="-0.44626">
        <ele>289.59</ele>
        <time>2010-09-19T07:40:02Z</time>
      </trkpt>
      <trkpt lat="43.24855" lon="-0.4465">
        <ele>284.454</ele>
        <time>2010-09-19T07:40:06Z</time>
      </trkpt>
      <trkpt lat="43.24839" lon="-0.44674">
        <ele>279.278</ele>
        <time>2010-09-19T07:40:10Z</time>
      </trkpt>
      <trkpt lat="43.24826" lon="-0.44682">
        <ele>276.276</ele>
        <time>2010-09-19T07:40:14Z</time>
      </trkpt>
      <trkpt lat="43.24823" lon="-0.44673">
        <ele>276.232</ele>
        <time>2010-09-19T07:40:17Z</time>
      </trkpt>
      <trkpt lat="43.24822" lon="-0.44649">
        <ele>277.388</ele>
        <time>2010-09-19T07:40:25Z</time>
      </trkpt>
      <trkpt lat="43.24819" lon="-0.4462">
        <ele>278.66</ele>
        <time>2010-09-19T07:40:34Z</time>
      </trkpt>
      <trkpt lat="43.24817" lon="-0.44597">
        <ele>279.728</ele>
        <time>2010-09-19T07:40:41Z</time>
      </trkpt>
      <trkpt lat="43.24816" lon="-0.44573">
        <ele>281.141</ele>
        <time>2010-09-19T07:40:49Z</time>
      </trkpt>
      <trkpt lat="43.24813" lon="-0.4455">
        <ele>282.803</ele>
        <time>2010-09-19T07:40:56Z</time>
      </trkpt>
      <trkpt lat="43.24807" lon="-0.44525">
        <ele>284.47</ele>
        <time>2010-09-19T07:41:04Z</time>
      </trkpt>
      <trkpt lat="43.24798" lon="-0.445">
        <ele>285.274</ele>
        <time>2010-09-19T07:41:12Z</time>
      </trkpt>
      <trkpt lat="43.24789" lon="-0.44479">
        <ele>286.003</ele>
        <time>2010-09-19T07:41:18Z</time>
      </trkpt>
      <trkpt lat="43.24776" lon="-0.44457">
        <ele>286.963</ele>
        <time>2010-09-19T07:41:25Z</time>
      </trkpt>
      <trkpt lat="43.24764" lon="-0.44436">
        <ele>287.985</ele>
        <time>2010-09-19T07:41:32Z</time>
      </trkpt>
      <trkpt lat="43.24753" lon="-0.44418">
        <ele>289.297</ele>
        <time>2010-09-19T07:41:39Z</time>
      </trkpt>
      <trkpt lat="43.2474" lon="-0.44401">
        <ele>290.548</ele>
        <time>2010-09-19T07:41:47Z</time>
      </trkpt>
      <trkpt lat="43.2473" lon="-0.44384">
        <ele>291.442</ele>
        <time>2010-09-19T07:41:54Z</time>
      </trkpt>
      <trkpt lat="43.24724" lon="-0.44368">
        <ele>292.826</ele>
        <time>2010-09-19T07:42:00Z</time>
      </trkpt>
      <trkpt lat="43.24719" lon="-0.44346">
        <ele>293.985</ele>
        <time>2010-09-19T07:42:09Z</time>
      </trkpt>
      <trkpt lat="43.2471" lon="-0.44324">
        <ele>295.497</ele>
        <time>2010-09-19T07:42:20Z</time>
      </trkpt>
      <trkpt lat="43.24701" lon="-0.44309">
        <ele>296.782</ele>
        <time>2010-09-19T07:42:29Z</time>
      </trkpt>
      <trkpt lat="43.24699" lon="-0.44305">
        <ele>297.15</ele>
        <time>2010-09-19T07:42:31Z</time>
      </trkpt>
      <trkpt lat="43.24695" lon="-0.44288">
        <ele>298.449</ele>
        <time>2010-09-19T07:42:39Z</time>
      </trkpt>
      <trkpt lat="43.24695" lon="-0.44272">
        <ele>300.543</ele>
        <time>2010-09-19T07:42:47Z</time>
      </trkpt>
      <trkpt lat="43.24696" lon="-0.4426">
        <ele>302.161</ele>
        <time>2010-09-19T07:42:54Z</time>
      </trkpt>
      <trkpt lat="43.24692" lon="-0.44244">
        <ele>304.302</ele>
        <time>2010-09-19T07:43:04Z</time>
      </trkpt>
      <trkpt lat="43.2469" lon="-0.44234">
        <ele>305.779</ele>
        <time>2010-09-19T07:43:11Z</time>
      </trkpt>
      <trkpt lat="43.24688" lon="-0.44223">
        <ele>306.788</ele>
        <time>2010-09-19T07:43:18Z</time>
      </trkpt>
      <trkpt lat="43.24686" lon="-0.44209">
        <ele>308.385</ele>
        <time>2010-09-19T07:43:27Z</time>
      </trkpt>
      <trkpt lat="43.24684" lon="-0.442">
        <ele>309.294</ele>
        <time>2010-09-19T07:43:33Z</time>
      </trkpt>
      <trkpt lat="43.24682" lon="-0.44194">
        <ele>310.091</ele>
        <time>2010-09-19T07:43:38Z</time>
      </trkpt>
      <trkpt lat="43.24678" lon="-0.44181">
        <ele>311.403</ele>
        <time>2010-09-19T07:43:47Z</time>
      </trkpt>
      <trkpt lat="43.24678" lon="-0.44171">
        <ele>312.554</ele>
        <time>2010-09-19T07:43:54Z</time>
      </trkpt>
      <trkpt lat="43.24681" lon="-0.44167">
        <ele>313.015</ele>
        <time>2010-09-19T07:43:57Z</time>
      </trkpt>
      <trkpt lat="43.2469" lon="-0.44171">
        <ele>314.869</ele>
        <time>2010-09-19T07:44:05Z</time>
      </trkpt>
      <trkpt lat="43.24699" lon="-0.44178">
        <ele>315.709</ele>
        <time>2010-09-19T07:44:13Z</time>
      </trkpt>
      <trkpt lat="43.2471" lon="-0.44185">
        <ele>316.808</ele>
        <time>2010-09-19T07:44:22Z</time>
      </trkpt>
      <trkpt lat="43.24724" lon="-0.44194">
        <ele>318.159</ele>
        <time>2010-09-19T07:44:33Z</time>
      </trkpt>
      <trkpt lat="43.24733" lon="-0.442">
        <ele>319.45</ele>
        <time>2010-09-19T07:44:41Z</time>
      </trkpt>
      <trkpt lat="43.24742" lon="-0.44205">
        <ele>320.785</ele>
        <time>2010-09-19T07:44:48Z</time>
      </trkpt>
      <trkpt lat="43.24754" lon="-0.44213">
        <ele>322.096</ele>
        <time>2010-09-19T07:44:57Z</time>
      </trkpt>
      <trkpt lat="43.24768" lon="-0.44215">
        <ele>324.067</ele>
        <time>2010-09-19T07:45:07Z</time>
      </trkpt>
      <trkpt lat="43.24782" lon="-0.44213">
        <ele>326.076</ele>
        <time>2010-09-19T07:45:18Z</time>
      </trkpt>
      <trkpt lat="43.24793" lon="-0.44212">
        <ele>326.952</ele>
        <time>2010-09-19T07:45:26Z</time>
      </trkpt>
      <trkpt lat="43.24806" lon="-0.4421">
        <ele>328.644</ele>
        <time>2010-09-19T07:45:36Z</time>
      </trkpt>
      <trkpt lat="43.24816" lon="-0.44209">
        <ele>330.169</ele>
        <time>2010-09-19T07:45:44Z</time>
      </trkpt>
      <trkpt lat="43.24828" lon="-0.4421">
        <ele>332.055</ele>
        <time>2010-09-19T07:45:55Z</time>
      </trkpt>
      <trkpt lat="43.24833" lon="-0.44212">
        <ele>332.748</ele>
        <time>2010-09-19T07:46:00Z</time>
      </trkpt>
      <trkpt lat="43.2484" lon="-0.44218">
        <ele>334.378</ele>
        <time>2010-09-19T07:46:08Z</time>
      </trkpt>
      <trkpt lat="43.24845" lon="-0.44228">
        <ele>335.397</ele>
        <time>2010-09-19T07:46:15Z</time>
      </trkpt>
      <trkpt lat="43.24851" lon="-0.4424">
        <ele>336.332</ele>
        <time>2010-09-19T07:46:24Z</time>
      </trkpt>
      <trkpt lat="43.24858" lon="-0.4425">
        <ele>337.265</ele>
        <time>2010-09-19T07:46:32Z</time>
      </trkpt>
      <trkpt lat="43.24861" lon="-0.44252">
        <ele>337.618</ele>
        <time>2010-09-19T07:46:35Z</time>
      </trkpt>
      <trkpt lat="43.2487" lon="-0.44254">
        <ele>338.825</ele>
        <time>2010-09-19T07:46:43Z</time>
      </trkpt>
      <trkpt lat="43.2488" lon="-0.44255">
        <ele>340.152</ele>
        <time>2010-09-19T07:46:52Z</time>
      </trkpt>
      <trkpt lat="43.24889" lon="-0.44255">
        <ele>341.776</ele>
        <time>2010-09-19T07:47:01Z</time>
      </trkpt>
      <trkpt lat="43.24897" lon="-0.44254">
        <ele>343.252</ele>
        <time>2010-09-19T07:47:10Z</time>
      </trkpt>
      <trkpt lat="43.24898" lon="-0.44256">
        <ele>343.202</ele>
        <time>2010-09-19T07:47:18Z</time>
      </trkpt>
      <trkpt lat="43.24899" lon="-0.44254">
        <ele>343.483</ele>
        <time>2010-09-19T07:47:30Z</time>
      </trkpt>
      <trkpt lat="43.24906" lon="-0.44246">
        <ele>344.656</ele>
        <time>2010-09-19T07:47:40Z</time>
      </trkpt>
      <trkpt lat="43.24911" lon="-0.44236">
        <ele>345.697</ele>
        <time>2010-09-19T07:47:49Z</time>
      </trkpt>
      <trkpt lat="43.24916" lon="-0.44228">
        <ele>346.941</ele>
        <time>2010-09-19T07:47:58Z</time>
      </trkpt>
      <trkpt lat="43.24919" lon="-0.4422">
        <ele>348.003</ele>
        <time>2010-09-19T07:48:06Z</time>
      </trkpt>
      <trkpt lat="43.24917" lon="-0.44214">
        <ele>348.693</ele>
        <time>2010-09-19T07:48:12Z</time>
      </trkpt>
      <trkpt lat="43.24917" lon="-0.44211">
        <ele>349.039</ele>
        <time>2010-09-19T07:48:14Z</time>
      </trkpt>
      <trkpt lat="43.24918" lon="-0.44207">
        <ele>349.409</ele>
        <time>2010-09-19T07:48:20Z</time>
      </trkpt>
      <trkpt lat="43.24918" lon="-0.44206">
        <ele>349.668</ele>
        <time>2010-09-19T07:48:24Z</time>
      </trkpt>
      <trkpt lat="43.24917" lon="-0.44192">
        <ele>350.866</ele>
        <time>2010-09-19T07:48:34Z</time>
      </trkpt>
      <trkpt lat="43.24919" lon="-0.44178">
        <ele>352.36</ele>
        <time>2010-09-19T07:48:44Z</time>
      </trkpt>
      <trkpt lat="43.24922" lon="-0.44166">
        <ele>353.086</ele>
        <time>2010-09-19T07:48:53Z</time>
      </trkpt>
      <trkpt lat="43.24922" lon="-0.44157">
        <ele>353.548</ele>
        <time>2010-09-19T07:49:00Z</time>
      </trkpt>
      <trkpt lat="43.24922" lon="-0.44141">
        <ele>354.241</ele>
        <time>2010-09-19T07:49:10Z</time>
      </trkpt>
      <trkpt lat="43.24924" lon="-0.44121">
        <ele>355.517</ele>
        <time>2010-09-19T07:49:23Z</time>
      </trkpt>
      <trkpt lat="43.24924" lon="-0.44117">
        <ele>355.943</ele>
        <time>2010-09-19T07:49:26Z</time>
      </trkpt>
      <trkpt lat="43.24924" lon="-0.44111">
        <ele>356.404</ele>
        <time>2010-09-19T07:49:32Z</time>
      </trkpt>
      <trkpt lat="43.24921" lon="-0.44102">
        <ele>356.833</ele>
        <time>2010-09-19T07:49:38Z</time>
      </trkpt>
      <trkpt lat="43.24914" lon="-0.44089">
        <ele>357.756</ele>
        <time>2010-09-19T07:49:46Z</time>
      </trkpt>
      <trkpt lat="43.24905" lon="-0.44071">
        <ele>358.907</ele>
        <time>2010-09-19T07:49:55Z</time>
      </trkpt>
      <trkpt lat="43.24895" lon="-0.44047">
        <ele>360.47</ele>
        <time>2010-09-19T07:50:06Z</time>
      </trkpt>
      <trkpt lat="43.24888" lon="-0.44029">
        <ele>361.608</ele>
        <time>2010-09-19T07:50:14Z</time>
      </trkpt>
      <trkpt lat="43.2488" lon="-0.44012">
        <ele>362.22</ele>
        <time>2010-09-19T07:50:22Z</time>
      </trkpt>
      <trkpt lat="43.24874" lon="-0.43999">
        <ele>362.761</ele>
        <time>2010-09-19T07:50:28Z</time>
      </trkpt>
      <trkpt lat="43.24866" lon="-0.43983">
        <ele>363.115</ele>
        <time>2010-09-19T07:50:35Z</time>
      </trkpt>
      <trkpt lat="43.2485" lon="-0.43957">
        <ele>362.902</ele>
        <time>2010-09-19T07:50:44Z</time>
      </trkpt>
      <trkpt lat="43.24835" lon="-0.43938">
        <ele>361.857</ele>
        <time>2010-09-19T07:50:49Z</time>
      </trkpt>
      <trkpt lat="43.24812" lon="-0.43911">
        <ele>360.131</ele>
        <time>2010-09-19T07:50:54Z</time>
      </trkpt>
      <trkpt lat="43.24776" lon="-0.43868">
        <ele>356.837</ele>
        <time>2010-09-19T07:51:00Z</time>
      </trkpt>
      <trkpt lat="43.24744" lon="-0.43828">
        <ele>354.551</ele>
        <time>2010-09-19T07:51:05Z</time>
      </trkpt>
      <trkpt lat="43.24735" lon="-0.43816">
        <ele>353.777</ele>
        <time>2010-09-19T07:51:07Z</time>
      </trkpt>
      <trkpt lat="43.2473" lon="-0.43796">
        <ele>353.453</ele>
        <time>2010-09-19T07:51:11Z</time>
      </trkpt>
      <trkpt lat="43.24733" lon="-0.43765">
        <ele>352.216</ele>
        <time>2010-09-19T07:51:16Z</time>
      </trkpt>
      <trkpt lat="43.24731" lon="-0.4372">
        <ele>349.305</ele>
        <time>2010-09-19T07:51:21Z</time>
      </trkpt>
      <trkpt lat="43.24729" lon="-0.43655">
        <ele>344.572</ele>
        <time>2010-09-19T07:51:26Z</time>
      </trkpt>
      <trkpt lat="43.24732" lon="-0.43591">
        <ele>340.142</ele>
        <time>2010-09-19T07:51:30Z</time>
      </trkpt>
      <trkpt lat="43.24737" lon="-0.43539">
        <ele>333.911</ele>
        <time>2010-09-19T07:51:34Z</time>
      </trkpt>
      <trkpt lat="43.24739" lon="-0.43528">
        <ele>332.259</ele>
        <time>2010-09-19T07:51:35Z</time>
      </trkpt>
      <trkpt lat="43.24737" lon="-0.43477">
        <ele>325.89</ele>
        <time>2010-09-19T07:51:40Z</time>
      </trkpt>
      <trkpt lat="43.24735" lon="-0.43438">
        <ele>321.203</ele>
        <time>2010-09-19T07:51:43Z</time>
      </trkpt>
      <trkpt lat="43.24728" lon="-0.43369">
        <ele>315.233</ele>
        <time>2010-09-19T07:51:48Z</time>
      </trkpt>
      <trkpt lat="43.24726" lon="-0.43357">
        <ele>313.5</ele>
        <time>2010-09-19T07:51:49Z</time>
      </trkpt>
      <trkpt lat="43.24713" lon="-0.43321">
        <ele>310.493</ele>
        <time>2010-09-19T07:51:53Z</time>
      </trkpt>
      <trkpt lat="43.2471" lon="-0.43314">
        <ele>310.675</ele>
        <time>2010-09-19T07:51:54Z</time>
      </trkpt>
      <trkpt lat="43.24701" lon="-0.43293">
        <ele>310.323</ele>
        <time>2010-09-19T07:51:59Z</time>
      </trkpt>
      <trkpt lat="43.24683" lon="-0.43263">
        <ele>308.136</ele>
        <time>2010-09-19T07:52:06Z</time>
      </trkpt>
      <trkpt lat="43.24671" lon="-0.43245">
        <ele>306.523</ele>
        <time>2010-09-19T07:52:09Z</time>
      </trkpt>
      <trkpt lat="43.24643" lon="-0.43198">
        <ele>302.247</ele>
        <time>2010-09-19T07:52:15Z</time>
      </trkpt>
      <trkpt lat="43.24627" lon="-0.43162">
        <ele>300.022</ele>
        <time>2010-09-19T07:52:19Z</time>
      </trkpt>
      <trkpt lat="43.24603" lon="-0.43098">
        <ele>295.991</ele>
        <time>2010-09-19T07:52:26Z</time>
      </trkpt>
      <trkpt lat="43.246" lon="-0.4309">
        <ele>295.466</ele>
        <time>2010-09-19T07:52:27Z</time>
      </trkpt>
      <trkpt lat="43.24586" lon="-0.43081">
        <ele>294.304</ele>
        <time>2010-09-19T07:52:31Z</time>
      </trkpt>
      <trkpt lat="43.24583" lon="-0.43082">
        <ele>293.827</ele>
        <time>2010-09-19T07:52:34Z</time>
      </trkpt>
      <trkpt lat="43.24583" lon="-0.43082">
        <ele>293.67</ele>
        <time>2010-09-19T07:52:39Z</time>
      </trkpt>
      <trkpt lat="43.24582" lon="-0.43083">
        <ele>293.69</ele>
        <time>2010-09-19T07:52:42Z</time>
      </trkpt>
      <trkpt lat="43.24573" lon="-0.43088">
        <ele>292.78</ele>
        <time>2010-09-19T07:52:47Z</time>
      </trkpt>
      <trkpt lat="43.24562" lon="-0.4308">
        <ele>291.237</ele>
        <time>2010-09-19T07:52:50Z</time>
      </trkpt>
      <trkpt lat="43.24555" lon="-0.43071">
        <ele>289.98</ele>
        <time>2010-09-19T07:52:52Z</time>
      </trkpt>
      <trkpt lat="43.24542" lon="-0.43053">
        <ele>288.554</ele>
        <time>2010-09-19T07:52:55Z</time>
      </trkpt>
      <trkpt lat="43.2451" lon="-0.43016">
        <ele>283.431</ele>
        <time>2010-09-19T07:53:00Z</time>
      </trkpt>
      <trkpt lat="43.24473" lon="-0.42966">
        <ele>279.681</ele>
        <time>2010-09-19T07:53:06Z</time>
      </trkpt>
      <trkpt lat="43.24446" lon="-0.42934">
        <ele>277.839</ele>
        <time>2010-09-19T07:53:11Z</time>
      </trkpt>
      <trkpt lat="43.24426" lon="-0.42911">
        <ele>276.259</ele>
        <time>2010-09-19T07:53:15Z</time>
      </trkpt>
      <trkpt lat="43.24412" lon="-0.42889">
        <ele>273.806</ele>
        <time>2010-09-19T07:53:20Z</time>
      </trkpt>
      <trkpt lat="43.24392" lon="-0.42882">
        <ele>271.017</ele>
        <time>2010-09-19T07:53:24Z</time>
      </trkpt>
      <trkpt lat="43.24382" lon="-0.4288">
        <ele>269.29</ele>
        <time>2010-09-19T07:53:26Z</time>
      </trkpt>
      <trkpt lat="43.24366" lon="-0.42865">
        <ele>265.584</ele>
        <time>2010-09-19T07:53:30Z</time>
      </trkpt>
      <trkpt lat="43.24362" lon="-0.42844">
        <ele>263.524</ele>
        <time>2010-09-19T07:53:34Z</time>
      </trkpt>
      <trkpt lat="43.24362" lon="-0.42839">
        <ele>263.277</ele>
        <time>2010-09-19T07:53:35Z</time>
      </trkpt>
      <trkpt lat="43.24367" lon="-0.42828">
        <ele>261.74</ele>
        <time>2010-09-19T07:53:38Z</time>
      </trkpt>
      <trkpt lat="43.24372" lon="-0.42826">
        <ele>261.32</ele>
        <time>2010-09-19T07:53:39Z</time>
      </trkpt>
      <trkpt lat="43.24389" lon="-0.42821">
        <ele>260.592</ele>
        <time>2010-09-19T07:53:45Z</time>
      </trkpt>
      <trkpt lat="43.24395" lon="-0.42812">
        <ele>258.476</ele>
        <time>2010-09-19T07:53:50Z</time>
      </trkpt>
      <trkpt lat="43.24396" lon="-0.42812">
        <ele>257.982</ele>
        <time>2010-09-19T07:53:54Z</time>
      </trkpt>
      <trkpt lat="43.244" lon="-0.42817">
        <ele>258.763</ele>
        <time>2010-09-19T07:53:59Z</time>
      </trkpt>
      <trkpt lat="43.244" lon="-0.4282">
        <ele>259.802</ele>
        <time>2010-09-19T07:54:03Z</time>
      </trkpt>
      <trkpt lat="43.24402" lon="-0.42824">
        <ele>260.662</ele>
        <time>2010-09-19T07:54:07Z</time>
      </trkpt>
      <trkpt lat="43.24403" lon="-0.42824">
        <ele>261.139</ele>
        <time>2010-09-19T07:54:09Z</time>
      </trkpt>
      <trkpt lat="43.24412" lon="-0.42824">
        <ele>260.86</ele>
        <time>2010-09-19T07:54:15Z</time>
      </trkpt>
      <trkpt lat="43.24425" lon="-0.42823">
        <ele>260.041</ele>
        <time>2010-09-19T07:54:20Z</time>
      </trkpt>
      <trkpt lat="43.24429" lon="-0.42822">
        <ele>259.863</ele>
        <time>2010-09-19T07:54:21Z</time>
      </trkpt>
      <trkpt lat="43.24451" lon="-0.42821">
        <ele>257.232</ele>
        <time>2010-09-19T07:54:25Z</time>
      </trkpt>
      <trkpt lat="43.24462" lon="-0.42829">
        <ele>256.587</ele>
        <time>2010-09-19T07:54:27Z</time>
      </trkpt>
      <trkpt lat="43.24498" lon="-0.42867">
        <ele>254.248</ele>
        <time>2010-09-19T07:54:34Z</time>
      </trkpt>
      <trkpt lat="43.24522" lon="-0.42893">
        <ele>252.04</ele>
        <time>2010-09-19T07:54:38Z</time>
      </trkpt>
      <trkpt lat="43.24529" lon="-0.42901">
        <ele>251.748</ele>
        <time>2010-09-19T07:54:39Z</time>
      </trkpt>
      <trkpt lat="43.24541" lon="-0.42916">
        <ele>250.174</ele>
        <time>2010-09-19T07:54:41Z</time>
      </trkpt>
      <trkpt lat="43.24558" lon="-0.42921">
        <ele>247.117</ele>
        <time>2010-09-19T07:54:44Z</time>
      </trkpt>
      <trkpt lat="43.24564" lon="-0.4291">
        <ele>244.608</ele>
        <time>2010-09-19T07:54:46Z</time>
      </trkpt>
      <trkpt lat="43.24566" lon="-0.42901">
        <ele>243.163</ele>
        <time>2010-09-19T07:54:47Z</time>
      </trkpt>
      <trkpt lat="43.24573" lon="-0.42861">
        <ele>237.749</ele>
        <time>2010-09-19T07:54:50Z</time>
      </trkpt>
      <trkpt lat="43.24598" lon="-0.42791">
        <ele>227.569</ele>
        <time>2010-09-19T07:54:55Z</time>
      </trkpt>
      <trkpt lat="43.24613" lon="-0.42748">
        <ele>220.394</ele>
        <time>2010-09-19T07:54:59Z</time>
      </trkpt>
      <trkpt lat="43.24615" lon="-0.4274">
        <ele>218.956</ele>
        <time>2010-09-19T07:55:00Z</time>
      </trkpt>
      <trkpt lat="43.24617" lon="-0.4272">
        <ele>217.078</ele>
        <time>2010-09-19T07:55:02Z</time>
      </trkpt>
      <trkpt lat="43.24633" lon="-0.42644">
        <ele>209.28</ele>
        <time>2010-09-19T07:55:08Z</time>
      </trkpt>
      <trkpt lat="43.24637" lon="-0.42616">
        <ele>205.244</ele>
        <time>2010-09-19T07:55:10Z</time>
      </trkpt>
      <trkpt lat="43.24648" lon="-0.42576">
        <ele>198.985</ele>
        <time>2010-09-19T07:55:14Z</time>
      </trkpt>
      <trkpt lat="43.2465" lon="-0.42562">
        <ele>196.656</ele>
        <time>2010-09-19T07:55:17Z</time>
      </trkpt>
      <trkpt lat="43.24639" lon="-0.42553">
        <ele>195.914</ele>
        <time>2010-09-19T07:55:21Z</time>
      </trkpt>
      <trkpt lat="43.24619" lon="-0.42548">
        <ele>195.763</ele>
        <time>2010-09-19T07:55:26Z</time>
      </trkpt>
      <trkpt lat="43.2458" lon="-0.42535">
        <ele>195.646</ele>
        <time>2010-09-19T07:55:34Z</time>
      </trkpt>
      <trkpt lat="43.2453" lon="-0.42517">
        <ele>195.899</ele>
        <time>2010-09-19T07:55:44Z</time>
      </trkpt>
      <trkpt lat="43.24478" lon="-0.42503">
        <ele>196.489</ele>
        <time>2010-09-19T07:55:54Z</time>
      </trkpt>
      <trkpt lat="43.24427" lon="-0.42486">
        <ele>196.89</ele>
        <time>2010-09-19T07:56:04Z</time>
      </trkpt>
      <trkpt lat="43.2438" lon="-0.42466">
        <ele>197.922</ele>
        <time>2010-09-19T07:56:14Z</time>
      </trkpt>
      <trkpt lat="43.24338" lon="-0.42446">
        <ele>199.105</ele>
        <time>2010-09-19T07:56:24Z</time>
      </trkpt>
      <trkpt lat="43.24315" lon="-0.42436">
        <ele>199.443</ele>
        <time>2010-09-19T07:56:30Z</time>
      </trkpt>
      <trkpt lat="43.24283" lon="-0.42419">
        <ele>200.39</ele>
        <time>2010-09-19T07:56:38Z</time>
      </trkpt>
      <trkpt lat="43.24245" lon="-0.42391">
        <ele>200.288</ele>
        <time>2010-09-19T07:56:47Z</time>
      </trkpt>
      <trkpt lat="43.2421" lon="-0.42355">
        <ele>200.311</ele>
        <time>2010-09-19T07:56:55Z</time>
      </trkpt>
      <trkpt lat="43.24181" lon="-0.42328">
        <ele>201.146</ele>
        <time>2010-09-19T07:57:02Z</time>
      </trkpt>
      <trkpt lat="43.24157" lon="-0.42306">
        <ele>201.179</ele>
        <time>2010-09-19T07:57:08Z</time>
      </trkpt>
      <trkpt lat="43.24117" lon="-0.42277">
        <ele>200.27</ele>
        <time>2010-09-19T07:57:16Z</time>
      </trkpt>
      <trkpt lat="43.24112" lon="-0.42274">
        <ele>200.234</ele>
        <time>2010-09-19T07:57:17Z</time>
      </trkpt>
      <trkpt lat="43.24076" lon="-0.42248">
        <ele>200.119</ele>
        <time>2010-09-19T07:57:25Z</time>
      </trkpt>
      <trkpt lat="43.24062" lon="-0.4224">
        <ele>199.896</ele>
        <time>2010-09-19T07:57:28Z</time>
      </trkpt>
      <trkpt lat="43.24028" lon="-0.42219">
        <ele>200.367</ele>
        <time>2010-09-19T07:57:36Z</time>
      </trkpt>
      <trkpt lat="43.24011" lon="-0.42214">
        <ele>200.379</ele>
        <time>2010-09-19T07:57:40Z</time>
      </trkpt>
      <trkpt lat="43.23987" lon="-0.42213">
        <ele>200.436</ele>
        <time>2010-09-19T07:57:46Z</time>
      </trkpt>
      <trkpt lat="43.23981" lon="-0.42198">
        <ele>200.632</ele>
        <time>2010-09-19T07:57:50Z</time>
      </trkpt>
      <trkpt lat="43.23982" lon="-0.42193">
        <ele>200.469</ele>
        <time>2010-09-19T07:57:51Z</time>
      </trkpt>
      <trkpt lat="43.23983" lon="-0.42182">
        <ele>200.383</ele>
        <time>2010-09-19T07:57:53Z</time>
      </trkpt>
      <trkpt lat="43.23985" lon="-0.42144">
        <ele>200.949</ele>
        <time>2010-09-19T07:58:00Z</time>
      </trkpt>
      <trkpt lat="43.23989" lon="-0.42118">
        <ele>201.451</ele>
        <time>2010-09-19T07:58:06Z</time>
      </trkpt>
      <trkpt lat="43.24002" lon="-0.4207">
        <ele>202.213</ele>
        <time>2010-09-19T07:58:16Z</time>
      </trkpt>
      <trkpt lat="43.24003" lon="-0.42047">
        <ele>202.761</ele>
        <time>2010-09-19T07:58:21Z</time>
      </trkpt>
      <trkpt lat="43.23996" lon="-0.4202">
        <ele>203.481</ele>
        <time>2010-09-19T07:58:27Z</time>
      </trkpt>
      <trkpt lat="43.23987" lon="-0.41997">
        <ele>204.997</ele>
        <time>2010-09-19T07:58:34Z</time>
      </trkpt>
      <trkpt lat="43.23986" lon="-0.41989">
        <ele>205.585</ele>
        <time>2010-09-19T07:58:37Z</time>
      </trkpt>
      <trkpt lat="43.23994" lon="-0.41978">
        <ele>206.986</ele>
        <time>2010-09-19T07:58:44Z</time>
      </trkpt>
      <trkpt lat="43.23999" lon="-0.41973">
        <ele>208.24</ele>
        <time>2010-09-19T07:58:50Z</time>
      </trkpt>
      <trkpt lat="43.24005" lon="-0.41968">
        <ele>209.902</ele>
        <time>2010-09-19T07:58:57Z</time>
      </trkpt>
      <trkpt lat="43.24012" lon="-0.4196">
        <ele>211.982</ele>
        <time>2010-09-19T07:59:05Z</time>
      </trkpt>
      <trkpt lat="43.24016" lon="-0.41956">
        <ele>213.195</ele>
        <time>2010-09-19T07:59:09Z</time>
      </trkpt>
      <trkpt lat="43.24021" lon="-0.41952">
        <ele>214.205</ele>
        <time>2010-09-19T07:59:14Z</time>
      </trkpt>
      <trkpt lat="43.24027" lon="-0.41945">
        <ele>215.77</ele>
        <time>2010-09-19T07:59:21Z</time>
      </trkpt>
      <trkpt lat="43.24032" lon="-0.41939">
        <ele>217.42</ele>
        <time>2010-09-19T07:59:28Z</time>
      </trkpt>
      <trkpt lat="43.24038" lon="-0.4193">
        <ele>218.836</ele>
        <time>2010-09-19T07:59:35Z</time>
      </trkpt>
      <trkpt lat="43.24046" lon="-0.41917">
        <ele>221.462</ele>
        <time>2010-09-19T07:59:44Z</time>
      </trkpt>
      <trkpt lat="43.24053" lon="-0.41908">
        <ele>222.669</ele>
        <time>2010-09-19T07:59:51Z</time>
      </trkpt>
      <trkpt lat="43.24055" lon="-0.41904">
        <ele>223.422</ele>
        <time>2010-09-19T07:59:54Z</time>
      </trkpt>
      <trkpt lat="43.24063" lon="-0.41895">
        <ele>224.792</ele>
        <time>2010-09-19T08:00:03Z</time>
      </trkpt>
      <trkpt lat="43.2407" lon="-0.41889">
        <ele>226.046</ele>
        <time>2010-09-19T08:00:11Z</time>
      </trkpt>
      <trkpt lat="43.24072" lon="-0.41888">
        <ele>226.636</ele>
        <time>2010-09-19T08:00:14Z</time>
      </trkpt>
      <trkpt lat="43.24075" lon="-0.41885">
        <ele>227.11</ele>
        <time>2010-09-19T08:00:20Z</time>
      </trkpt>
      <trkpt lat="43.24077" lon="-0.41883">
        <ele>227.367</ele>
        <time>2010-09-19T08:00:25Z</time>
      </trkpt>
      <trkpt lat="43.24083" lon="-0.41881">
        <ele>228.395</ele>
        <time>2010-09-19T08:00:31Z</time>
      </trkpt>
      <trkpt lat="43.24089" lon="-0.41878">
        <ele>229.474</ele>
        <time>2010-09-19T08:00:37Z</time>
      </trkpt>
      <trkpt lat="43.24099" lon="-0.41875">
        <ele>230.872</ele>
        <time>2010-09-19T08:00:46Z</time>
      </trkpt>
      <trkpt lat="43.24106" lon="-0.4187">
        <ele>232.028</ele>
        <time>2010-09-19T08:00:53Z</time>
      </trkpt>
      <trkpt lat="43.24114" lon="-0.41864">
        <ele>233.827</ele>
        <time>2010-09-19T08:01:03Z</time>
      </trkpt>
      <trkpt lat="43.2412" lon="-0.41859">
        <ele>235.648</ele>
        <time>2010-09-19T08:01:12Z</time>
      </trkpt>
      <trkpt lat="43.24124" lon="-0.41847">
        <ele>237.277</ele>
        <time>2010-09-19T08:01:21Z</time>
      </trkpt>
      <trkpt lat="43.24128" lon="-0.41838">
        <ele>238.837</ele>
        <time>2010-09-19T08:01:29Z</time>
      </trkpt>
      <trkpt lat="43.2413" lon="-0.41831">
        <ele>239.923</ele>
        <time>2010-09-19T08:01:38Z</time>
      </trkpt>
      <trkpt lat="43.24132" lon="-0.4182">
        <ele>241.666</ele>
        <time>2010-09-19T08:01:45Z</time>
      </trkpt>
      <trkpt lat="43.24139" lon="-0.41807">
        <ele>243.551</ele>
        <time>2010-09-19T08:01:53Z</time>
      </trkpt>
      <trkpt lat="43.24145" lon="-0.41798">
        <ele>245.072</ele>
        <time>2010-09-19T08:02:00Z</time>
      </trkpt>
      <trkpt lat="43.24146" lon="-0.41794">
        <ele>245.625</ele>
        <time>2010-09-19T08:02:05Z</time>
      </trkpt>
      <trkpt lat="43.24144" lon="-0.41792">
        <ele>246.507</ele>
        <time>2010-09-19T08:02:11Z</time>
      </trkpt>
      <trkpt lat="43.24143" lon="-0.41792">
        <ele>246.548</ele>
        <time>2010-09-19T08:02:12Z</time>
      </trkpt>
      <trkpt lat="43.24134" lon="-0.41798">
        <ele>248.396</ele>
        <time>2010-09-19T08:02:22Z</time>
      </trkpt>
      <trkpt lat="43.24127" lon="-0.41801">
        <ele>249.667</ele>
        <time>2010-09-19T08:02:30Z</time>
      </trkpt>
      <trkpt lat="43.2412" lon="-0.418">
        <ele>251.014</ele>
        <time>2010-09-19T08:02:37Z</time>
      </trkpt>
      <trkpt lat="43.24112" lon="-0.41797">
        <ele>252.666</ele>
        <time>2010-09-19T08:02:46Z</time>
      </trkpt>
      <trkpt lat="43.24102" lon="-0.4179">
        <ele>254.881</ele>
        <time>2010-09-19T08:02:58Z</time>
      </trkpt>
      <trkpt lat="43.24096" lon="-0.41785">
        <ele>256.391</ele>
        <time>2010-09-19T08:03:09Z</time>
      </trkpt>
      <trkpt lat="43.24093" lon="-0.41778">
        <ele>257.831</ele>
        <time>2010-09-19T08:03:17Z</time>
      </trkpt>
      <trkpt lat="43.24089" lon="-0.41767">
        <ele>259.508</ele>
        <time>2010-09-19T08:03:27Z</time>
      </trkpt>
      <trkpt lat="43.24085" lon="-0.41756">
        <ele>261.313</ele>
        <time>2010-09-19T08:03:36Z</time>
      </trkpt>
      <trkpt lat="43.24084" lon="-0.41743">
        <ele>262.673</ele>
        <time>2010-09-19T08:03:46Z</time>
      </trkpt>
      <trkpt lat="43.24085" lon="-0.41733">
        <ele>264.094</ele>
        <time>2010-09-19T08:03:54Z</time>
      </trkpt>
      <trkpt lat="43.24086" lon="-0.41732">
        <ele>264.308</ele>
        <time>2010-09-19T08:03:56Z</time>
      </trkpt>
      <trkpt lat="43.24092" lon="-0.41727">
        <ele>266.353</ele>
        <time>2010-09-19T08:04:06Z</time>
      </trkpt>
      <trkpt lat="43.24093" lon="-0.41727">
        <ele>266.461</ele>
        <time>2010-09-19T08:04:07Z</time>
      </trkpt>
      <trkpt lat="43.241" lon="-0.41726">
        <ele>268.139</ele>
        <time>2010-09-19T08:04:16Z</time>
      </trkpt>
      <trkpt lat="43.24105" lon="-0.41723">
        <ele>269.533</ele>
        <time>2010-09-19T08:04:24Z</time>
      </trkpt>
      <trkpt lat="43.24111" lon="-0.41718">
        <ele>271.221</ele>
        <time>2010-09-19T08:04:34Z</time>
      </trkpt>
      <trkpt lat="43.24113" lon="-0.41717">
        <ele>271.294</ele>
        <time>2010-09-19T08:04:36Z</time>
      </trkpt>
      <trkpt lat="43.24118" lon="-0.41709">
        <ele>272.93</ele>
        <time>2010-09-19T08:04:46Z</time>
      </trkpt>
      <trkpt lat="43.24123" lon="-0.41696">
        <ele>275.184</ele>
        <time>2010-09-19T08:04:59Z</time>
      </trkpt>
      <trkpt lat="43.24125" lon="-0.41686">
        <ele>276.79</ele>
        <time>2010-09-19T08:05:08Z</time>
      </trkpt>
      <trkpt lat="43.24127" lon="-0.41679">
        <ele>277.86</ele>
        <time>2010-09-19T08:05:15Z</time>
      </trkpt>
      <trkpt lat="43.24129" lon="-0.41669">
        <ele>279.652</ele>
        <time>2010-09-19T08:05:26Z</time>
      </trkpt>
      <trkpt lat="43.2413" lon="-0.41662">
        <ele>280.701</ele>
        <time>2010-09-19T08:05:34Z</time>
      </trkpt>
      <trkpt lat="43.24133" lon="-0.41653">
        <ele>282.102</ele>
        <time>2010-09-19T08:05:44Z</time>
      </trkpt>
      <trkpt lat="43.24136" lon="-0.41649">
        <ele>283.297</ele>
        <time>2010-09-19T08:05:51Z</time>
      </trkpt>
      <trkpt lat="43.24141" lon="-0.41641">
        <ele>284.959</ele>
        <time>2010-09-19T08:06:00Z</time>
      </trkpt>
      <trkpt lat="43.24145" lon="-0.41633">
        <ele>286.573</ele>
        <time>2010-09-19T08:06:08Z</time>
      </trkpt>
      <trkpt lat="43.24149" lon="-0.41624">
        <ele>287.779</ele>
        <time>2010-09-19T08:06:16Z</time>
      </trkpt>
      <trkpt lat="43.24153" lon="-0.41616">
        <ele>289.161</ele>
        <time>2010-09-19T08:06:24Z</time>
      </trkpt>
      <trkpt lat="43.2415" lon="-0.4161">
        <ele>290.003</ele>
        <time>2010-09-19T08:06:31Z</time>
      </trkpt>
      <trkpt lat="43.24151" lon="-0.41609">
        <ele>290.38</ele>
        <time>2010-09-19T08:06:41Z</time>
      </trkpt>
      <trkpt lat="43.2415" lon="-0.41609">
        <ele>290.269</ele>
        <time>2010-09-19T08:06:47Z</time>
      </trkpt>
      <trkpt lat="43.2415" lon="-0.4161">
        <ele>290.305</ele>
        <time>2010-09-19T08:07:09Z</time>
      </trkpt>
      <trkpt lat="43.2415" lon="-0.4161">
        <ele>290.563</ele>
        <time>2010-09-19T08:07:17Z</time>
      </trkpt>
      <trkpt lat="43.2415" lon="-0.41609">
        <ele>290.643</ele>
        <time>2010-09-19T08:07:25Z</time>
      </trkpt>
      <trkpt lat="43.24152" lon="-0.41607">
        <ele>290.683</ele>
        <time>2010-09-19T08:07:42Z</time>
      </trkpt>
      <trkpt lat="43.24153" lon="-0.41608">
        <ele>290.573</ele>
        <time>2010-09-19T08:08:01Z</time>
      </trkpt>
      <trkpt lat="43.2416" lon="-0.41605">
        <ele>291.048</ele>
        <time>2010-09-19T08:08:07Z</time>
      </trkpt>
      <trkpt lat="43.24161" lon="-0.41603">
        <ele>291.352</ele>
        <time>2010-09-19T08:08:08Z</time>
      </trkpt>
      <trkpt lat="43.24165" lon="-0.41592">
        <ele>293.187</ele>
        <time>2010-09-19T08:08:14Z</time>
      </trkpt>
      <trkpt lat="43.24169" lon="-0.41584">
        <ele>294.386</ele>
        <time>2010-09-19T08:08:19Z</time>
      </trkpt>
      <trkpt lat="43.24174" lon="-0.41574">
        <ele>295.991</ele>
        <time>2010-09-19T08:08:25Z</time>
      </trkpt>
      <trkpt lat="43.24178" lon="-0.41567">
        <ele>297.09</ele>
        <time>2010-09-19T08:08:30Z</time>
      </trkpt>
      <trkpt lat="43.24186" lon="-0.41554">
        <ele>299.602</ele>
        <time>2010-09-19T08:08:40Z</time>
      </trkpt>
      <trkpt lat="43.24194" lon="-0.41546">
        <ele>301.509</ele>
        <time>2010-09-19T08:08:47Z</time>
      </trkpt>
      <trkpt lat="43.24204" lon="-0.41541">
        <ele>302.523</ele>
        <time>2010-09-19T08:08:54Z</time>
      </trkpt>
      <trkpt lat="43.24219" lon="-0.41535">
        <ele>303.208</ele>
        <time>2010-09-19T08:09:02Z</time>
      </trkpt>
      <trkpt lat="43.24237" lon="-0.41532">
        <ele>304.482</ele>
        <time>2010-09-19T08:09:11Z</time>
      </trkpt>
      <trkpt lat="43.24248" lon="-0.41533">
        <ele>306.036</ele>
        <time>2010-09-19T08:09:17Z</time>
      </trkpt>
      <trkpt lat="43.24263" lon="-0.41537">
        <ele>308.758</ele>
        <time>2010-09-19T08:09:24Z</time>
      </trkpt>
      <trkpt lat="43.24277" lon="-0.41543">
        <ele>310.537</ele>
        <time>2010-09-19T08:09:30Z</time>
      </trkpt>
      <trkpt lat="43.2429" lon="-0.41536">
        <ele>311.546</ele>
        <time>2010-09-19T08:09:36Z</time>
      </trkpt>
      <trkpt lat="43.24294" lon="-0.41522">
        <ele>313.022</ele>
        <time>2010-09-19T08:09:42Z</time>
      </trkpt>
      <trkpt lat="43.24297" lon="-0.41506">
        <ele>314.484</ele>
        <time>2010-09-19T08:09:49Z</time>
      </trkpt>
      <trkpt lat="43.24298" lon="-0.41495">
        <ele>315.815</ele>
        <time>2010-09-19T08:09:55Z</time>
      </trkpt>
      <trkpt lat="43.24301" lon="-0.4148">
        <ele>317.552</ele>
        <time>2010-09-19T08:10:03Z</time>
      </trkpt>
      <trkpt lat="43.24303" lon="-0.41466">
        <ele>318.723</ele>
        <time>2010-09-19T08:10:10Z</time>
      </trkpt>
      <trkpt lat="43.24306" lon="-0.41449">
        <ele>320.425</ele>
        <time>2010-09-19T08:10:18Z</time>
      </trkpt>
      <trkpt lat="43.24309" lon="-0.41434">
        <ele>322.222</ele>
        <time>2010-09-19T08:10:26Z</time>
      </trkpt>
      <trkpt lat="43.2431" lon="-0.41421">
        <ele>323.63</ele>
        <time>2010-09-19T08:10:33Z</time>
      </trkpt>
      <trkpt lat="43.24313" lon="-0.41408">
        <ele>325.115</ele>
        <time>2010-09-19T08:10:40Z</time>
      </trkpt>
      <trkpt lat="43.24316" lon="-0.41393">
        <ele>327.135</ele>
        <time>2010-09-19T08:10:48Z</time>
      </trkpt>
      <trkpt lat="43.24319" lon="-0.41378">
        <ele>328.877</ele>
        <time>2010-09-19T08:10:56Z</time>
      </trkpt>
      <trkpt lat="43.2432" lon="-0.41367">
        <ele>330.359</ele>
        <time>2010-09-19T08:11:02Z</time>
      </trkpt>
      <trkpt lat="43.24324" lon="-0.41356">
        <ele>331.574</ele>
        <time>2010-09-19T08:11:08Z</time>
      </trkpt>
      <trkpt lat="43.24327" lon="-0.4134">
        <ele>333.528</ele>
        <time>2010-09-19T08:11:16Z</time>
      </trkpt>
      <trkpt lat="43.24328" lon="-0.41324">
        <ele>335.489</ele>
        <time>2010-09-19T08:11:24Z</time>
      </trkpt>
      <trkpt lat="43.2433" lon="-0.41305">
        <ele>337.501</ele>
        <time>2010-09-19T08:11:33Z</time>
      </trkpt>
      <trkpt lat="43.24334" lon="-0.41287">
        <ele>339.123</ele>
        <time>2010-09-19T08:11:41Z</time>
      </trkpt>
      <trkpt lat="43.24337" lon="-0.41271">
        <ele>340.718</ele>
        <time>2010-09-19T08:11:49Z</time>
      </trkpt>
      <trkpt lat="43.24338" lon="-0.41259">
        <ele>341.884</ele>
        <time>2010-09-19T08:11:55Z</time>
      </trkpt>
      <trkpt lat="43.24336" lon="-0.41245">
        <ele>343.273</ele>
        <time>2010-09-19T08:12:02Z</time>
      </trkpt>
      <trkpt lat="43.24336" lon="-0.41226">
        <ele>345.55</ele>
        <time>2010-09-19T08:12:12Z</time>
      </trkpt>
      <trkpt lat="43.24336" lon="-0.41207">
        <ele>346.919</ele>
        <time>2010-09-19T08:12:21Z</time>
      </trkpt>
      <trkpt lat="43.24333" lon="-0.41193">
        <ele>347.535</ele>
        <time>2010-09-19T08:12:28Z</time>
      </trkpt>
      <trkpt lat="43.24332" lon="-0.41182">
        <ele>347.716</ele>
        <time>2010-09-19T08:12:33Z</time>
      </trkpt>
      <trkpt lat="43.2432" lon="-0.41178">
        <ele>348.121</ele>
        <time>2010-09-19T08:12:40Z</time>
      </trkpt>
      <trkpt lat="43.24303" lon="-0.41181">
        <ele>348.365</ele>
        <time>2010-09-19T08:12:48Z</time>
      </trkpt>
      <trkpt lat="43.24284" lon="-0.41183">
        <ele>348.685</ele>
        <time>2010-09-19T08:12:56Z</time>
      </trkpt>
      <trkpt lat="43.24256" lon="-0.41182">
        <ele>349.902</ele>
        <time>2010-09-19T08:13:07Z</time>
      </trkpt>
      <trkpt lat="43.24235" lon="-0.41183">
        <ele>350.758</ele>
        <time>2010-09-19T08:13:15Z</time>
      </trkpt>
      <trkpt lat="43.24203" lon="-0.41181">
        <ele>352.576</ele>
        <time>2010-09-19T08:13:27Z</time>
      </trkpt>
      <trkpt lat="43.24182" lon="-0.41177">
        <ele>353.325</ele>
        <time>2010-09-19T08:13:35Z</time>
      </trkpt>
      <trkpt lat="43.24158" lon="-0.41167">
        <ele>352.828</ele>
        <time>2010-09-19T08:13:42Z</time>
      </trkpt>
      <trkpt lat="43.24132" lon="-0.41155">
        <ele>352.822</ele>
        <time>2010-09-19T08:13:49Z</time>
      </trkpt>
      <trkpt lat="43.24102" lon="-0.41144">
        <ele>353.105</ele>
        <time>2010-09-19T08:13:57Z</time>
      </trkpt>
      <trkpt lat="43.2407" lon="-0.41129">
        <ele>354.32</ele>
        <time>2010-09-19T08:14:07Z</time>
      </trkpt>
      <trkpt lat="43.24031" lon="-0.41111">
        <ele>355.203</ele>
        <time>2010-09-19T08:14:19Z</time>
      </trkpt>
      <trkpt lat="43.23998" lon="-0.41093">
        <ele>354.262</ele>
        <time>2010-09-19T08:14:27Z</time>
      </trkpt>
      <trkpt lat="43.23969" lon="-0.41079">
        <ele>354.028</ele>
        <time>2010-09-19T08:14:34Z</time>
      </trkpt>
      <trkpt lat="43.23934" lon="-0.41069">
        <ele>353.949</ele>
        <time>2010-09-19T08:14:42Z</time>
      </trkpt>
      <trkpt lat="43.23909" lon="-0.41065">
        <ele>354.46</ele>
        <time>2010-09-19T08:14:48Z</time>
      </trkpt>
      <trkpt lat="43.23877" lon="-0.41063">
        <ele>355.361</ele>
        <time>2010-09-19T08:14:57Z</time>
      </trkpt>
      <trkpt lat="43.2385" lon="-0.41065">
        <ele>356.311</ele>
        <time>2010-09-19T08:15:05Z</time>
      </trkpt>
      <trkpt lat="43.23844" lon="-0.41065">
        <ele>356.585</ele>
        <time>2010-09-19T08:15:07Z</time>
      </trkpt>
      <trkpt lat="43.23839" lon="-0.41055">
        <ele>357.191</ele>
        <time>2010-09-19T08:15:11Z</time>
      </trkpt>
      <trkpt lat="43.23837" lon="-0.4103">
        <ele>356.879</ele>
        <time>2010-09-19T08:15:16Z</time>
      </trkpt>
      <trkpt lat="43.23839" lon="-0.41009">
        <ele>356.651</ele>
        <time>2010-09-19T08:15:19Z</time>
      </trkpt>
      <trkpt lat="43.23854" lon="-0.40958">
        <ele>352.511</ele>
        <time>2010-09-19T08:15:24Z</time>
      </trkpt>
      <trkpt lat="43.23862" lon="-0.40932">
        <ele>348.715</ele>
        <time>2010-09-19T08:15:26Z</time>
      </trkpt>
      <trkpt lat="43.23876" lon="-0.40879">
        <ele>339.458</ele>
        <time>2010-09-19T08:15:30Z</time>
      </trkpt>
      <trkpt lat="43.23887" lon="-0.40845">
        <ele>333.818</ele>
        <time>2010-09-19T08:15:33Z</time>
      </trkpt>
      <trkpt lat="43.2389" lon="-0.40814">
        <ele>329.718</ele>
        <time>2010-09-19T08:15:36Z</time>
      </trkpt>
      <trkpt lat="43.23892" lon="-0.40784">
        <ele>326.013</ele>
        <time>2010-09-19T08:15:40Z</time>
      </trkpt>
      <trkpt lat="43.23887" lon="-0.40773">
        <ele>324.629</ele>
        <time>2010-09-19T08:15:42Z</time>
      </trkpt>
      <trkpt lat="43.2386" lon="-0.4072">
        <ele>315.168</ele>
        <time>2010-09-19T08:15:48Z</time>
      </trkpt>
      <trkpt lat="43.23837" lon="-0.40675">
        <ele>306.306</ele>
        <time>2010-09-19T08:15:52Z</time>
      </trkpt>
      <trkpt lat="43.23832" lon="-0.40664">
        <ele>305.143</ele>
        <time>2010-09-19T08:15:53Z</time>
      </trkpt>
      <trkpt lat="43.23812" lon="-0.40631">
        <ele>303.998</ele>
        <time>2010-09-19T08:15:57Z</time>
      </trkpt>
      <trkpt lat="43.238" lon="-0.40617">
        <ele>305.674</ele>
        <time>2010-09-19T08:16:02Z</time>
      </trkpt>
      <trkpt lat="43.2379" lon="-0.40605">
        <ele>307.555</ele>
        <time>2010-09-19T08:16:08Z</time>
      </trkpt>
      <trkpt lat="43.23787" lon="-0.406">
        <ele>308.477</ele>
        <time>2010-09-19T08:16:11Z</time>
      </trkpt>
      <trkpt lat="43.23778" lon="-0.40588">
        <ele>309.273</ele>
        <time>2010-09-19T08:16:17Z</time>
      </trkpt>
      <trkpt lat="43.2377" lon="-0.40577">
        <ele>310.074</ele>
        <time>2010-09-19T08:16:23Z</time>
      </trkpt>
      <trkpt lat="43.23759" lon="-0.40566">
        <ele>310.9</ele>
        <time>2010-09-19T08:16:30Z</time>
      </trkpt>
      <trkpt lat="43.23751" lon="-0.40561">
        <ele>311.947</ele>
        <time>2010-09-19T08:16:36Z</time>
      </trkpt>
      <trkpt lat="43.23739" lon="-0.40554">
        <ele>313.683</ele>
        <time>2010-09-19T08:16:44Z</time>
      </trkpt>
      <trkpt lat="43.23729" lon="-0.40541">
        <ele>315.296</ele>
        <time>2010-09-19T08:16:53Z</time>
      </trkpt>
      <trkpt lat="43.23719" lon="-0.40529">
        <ele>317.437</ele>
        <time>2010-09-19T08:17:03Z</time>
      </trkpt>
      <trkpt lat="43.23711" lon="-0.40517">
        <ele>319.111</ele>
        <time>2010-09-19T08:17:13Z</time>
      </trkpt>
      <trkpt lat="43.23704" lon="-0.40509">
        <ele>320.443</ele>
        <time>2010-09-19T08:17:21Z</time>
      </trkpt>
      <trkpt lat="43.23699" lon="-0.405">
        <ele>321.695</ele>
        <time>2010-09-19T08:17:29Z</time>
      </trkpt>
      <trkpt lat="43.23692" lon="-0.40489">
        <ele>323.018</ele>
        <time>2010-09-19T08:17:38Z</time>
      </trkpt>
      <trkpt lat="43.23685" lon="-0.40478">
        <ele>324.493</ele>
        <time>2010-09-19T08:17:48Z</time>
      </trkpt>
      <trkpt lat="43.23678" lon="-0.40465">
        <ele>326.232</ele>
        <time>2010-09-19T08:17:59Z</time>
      </trkpt>
      <trkpt lat="43.23675" lon="-0.40456">
        <ele>327.394</ele>
        <time>2010-09-19T08:18:06Z</time>
      </trkpt>
      <trkpt lat="43.23672" lon="-0.40448">
        <ele>328.344</ele>
        <time>2010-09-19T08:18:13Z</time>
      </trkpt>
      <trkpt lat="43.23667" lon="-0.40439">
        <ele>329.292</ele>
        <time>2010-09-19T08:18:21Z</time>
      </trkpt>
      <trkpt lat="43.2366" lon="-0.40428">
        <ele>330.925</ele>
        <time>2010-09-19T08:18:31Z</time>
      </trkpt>
      <trkpt lat="43.23653" lon="-0.40416">
        <ele>332.573</ele>
        <time>2010-09-19T08:18:40Z</time>
      </trkpt>
      <trkpt lat="43.23645" lon="-0.40405">
        <ele>334.865</ele>
        <time>2010-09-19T08:18:50Z</time>
      </trkpt>
      <trkpt lat="43.23637" lon="-0.40394">
        <ele>336.572</ele>
        <time>2010-09-19T08:19:00Z</time>
      </trkpt>
      <trkpt lat="43.23629" lon="-0.40385">
        <ele>338.025</ele>
        <time>2010-09-19T08:19:10Z</time>
      </trkpt>
      <trkpt lat="43.23624" lon="-0.40377">
        <ele>339.075</ele>
        <time>2010-09-19T08:19:17Z</time>
      </trkpt>
      <trkpt lat="43.23617" lon="-0.40367">
        <ele>340.585</ele>
        <time>2010-09-19T08:19:26Z</time>
      </trkpt>
      <trkpt lat="43.23616" lon="-0.40365">
        <ele>340.649</ele>
        <time>2010-09-19T08:19:28Z</time>
      </trkpt>
      <trkpt lat="43.23612" lon="-0.40359">
        <ele>341.349</ele>
        <time>2010-09-19T08:19:33Z</time>
      </trkpt>
      <trkpt lat="43.23601" lon="-0.40346">
        <ele>342.127</ele>
        <time>2010-09-19T08:19:44Z</time>
      </trkpt>
      <trkpt lat="43.23601" lon="-0.4034">
        <ele>342.389</ele>
        <time>2010-09-19T08:19:47Z</time>
      </trkpt>
      <trkpt lat="43.23611" lon="-0.40322">
        <ele>342.801</ele>
        <time>2010-09-19T08:19:54Z</time>
      </trkpt>
      <trkpt lat="43.23627" lon="-0.40292">
        <ele>343.338</ele>
        <time>2010-09-19T08:20:02Z</time>
      </trkpt>
      <trkpt lat="43.23637" lon="-0.40278">
        <ele>343.727</ele>
        <time>2010-09-19T08:20:06Z</time>
      </trkpt>
      <trkpt lat="43.23651" lon="-0.40263">
        <ele>343.899</ele>
        <time>2010-09-19T08:20:11Z</time>
      </trkpt>
      <trkpt lat="43.2368" lon="-0.40229">
        <ele>344.524</ele>
        <time>2010-09-19T08:20:21Z</time>
      </trkpt>
      <trkpt lat="43.23707" lon="-0.40196">
        <ele>344.826</ele>
        <time>2010-09-19T08:20:30Z</time>
      </trkpt>
      <trkpt lat="43.23732" lon="-0.40168">
        <ele>345.568</ele>
        <time>2010-09-19T08:20:38Z</time>
      </trkpt>
      <trkpt lat="43.23735" lon="-0.40167">
        <ele>345.679</ele>
        <time>2010-09-19T08:20:39Z</time>
      </trkpt>
      <trkpt lat="43.23749" lon="-0.40179">
        <ele>346.642</ele>
        <time>2010-09-19T08:20:44Z</time>
      </trkpt>
      <trkpt lat="43.23772" lon="-0.40221">
        <ele>347.578</ele>
        <time>2010-09-19T08:20:55Z</time>
      </trkpt>
      <trkpt lat="43.23791" lon="-0.40255">
        <ele>347.27</ele>
        <time>2010-09-19T08:21:02Z</time>
      </trkpt>
      <trkpt lat="43.23801" lon="-0.4027">
        <ele>347.05</ele>
        <time>2010-09-19T08:21:05Z</time>
      </trkpt>
      <trkpt lat="43.23807" lon="-0.40279">
        <ele>346.756</ele>
        <time>2010-09-19T08:21:07Z</time>
      </trkpt>
      <trkpt lat="43.23838" lon="-0.403">
        <ele>346.139</ele>
        <time>2010-09-19T08:21:14Z</time>
      </trkpt>
      <trkpt lat="43.23874" lon="-0.40319">
        <ele>344.02</ele>
        <time>2010-09-19T08:21:20Z</time>
      </trkpt>
      <trkpt lat="43.23914" lon="-0.40338">
        <ele>340.511</ele>
        <time>2010-09-19T08:21:25Z</time>
      </trkpt>
      <trkpt lat="43.23964" lon="-0.40357">
        <ele>336.299</ele>
        <time>2010-09-19T08:21:30Z</time>
      </trkpt>
      <trkpt lat="43.23995" lon="-0.40363">
        <ele>334.767</ele>
        <time>2010-09-19T08:21:33Z</time>
      </trkpt>
      <trkpt lat="43.2404" lon="-0.40361">
        <ele>333.893</ele>
        <time>2010-09-19T08:21:38Z</time>
      </trkpt>
      <trkpt lat="43.24102" lon="-0.40357">
        <ele>333.634</ele>
        <time>2010-09-19T08:21:46Z</time>
      </trkpt>
      <trkpt lat="43.24143" lon="-0.40354">
        <ele>333.641</ele>
        <time>2010-09-19T08:21:52Z</time>
      </trkpt>
      <trkpt lat="43.24184" lon="-0.40349">
        <ele>334.311</ele>
        <time>2010-09-19T08:21:59Z</time>
      </trkpt>
      <trkpt lat="43.24219" lon="-0.40346">
        <ele>335.148</ele>
        <time>2010-09-19T08:22:06Z</time>
      </trkpt>
      <trkpt lat="43.24261" lon="-0.40342">
        <ele>334.869</ele>
        <time>2010-09-19T08:22:14Z</time>
      </trkpt>
      <trkpt lat="43.24309" lon="-0.40334">
        <ele>334.881</ele>
        <time>2010-09-19T08:22:23Z</time>
      </trkpt>
      <trkpt lat="43.24336" lon="-0.40322">
        <ele>335.537</ele>
        <time>2010-09-19T08:22:29Z</time>
      </trkpt>
      <trkpt lat="43.24353" lon="-0.40322">
        <ele>336.004</ele>
        <time>2010-09-19T08:22:33Z</time>
      </trkpt>
      <trkpt lat="43.24394" lon="-0.40329">
        <ele>335.34</ele>
        <time>2010-09-19T08:22:41Z</time>
      </trkpt>
      <trkpt lat="43.244" lon="-0.4033">
        <ele>334.973</ele>
        <time>2010-09-19T08:22:42Z</time>
      </trkpt>
      <trkpt lat="43.24453" lon="-0.4033">
        <ele>332.254</ele>
        <time>2010-09-19T08:22:49Z</time>
      </trkpt>
      <trkpt lat="43.24507" lon="-0.40331">
        <ele>326.555</ele>
        <time>2010-09-19T08:22:55Z</time>
      </trkpt>
      <trkpt lat="43.24556" lon="-0.40328">
        <ele>321.043</ele>
        <time>2010-09-19T08:23:00Z</time>
      </trkpt>
      <trkpt lat="43.24585" lon="-0.40322">
        <ele>316.259</ele>
        <time>2010-09-19T08:23:03Z</time>
      </trkpt>
      <trkpt lat="43.24624" lon="-0.40321">
        <ele>309.062</ele>
        <time>2010-09-19T08:23:08Z</time>
      </trkpt>
      <trkpt lat="43.24641" lon="-0.40331">
        <ele>305.091</ele>
        <time>2010-09-19T08:23:12Z</time>
      </trkpt>
      <trkpt lat="43.24644" lon="-0.40333">
        <ele>304.849</ele>
        <time>2010-09-19T08:23:13Z</time>
      </trkpt>
      <trkpt lat="43.24656" lon="-0.40324">
        <ele>304.18</ele>
        <time>2010-09-19T08:23:17Z</time>
      </trkpt>
      <trkpt lat="43.2466" lon="-0.40319">
        <ele>303.773</ele>
        <time>2010-09-19T08:23:18Z</time>
      </trkpt>
      <trkpt lat="43.24671" lon="-0.40307">
        <ele>301.861</ele>
        <time>2010-09-19T08:23:21Z</time>
      </trkpt>
      <trkpt lat="43.24692" lon="-0.40303">
        <ele>297.931</ele>
        <time>2010-09-19T08:23:25Z</time>
      </trkpt>
      <trkpt lat="43.24709" lon="-0.40306">
        <ele>294.642</ele>
        <time>2010-09-19T08:23:28Z</time>
      </trkpt>
      <trkpt lat="43.24724" lon="-0.40325">
        <ele>290.614</ele>
        <time>2010-09-19T08:23:32Z</time>
      </trkpt>
      <trkpt lat="43.24723" lon="-0.40332">
        <ele>290.169</ele>
        <time>2010-09-19T08:23:33Z</time>
      </trkpt>
      <trkpt lat="43.24716" lon="-0.40361">
        <ele>289.031</ele>
        <time>2010-09-19T08:23:37Z</time>
      </trkpt>
      <trkpt lat="43.24704" lon="-0.40387">
        <ele>287.957</ele>
        <time>2010-09-19T08:23:41Z</time>
      </trkpt>
      <trkpt lat="43.2468" lon="-0.40419">
        <ele>286.579</ele>
        <time>2010-09-19T08:23:47Z</time>
      </trkpt>
      <trkpt lat="43.24664" lon="-0.40435">
        <ele>285.918</ele>
        <time>2010-09-19T08:23:50Z</time>
      </trkpt>
      <trkpt lat="43.24627" lon="-0.40467">
        <ele>283.984</ele>
        <time>2010-09-19T08:23:57Z</time>
      </trkpt>
      <trkpt lat="43.24604" lon="-0.40493">
        <ele>281.504</ele>
        <time>2010-09-19T08:24:01Z</time>
      </trkpt>
      <trkpt lat="43.24579" lon="-0.40529">
        <ele>278.667</ele>
        <time>2010-09-19T08:24:06Z</time>
      </trkpt>
      <trkpt lat="43.24573" lon="-0.40535">
        <ele>278.203</ele>
        <time>2010-09-19T08:24:07Z</time>
      </trkpt>
      <trkpt lat="43.24558" lon="-0.40559">
        <ele>276.751</ele>
        <time>2010-09-19T08:24:12Z</time>
      </trkpt>
      <trkpt lat="43.24548" lon="-0.40568">
        <ele>277.227</ele>
        <time>2010-09-19T08:24:16Z</time>
      </trkpt>
      <trkpt lat="43.24538" lon="-0.40578">
        <ele>276.652</ele>
        <time>2010-09-19T08:24:20Z</time>
      </trkpt>
      <trkpt lat="43.24534" lon="-0.40584">
        <ele>276.519</ele>
        <time>2010-09-19T08:24:22Z</time>
      </trkpt>
      <trkpt lat="43.24528" lon="-0.4059">
        <ele>276.502</ele>
        <time>2010-09-19T08:24:27Z</time>
      </trkpt>
      <trkpt lat="43.24522" lon="-0.40596">
        <ele>276.671</ele>
        <time>2010-09-19T08:24:33Z</time>
      </trkpt>
      <trkpt lat="43.24519" lon="-0.40596">
        <ele>276.643</ele>
        <time>2010-09-19T08:24:40Z</time>
      </trkpt>
      <trkpt lat="43.24517" lon="-0.40596">
        <ele>276.432</ele>
        <time>2010-09-19T08:24:51Z</time>
      </trkpt>
      <trkpt lat="43.24517" lon="-0.40602">
        <ele>276.813</ele>
        <time>2010-09-19T08:24:56Z</time>
      </trkpt>
      <trkpt lat="43.24519" lon="-0.40602">
        <ele>276.821</ele>
        <time>2010-09-19T08:24:57Z</time>
      </trkpt>
      <trkpt lat="43.24532" lon="-0.40596">
        <ele>276.915</ele>
        <time>2010-09-19T08:25:04Z</time>
      </trkpt>
      <trkpt lat="43.24547" lon="-0.40587">
        <ele>276.738</ele>
        <time>2010-09-19T08:25:10Z</time>
      </trkpt>
      <trkpt lat="43.24566" lon="-0.40571">
        <ele>275.783</ele>
        <time>2010-09-19T08:25:17Z</time>
      </trkpt>
      <trkpt lat="43.2458" lon="-0.40561">
        <ele>275.393</ele>
        <time>2010-09-19T08:25:22Z</time>
      </trkpt>
      <trkpt lat="43.24599" lon="-0.40544">
        <ele>274.672</ele>
        <time>2010-09-19T08:25:29Z</time>
      </trkpt>
      <trkpt lat="43.24621" lon="-0.40528">
        <ele>273.967</ele>
        <time>2010-09-19T08:25:36Z</time>
      </trkpt>
      <trkpt lat="43.24642" lon="-0.40515">
        <ele>273.326</ele>
        <time>2010-09-19T08:25:43Z</time>
      </trkpt>
      <trkpt lat="43.24646" lon="-0.40511">
        <ele>272.968</ele>
        <time>2010-09-19T08:25:49Z</time>
      </trkpt>
      <trkpt lat="43.24648" lon="-0.40508">
        <ele>272.941</ele>
        <time>2010-09-19T08:25:55Z</time>
      </trkpt>
      <trkpt lat="43.24652" lon="-0.40505">
        <ele>272.813</ele>
        <time>2010-09-19T08:26:00Z</time>
      </trkpt>
      <trkpt lat="43.24658" lon="-0.40497">
        <ele>272.537</ele>
        <time>2010-09-19T08:26:04Z</time>
      </trkpt>
      <trkpt lat="43.24673" lon="-0.40485">
        <ele>272.261</ele>
        <time>2010-09-19T08:26:10Z</time>
      </trkpt>
      <trkpt lat="43.2469" lon="-0.40468">
        <ele>271.787</ele>
        <time>2010-09-19T08:26:16Z</time>
      </trkpt>
      <trkpt lat="43.2471" lon="-0.40442">
        <ele>270.752</ele>
        <time>2010-09-19T08:26:23Z</time>
      </trkpt>
      <trkpt lat="43.24727" lon="-0.40418">
        <ele>270.078</ele>
        <time>2010-09-19T08:26:28Z</time>
      </trkpt>
      <trkpt lat="43.24741" lon="-0.40394">
        <ele>269.423</ele>
        <time>2010-09-19T08:26:33Z</time>
      </trkpt>
      <trkpt lat="43.2477" lon="-0.40366">
        <ele>268.068</ele>
        <time>2010-09-19T08:26:40Z</time>
      </trkpt>
      <trkpt lat="43.24792" lon="-0.40349">
        <ele>268.373</ele>
        <time>2010-09-19T08:26:46Z</time>
      </trkpt>
      <trkpt lat="43.24814" lon="-0.4034">
        <ele>269.01</ele>
        <time>2010-09-19T08:26:53Z</time>
      </trkpt>
      <trkpt lat="43.24828" lon="-0.4034">
        <ele>269.479</ele>
        <time>2010-09-19T08:26:58Z</time>
      </trkpt>
      <trkpt lat="43.24834" lon="-0.40353">
        <ele>269.901</ele>
        <time>2010-09-19T08:27:02Z</time>
      </trkpt>
      <trkpt lat="43.24835" lon="-0.40373">
        <ele>270.875</ele>
        <time>2010-09-19T08:27:09Z</time>
      </trkpt>
      <trkpt lat="43.24833" lon="-0.4039">
        <ele>271.813</ele>
        <time>2010-09-19T08:27:16Z</time>
      </trkpt>
      <trkpt lat="43.24836" lon="-0.40402">
        <ele>272.262</ele>
        <time>2010-09-19T08:27:22Z</time>
      </trkpt>
      <trkpt lat="43.24846" lon="-0.40413">
        <ele>273.751</ele>
        <time>2010-09-19T08:27:31Z</time>
      </trkpt>
      <trkpt lat="43.24857" lon="-0.40425">
        <ele>275.94</ele>
        <time>2010-09-19T08:27:40Z</time>
      </trkpt>
      <trkpt lat="43.24864" lon="-0.40432">
        <ele>278.107</ele>
        <time>2010-09-19T08:27:46Z</time>
      </trkpt>
      <trkpt lat="43.24871" lon="-0.40441">
        <ele>280.951</ele>
        <time>2010-09-19T08:27:53Z</time>
      </trkpt>
      <trkpt lat="43.2488" lon="-0.40448">
        <ele>283.575</ele>
        <time>2010-09-19T08:28:00Z</time>
      </trkpt>
      <trkpt lat="43.24888" lon="-0.40454">
        <ele>285.959</ele>
        <time>2010-09-19T08:28:07Z</time>
      </trkpt>
      <trkpt lat="43.24892" lon="-0.40459">
        <ele>287.395</ele>
        <time>2010-09-19T08:28:13Z</time>
      </trkpt>
      <trkpt lat="43.24902" lon="-0.40452">
        <ele>288.496</ele>
        <time>2010-09-19T08:28:22Z</time>
      </trkpt>
      <trkpt lat="43.24909" lon="-0.40449">
        <ele>288.691</ele>
        <time>2010-09-19T08:28:27Z</time>
      </trkpt>
      <trkpt lat="43.24918" lon="-0.40456">
        <ele>290.099</ele>
        <time>2010-09-19T08:28:35Z</time>
      </trkpt>
      <trkpt lat="43.24922" lon="-0.40467">
        <ele>291.577</ele>
        <time>2010-09-19T08:28:42Z</time>
      </trkpt>
      <trkpt lat="43.24922" lon="-0.40478">
        <ele>292.897</ele>
        <time>2010-09-19T08:28:49Z</time>
      </trkpt>
      <trkpt lat="43.24922" lon="-0.40496">
        <ele>295.348</ele>
        <time>2010-09-19T08:29:01Z</time>
      </trkpt>
      <trkpt lat="43.24922" lon="-0.40507">
        <ele>296.554</ele>
        <time>2010-09-19T08:29:08Z</time>
      </trkpt>
      <trkpt lat="43.24921" lon="-0.40516">
        <ele>297.485</ele>
        <time>2010-09-19T08:29:14Z</time>
      </trkpt>
      <trkpt lat="43.24921" lon="-0.40531">
        <ele>299.447</ele>
        <time>2010-09-19T08:29:24Z</time>
      </trkpt>
      <trkpt lat="43.24921" lon="-0.40543">
        <ele>300.82</ele>
        <time>2010-09-19T08:29:32Z</time>
      </trkpt>
      <trkpt lat="43.24922" lon="-0.40555">
        <ele>302.2</ele>
        <time>2010-09-19T08:29:40Z</time>
      </trkpt>
      <trkpt lat="43.2493" lon="-0.40559">
        <ele>303.787</ele>
        <time>2010-09-19T08:29:48Z</time>
      </trkpt>
      <trkpt lat="43.2494" lon="-0.40565">
        <ele>306.004</ele>
        <time>2010-09-19T08:29:58Z</time>
      </trkpt>
      <trkpt lat="43.24943" lon="-0.40576">
        <ele>307.243</ele>
        <time>2010-09-19T08:30:05Z</time>
      </trkpt>
      <trkpt lat="43.24947" lon="-0.40581">
        <ele>308.248</ele>
        <time>2010-09-19T08:30:10Z</time>
      </trkpt>
      <trkpt lat="43.24951" lon="-0.40594">
        <ele>310.41</ele>
        <time>2010-09-19T08:30:20Z</time>
      </trkpt>
      <trkpt lat="43.24955" lon="-0.40608">
        <ele>311.777</ele>
        <time>2010-09-19T08:30:30Z</time>
      </trkpt>
      <trkpt lat="43.24957" lon="-0.40613">
        <ele>312.539</ele>
        <time>2010-09-19T08:30:34Z</time>
      </trkpt>
      <trkpt lat="43.24967" lon="-0.40622">
        <ele>313.654</ele>
        <time>2010-09-19T08:30:44Z</time>
      </trkpt>
      <trkpt lat="43.24976" lon="-0.40631">
        <ele>314.27</ele>
        <time>2010-09-19T08:30:50Z</time>
      </trkpt>
      <trkpt lat="43.24984" lon="-0.40649">
        <ele>316.148</ele>
        <time>2010-09-19T08:31:00Z</time>
      </trkpt>
      <trkpt lat="43.24993" lon="-0.40668">
        <ele>317.383</ele>
        <time>2010-09-19T08:31:10Z</time>
      </trkpt>
      <trkpt lat="43.25002" lon="-0.40687">
        <ele>319.081</ele>
        <time>2010-09-19T08:31:21Z</time>
      </trkpt>
      <trkpt lat="43.25009" lon="-0.40707">
        <ele>320.181</ele>
        <time>2010-09-19T08:31:30Z</time>
      </trkpt>
      <trkpt lat="43.25014" lon="-0.40726">
        <ele>322.195</ele>
        <time>2010-09-19T08:31:39Z</time>
      </trkpt>
      <trkpt lat="43.25015" lon="-0.40729">
        <ele>322.83</ele>
        <time>2010-09-19T08:31:41Z</time>
      </trkpt>
      <trkpt lat="43.25024" lon="-0.4073">
        <ele>323.68</ele>
        <time>2010-09-19T08:31:47Z</time>
      </trkpt>
      <trkpt lat="43.25042" lon="-0.40733">
        <ele>323.117</ele>
        <time>2010-09-19T08:31:52Z</time>
      </trkpt>
      <trkpt lat="43.25073" lon="-0.40741">
        <ele>321.828</ele>
        <time>2010-09-19T08:31:58Z</time>
      </trkpt>
      <trkpt lat="43.25119" lon="-0.40754">
        <ele>318.852</ele>
        <time>2010-09-19T08:32:05Z</time>
      </trkpt>
      <trkpt lat="43.25171" lon="-0.40768">
        <ele>315.156</ele>
        <time>2010-09-19T08:32:11Z</time>
      </trkpt>
      <trkpt lat="43.25222" lon="-0.40783">
        <ele>312.646</ele>
        <time>2010-09-19T08:32:17Z</time>
      </trkpt>
      <trkpt lat="43.25248" lon="-0.40804">
        <ele>311.395</ele>
        <time>2010-09-19T08:32:21Z</time>
      </trkpt>
      <trkpt lat="43.25256" lon="-0.40822">
        <ele>310.521</ele>
        <time>2010-09-19T08:32:23Z</time>
      </trkpt>
      <trkpt lat="43.25275" lon="-0.4085">
        <ele>309.074</ele>
        <time>2010-09-19T08:32:28Z</time>
      </trkpt>
      <trkpt lat="43.253" lon="-0.40864">
        <ele>307.729</ele>
        <time>2010-09-19T08:32:32Z</time>
      </trkpt>
      <trkpt lat="43.25354" lon="-0.40892">
        <ele>304.838</ele>
        <time>2010-09-19T08:32:39Z</time>
      </trkpt>
      <trkpt lat="43.25393" lon="-0.40912">
        <ele>306.184</ele>
        <time>2010-09-19T08:32:45Z</time>
      </trkpt>
      <trkpt lat="43.25437" lon="-0.40936">
        <ele>305.679</ele>
        <time>2010-09-19T08:32:52Z</time>
      </trkpt>
      <trkpt lat="43.2545" lon="-0.40943">
        <ele>305.18</ele>
        <time>2010-09-19T08:32:54Z</time>
      </trkpt>
      <trkpt lat="43.25458" lon="-0.40958">
        <ele>303.566</ele>
        <time>2010-09-19T08:32:57Z</time>
      </trkpt>
      <trkpt lat="43.25457" lon="-0.40965">
        <ele>303.296</ele>
        <time>2010-09-19T08:32:58Z</time>
      </trkpt>
      <trkpt lat="43.25457" lon="-0.40987">
        <ele>301.425</ele>
        <time>2010-09-19T08:33:01Z</time>
      </trkpt>
      <trkpt lat="43.25465" lon="-0.40999">
        <ele>299.975</ele>
        <time>2010-09-19T08:33:03Z</time>
      </trkpt>
      <trkpt lat="43.25499" lon="-0.41041">
        <ele>295.983</ele>
        <time>2010-09-19T08:33:09Z</time>
      </trkpt>
      <trkpt lat="43.25541" lon="-0.41095">
        <ele>290.793</ele>
        <time>2010-09-19T08:33:15Z</time>
      </trkpt>
      <trkpt lat="43.25579" lon="-0.41144">
        <ele>284.405</ele>
        <time>2010-09-19T08:33:20Z</time>
      </trkpt>
      <trkpt lat="43.25602" lon="-0.41175">
        <ele>279.53</ele>
        <time>2010-09-19T08:33:24Z</time>
      </trkpt>
      <trkpt lat="43.25623" lon="-0.412">
        <ele>274.275</ele>
        <time>2010-09-19T08:33:29Z</time>
      </trkpt>
      <trkpt lat="43.25627" lon="-0.41202">
        <ele>272.285</ele>
        <time>2010-09-19T08:33:32Z</time>
      </trkpt>
      <trkpt lat="43.25627" lon="-0.41203">
        <ele>272.292</ele>
        <time>2010-09-19T08:33:47Z</time>
      </trkpt>
      <trkpt lat="43.2563" lon="-0.41203">
        <ele>272.337</ele>
        <time>2010-09-19T08:33:52Z</time>
      </trkpt>
      <trkpt lat="43.25635" lon="-0.41201">
        <ele>272.973</ele>
        <time>2010-09-19T08:34:01Z</time>
      </trkpt>
      <trkpt lat="43.25642" lon="-0.41197">
        <ele>274.4</ele>
        <time>2010-09-19T08:34:05Z</time>
      </trkpt>
      <trkpt lat="43.2565" lon="-0.41192">
        <ele>275.205</ele>
        <time>2010-09-19T08:34:10Z</time>
      </trkpt>
      <trkpt lat="43.25651" lon="-0.41191">
        <ele>275.379</ele>
        <time>2010-09-19T08:34:12Z</time>
      </trkpt>
      <trkpt lat="43.2566" lon="-0.41194">
        <ele>274.249</ele>
        <time>2010-09-19T08:34:17Z</time>
      </trkpt>
      <trkpt lat="43.25668" lon="-0.41187">
        <ele>273.443</ele>
        <time>2010-09-19T08:34:21Z</time>
      </trkpt>
      <trkpt lat="43.25677" lon="-0.41182">
        <ele>272.689</ele>
        <time>2010-09-19T08:34:25Z</time>
      </trkpt>
      <trkpt lat="43.25683" lon="-0.41176">
        <ele>270.722</ele>
        <time>2010-09-19T08:34:29Z</time>
      </trkpt>
      <trkpt lat="43.25692" lon="-0.41169">
        <ele>268.836</ele>
        <time>2010-09-19T08:34:32Z</time>
      </trkpt>
      <trkpt lat="43.25706" lon="-0.41175">
        <ele>263.785</ele>
        <time>2010-09-19T08:34:37Z</time>
      </trkpt>
      <trkpt lat="43.25712" lon="-0.41181">
        <ele>261.118</ele>
        <time>2010-09-19T08:34:39Z</time>
      </trkpt>
      <trkpt lat="43.25736" lon="-0.4118">
        <ele>254.786</ele>
        <time>2010-09-19T08:34:44Z</time>
      </trkpt>
      <trkpt lat="43.2575" lon="-0.41181">
        <ele>250.799</ele>
        <time>2010-09-19T08:34:47Z</time>
      </trkpt>
      <trkpt lat="43.25776" lon="-0.41179">
        <ele>243.687</ele>
        <time>2010-09-19T08:34:52Z</time>
      </trkpt>
      <trkpt lat="43.25788" lon="-0.41173">
        <ele>239.056</ele>
        <time>2010-09-19T08:34:57Z</time>
      </trkpt>
      <trkpt lat="43.25794" lon="-0.4117">
        <ele>237.297</ele>
        <time>2010-09-19T08:35:00Z</time>
      </trkpt>
      <trkpt lat="43.25798" lon="-0.41168">
        <ele>236.63</ele>
        <time>2010-09-19T08:35:02Z</time>
      </trkpt>
      <trkpt lat="43.25804" lon="-0.4116">
        <ele>235.392</ele>
        <time>2010-09-19T08:35:05Z</time>
      </trkpt>
      <trkpt lat="43.25813" lon="-0.41159">
        <ele>233.25</ele>
        <time>2010-09-19T08:35:08Z</time>
      </trkpt>
      <trkpt lat="43.25826" lon="-0.41154">
        <ele>231.892</ele>
        <time>2010-09-19T08:35:13Z</time>
      </trkpt>
      <trkpt lat="43.25827" lon="-0.41149">
        <ele>231.794</ele>
        <time>2010-09-19T08:35:14Z</time>
      </trkpt>
      <trkpt lat="43.25828" lon="-0.41105">
        <ele>231.492</ele>
        <time>2010-09-19T08:35:22Z</time>
      </trkpt>
      <trkpt lat="43.25828" lon="-0.41087">
        <ele>231.318</ele>
        <time>2010-09-19T08:35:25Z</time>
      </trkpt>
      <trkpt lat="43.25827" lon="-0.41076">
        <ele>231.214</ele>
        <time>2010-09-19T08:35:27Z</time>
      </trkpt>
      <trkpt lat="43.25821" lon="-0.41054">
        <ele>231.368</ele>
        <time>2010-09-19T08:35:31Z</time>
      </trkpt>
      <trkpt lat="43.25813" lon="-0.41039">
        <ele>231.041</ele>
        <time>2010-09-19T08:35:34Z</time>
      </trkpt>
      <trkpt lat="43.25804" lon="-0.41012">
        <ele>231.937</ele>
        <time>2010-09-19T08:35:40Z</time>
      </trkpt>
      <trkpt lat="43.25796" lon="-0.40984">
        <ele>233.193</ele>
        <time>2010-09-19T08:35:47Z</time>
      </trkpt>
      <trkpt lat="43.25793" lon="-0.40958">
        <ele>235.574</ele>
        <time>2010-09-19T08:35:55Z</time>
      </trkpt>
      <trkpt lat="43.25793" lon="-0.40949">
        <ele>236.406</ele>
        <time>2010-09-19T08:35:58Z</time>
      </trkpt>
      <trkpt lat="43.25789" lon="-0.40937">
        <ele>238.059</ele>
        <time>2010-09-19T08:36:03Z</time>
      </trkpt>
      <trkpt lat="43.25785" lon="-0.40919">
        <ele>240.864</ele>
        <time>2010-09-19T08:36:11Z</time>
      </trkpt>
      <trkpt lat="43.25782" lon="-0.40907">
        <ele>242.479</ele>
        <time>2010-09-19T08:36:16Z</time>
      </trkpt>
      <trkpt lat="43.25777" lon="-0.40889">
        <ele>244.98</ele>
        <time>2010-09-19T08:36:24Z</time>
      </trkpt>
      <trkpt lat="43.25773" lon="-0.40868">
        <ele>247.169</ele>
        <time>2010-09-19T08:36:34Z</time>
      </trkpt>
      <trkpt lat="43.25771" lon="-0.40851">
        <ele>249.169</ele>
        <time>2010-09-19T08:36:43Z</time>
      </trkpt>
      <trkpt lat="43.25766" lon="-0.40836">
        <ele>250.758</ele>
        <time>2010-09-19T08:36:51Z</time>
      </trkpt>
      <trkpt lat="43.25767" lon="-0.40825">
        <ele>252.114</ele>
        <time>2010-09-19T08:36:57Z</time>
      </trkpt>
      <trkpt lat="43.2577" lon="-0.4082">
        <ele>253.002</ele>
        <time>2010-09-19T08:37:01Z</time>
      </trkpt>
      <trkpt lat="43.25777" lon="-0.40819">
        <ele>254.445</ele>
        <time>2010-09-19T08:37:06Z</time>
      </trkpt>
      <trkpt lat="43.25787" lon="-0.4082">
        <ele>256.122</ele>
        <time>2010-09-19T08:37:13Z</time>
      </trkpt>
      <trkpt lat="43.25798" lon="-0.40823">
        <ele>258.002</ele>
        <time>2010-09-19T08:37:21Z</time>
      </trkpt>
      <trkpt lat="43.25807" lon="-0.40822">
        <ele>259.437</ele>
        <time>2010-09-19T08:37:28Z</time>
      </trkpt>
      <trkpt lat="43.25814" lon="-0.4081">
        <ele>261.525</ele>
        <time>2010-09-19T08:37:37Z</time>
      </trkpt>
      <trkpt lat="43.25815" lon="-0.40796">
        <ele>263.436</ele>
        <time>2010-09-19T08:37:45Z</time>
      </trkpt>
      <trkpt lat="43.25814" lon="-0.40781">
        <ele>264.867</ele>
        <time>2010-09-19T08:37:53Z</time>
      </trkpt>
      <trkpt lat="43.25814" lon="-0.40767">
        <ele>265.931</ele>
        <time>2010-09-19T08:38:01Z</time>
      </trkpt>
      <trkpt lat="43.25818" lon="-0.40752">
        <ele>267.365</ele>
        <time>2010-09-19T08:38:10Z</time>
      </trkpt>
      <trkpt lat="43.25828" lon="-0.40737">
        <ele>268.687</ele>
        <time>2010-09-19T08:38:20Z</time>
      </trkpt>
      <trkpt lat="43.25839" lon="-0.4072">
        <ele>270.217</ele>
        <time>2010-09-19T08:38:32Z</time>
      </trkpt>
      <trkpt lat="43.2585" lon="-0.40703">
        <ele>271.828</ele>
        <time>2010-09-19T08:38:43Z</time>
      </trkpt>
      <trkpt lat="43.25859" lon="-0.4069">
        <ele>273.082</ele>
        <time>2010-09-19T08:38:52Z</time>
      </trkpt>
      <trkpt lat="43.25869" lon="-0.40676">
        <ele>274.704</ele>
        <time>2010-09-19T08:39:02Z</time>
      </trkpt>
      <trkpt lat="43.25882" lon="-0.40663">
        <ele>276.78</ele>
        <time>2010-09-19T08:39:13Z</time>
      </trkpt>
      <trkpt lat="43.25889" lon="-0.40656">
        <ele>278.051</ele>
        <time>2010-09-19T08:39:19Z</time>
      </trkpt>
      <trkpt lat="43.259" lon="-0.40645">
        <ele>280.197</ele>
        <time>2010-09-19T08:39:29Z</time>
      </trkpt>
      <trkpt lat="43.25912" lon="-0.40634">
        <ele>282.545</ele>
        <time>2010-09-19T08:39:40Z</time>
      </trkpt>
      <trkpt lat="43.25923" lon="-0.40625">
        <ele>284.579</ele>
        <time>2010-09-19T08:39:49Z</time>
      </trkpt>
      <trkpt lat="43.25933" lon="-0.40618">
        <ele>286.494</ele>
        <time>2010-09-19T08:39:57Z</time>
      </trkpt>
      <trkpt lat="43.25942" lon="-0.4061">
        <ele>288.186</ele>
        <time>2010-09-19T08:40:05Z</time>
      </trkpt>
      <trkpt lat="43.2595" lon="-0.40605">
        <ele>289.588</ele>
        <time>2010-09-19T08:40:12Z</time>
      </trkpt>
      <trkpt lat="43.25959" lon="-0.406">
        <ele>291.522</ele>
        <time>2010-09-19T08:40:20Z</time>
      </trkpt>
      <trkpt lat="43.25968" lon="-0.40593">
        <ele>293.513</ele>
        <time>2010-09-19T08:40:29Z</time>
      </trkpt>
      <trkpt lat="43.25975" lon="-0.40592">
        <ele>294.599</ele>
        <time>2010-09-19T08:40:35Z</time>
      </trkpt>
      <trkpt lat="43.25986" lon="-0.40586">
        <ele>296.797</ele>
        <time>2010-09-19T08:40:45Z</time>
      </trkpt>
      <trkpt lat="43.25995" lon="-0.40581">
        <ele>298.301</ele>
        <time>2010-09-19T08:40:53Z</time>
      </trkpt>
      <trkpt lat="43.26004" lon="-0.40575">
        <ele>300.043</ele>
        <time>2010-09-19T08:41:01Z</time>
      </trkpt>
      <trkpt lat="43.26014" lon="-0.40569">
        <ele>302.051</ele>
        <time>2010-09-19T08:41:09Z</time>
      </trkpt>
      <trkpt lat="43.26023" lon="-0.4057">
        <ele>302.708</ele>
        <time>2010-09-19T08:41:16Z</time>
      </trkpt>
      <trkpt lat="43.26031" lon="-0.40574">
        <ele>302.571</ele>
        <time>2010-09-19T08:41:21Z</time>
      </trkpt>
      <trkpt lat="43.26045" lon="-0.4058">
        <ele>301.144</ele>
        <time>2010-09-19T08:41:27Z</time>
      </trkpt>
      <trkpt lat="43.26082" lon="-0.40576">
        <ele>296.287</ele>
        <time>2010-09-19T08:41:33Z</time>
      </trkpt>
      <trkpt lat="43.26089" lon="-0.40575">
        <ele>294.578</ele>
        <time>2010-09-19T08:41:34Z</time>
      </trkpt>
      <trkpt lat="43.26126" lon="-0.40569">
        <ele>287.137</ele>
        <time>2010-09-19T08:41:39Z</time>
      </trkpt>
      <trkpt lat="43.26167" lon="-0.4057">
        <ele>277.72</ele>
        <time>2010-09-19T08:41:44Z</time>
      </trkpt>
      <trkpt lat="43.26176" lon="-0.40569">
        <ele>274.402</ele>
        <time>2010-09-19T08:41:46Z</time>
      </trkpt>
      <trkpt lat="43.26181" lon="-0.4056">
        <ele>272.871</ele>
        <time>2010-09-19T08:41:49Z</time>
      </trkpt>
      <trkpt lat="43.26179" lon="-0.40551">
        <ele>273.444</ele>
        <time>2010-09-19T08:41:52Z</time>
      </trkpt>
      <trkpt lat="43.26173" lon="-0.40534">
        <ele>275.169</ele>
        <time>2010-09-19T08:41:59Z</time>
      </trkpt>
      <trkpt lat="43.26168" lon="-0.40514">
        <ele>277.31</ele>
        <time>2010-09-19T08:42:08Z</time>
      </trkpt>
      <trkpt lat="43.2617" lon="-0.40496">
        <ele>279.259</ele>
        <time>2010-09-19T08:42:17Z</time>
      </trkpt>
      <trkpt lat="43.26174" lon="-0.40485">
        <ele>280.478</ele>
        <time>2010-09-19T08:42:24Z</time>
      </trkpt>
      <trkpt lat="43.26183" lon="-0.40475">
        <ele>282.009</ele>
        <time>2010-09-19T08:42:32Z</time>
      </trkpt>
      <trkpt lat="43.26195" lon="-0.40465">
        <ele>283.297</ele>
        <time>2010-09-19T08:42:41Z</time>
      </trkpt>
      <trkpt lat="43.26204" lon="-0.40457">
        <ele>284.625</ele>
        <time>2010-09-19T08:42:49Z</time>
      </trkpt>
      <trkpt lat="43.2622" lon="-0.40449">
        <ele>286.799</ele>
        <time>2010-09-19T08:43:01Z</time>
      </trkpt>
      <trkpt lat="43.26226" lon="-0.40446">
        <ele>287.531</ele>
        <time>2010-09-19T08:43:06Z</time>
      </trkpt>
      <trkpt lat="43.26232" lon="-0.40451">
        <ele>288.867</ele>
        <time>2010-09-19T08:43:11Z</time>
      </trkpt>
      <trkpt lat="43.26243" lon="-0.40471">
        <ele>288.382</ele>
        <time>2010-09-19T08:43:18Z</time>
      </trkpt>
      <trkpt lat="43.26259" lon="-0.40503">
        <ele>287.573</ele>
        <time>2010-09-19T08:43:26Z</time>
      </trkpt>
      <trkpt lat="43.26279" lon="-0.40547">
        <ele>286.146</ele>
        <time>2010-09-19T08:43:35Z</time>
      </trkpt>
      <trkpt lat="43.26295" lon="-0.40584">
        <ele>284.623</ele>
        <time>2010-09-19T08:43:41Z</time>
      </trkpt>
      <trkpt lat="43.26308" lon="-0.40611">
        <ele>284.108</ele>
        <time>2010-09-19T08:43:46Z</time>
      </trkpt>
      <trkpt lat="43.26319" lon="-0.4063">
        <ele>283.461</ele>
        <time>2010-09-19T08:43:50Z</time>
      </trkpt>
      <trkpt lat="43.26328" lon="-0.40642">
        <ele>283.281</ele>
        <time>2010-09-19T08:43:53Z</time>
      </trkpt>
      <trkpt lat="43.26338" lon="-0.40638">
        <ele>283.626</ele>
        <time>2010-09-19T08:43:57Z</time>
      </trkpt>
      <trkpt lat="43.26352" lon="-0.40623">
        <ele>286.479</ele>
        <time>2010-09-19T08:44:04Z</time>
      </trkpt>
      <trkpt lat="43.26355" lon="-0.40622">
        <ele>286.982</ele>
        <time>2010-09-19T08:44:05Z</time>
      </trkpt>
      <trkpt lat="43.26363" lon="-0.40631">
        <ele>287.916</ele>
        <time>2010-09-19T08:44:10Z</time>
      </trkpt>
      <trkpt lat="43.26375" lon="-0.40652">
        <ele>287.36</ele>
        <time>2010-09-19T08:44:19Z</time>
      </trkpt>
      <trkpt lat="43.26375" lon="-0.40654">
        <ele>287.201</ele>
        <time>2010-09-19T08:44:20Z</time>
      </trkpt>
      <trkpt lat="43.26375" lon="-0.40657">
        <ele>286.48</ele>
        <time>2010-09-19T08:44:26Z</time>
      </trkpt>
      <trkpt lat="43.26375" lon="-0.40655">
        <ele>286.377</ele>
        <time>2010-09-19T08:45:26Z</time>
      </trkpt>
      <trkpt lat="43.26375" lon="-0.40655">
        <ele>286.33</ele>
        <time>2010-09-19T08:45:27Z</time>
      </trkpt>
      <trkpt lat="43.26375" lon="-0.40655">
        <ele>286.564</ele>
        <time>2010-09-19T08:45:40Z</time>
      </trkpt>
      <trkpt lat="43.26374" lon="-0.40655">
        <ele>286.742</ele>
        <time>2010-09-19T08:46:23Z</time>
      </trkpt>
      <trkpt lat="43.26374" lon="-0.40655">
        <ele>286.964</ele>
        <time>2010-09-19T08:47:02Z</time>
      </trkpt>
      <trkpt lat="43.26373" lon="-0.40655">
        <ele>287.173</ele>
        <time>2010-09-19T08:47:31Z</time>
      </trkpt>
      <trkpt lat="43.26374" lon="-0.40655">
        <ele>287.316</ele>
        <time>2010-09-19T08:48:27Z</time>
      </trkpt>
      <trkpt lat="43.26375" lon="-0.40653">
        <ele>288.468</ele>
        <time>2010-09-19T08:49:04Z</time>
      </trkpt>
      <trkpt lat="43.26375" lon="-0.40654">
        <ele>288.367</ele>
        <time>2010-09-19T08:49:13Z</time>
      </trkpt>
      <trkpt lat="43.26377" lon="-0.40649">
        <ele>288.551</ele>
        <time>2010-09-19T08:49:22Z</time>
      </trkpt>
      <trkpt lat="43.26378" lon="-0.40648">
        <ele>288.718</ele>
        <time>2010-09-19T08:49:24Z</time>
      </trkpt>
      <trkpt lat="43.26378" lon="-0.40647">
        <ele>288.669</ele>
        <time>2010-09-19T08:49:26Z</time>
      </trkpt>
      <trkpt lat="43.26379" lon="-0.40646">
        <ele>288.657</ele>
        <time>2010-09-19T08:49:27Z</time>
      </trkpt>
      <trkpt lat="43.2638" lon="-0.40646">
        <ele>288.76</ele>
        <time>2010-09-19T08:49:28Z</time>
      </trkpt>
      <trkpt lat="43.26381" lon="-0.40638">
        <ele>289.388</ele>
        <time>2010-09-19T08:49:35Z</time>
      </trkpt>
      <trkpt lat="43.26383" lon="-0.40633">
        <ele>289.451</ele>
        <time>2010-09-19T08:49:39Z</time>
      </trkpt>
      <trkpt lat="43.26383" lon="-0.40632">
        <ele>289.466</ele>
        <time>2010-09-19T08:49:40Z</time>
      </trkpt>
      <trkpt lat="43.26384" lon="-0.40615">
        <ele>289.965</ele>
        <time>2010-09-19T08:49:49Z</time>
      </trkpt>
      <trkpt lat="43.2638" lon="-0.40604">
        <ele>290.233</ele>
        <time>2010-09-19T08:49:54Z</time>
      </trkpt>
      <trkpt lat="43.26369" lon="-0.40584">
        <ele>291.263</ele>
        <time>2010-09-19T08:50:03Z</time>
      </trkpt>
      <trkpt lat="43.26357" lon="-0.40559">
        <ele>292.548</ele>
        <time>2010-09-19T08:50:13Z</time>
      </trkpt>
      <trkpt lat="43.26351" lon="-0.40535">
        <ele>293.19</ele>
        <time>2010-09-19T08:50:20Z</time>
      </trkpt>
      <trkpt lat="43.26343" lon="-0.40513">
        <ele>293.911</ele>
        <time>2010-09-19T08:50:27Z</time>
      </trkpt>
      <trkpt lat="43.26334" lon="-0.40492">
        <ele>294.96</ele>
        <time>2010-09-19T08:50:34Z</time>
      </trkpt>
      <trkpt lat="43.26317" lon="-0.40464">
        <ele>295.904</ele>
        <time>2010-09-19T08:50:42Z</time>
      </trkpt>
      <trkpt lat="43.26305" lon="-0.40429">
        <ele>297.5</ele>
        <time>2010-09-19T08:50:51Z</time>
      </trkpt>
      <trkpt lat="43.26292" lon="-0.40382">
        <ele>300.677</ele>
        <time>2010-09-19T08:51:04Z</time>
      </trkpt>
      <trkpt lat="43.26283" lon="-0.40345">
        <ele>303.226</ele>
        <time>2010-09-19T08:51:14Z</time>
      </trkpt>
      <trkpt lat="43.26277" lon="-0.40316">
        <ele>305.484</ele>
        <time>2010-09-19T08:51:22Z</time>
      </trkpt>
      <trkpt lat="43.26272" lon="-0.40287">
        <ele>307.197</ele>
        <time>2010-09-19T08:51:31Z</time>
      </trkpt>
      <trkpt lat="43.2627" lon="-0.40264">
        <ele>308.398</ele>
        <time>2010-09-19T08:51:39Z</time>
      </trkpt>
      <trkpt lat="43.26279" lon="-0.40249">
        <ele>308.051</ele>
        <time>2010-09-19T08:51:44Z</time>
      </trkpt>
      <trkpt lat="43.26296" lon="-0.40241">
        <ele>307.708</ele>
        <time>2010-09-19T08:51:49Z</time>
      </trkpt>
      <trkpt lat="43.26317" lon="-0.40228">
        <ele>307.512</ele>
        <time>2010-09-19T08:51:55Z</time>
      </trkpt>
      <trkpt lat="43.26334" lon="-0.40219">
        <ele>307.526</ele>
        <time>2010-09-19T08:52:00Z</time>
      </trkpt>
      <trkpt lat="43.26349" lon="-0.40211">
        <ele>307.463</ele>
        <time>2010-09-19T08:52:04Z</time>
      </trkpt>
      <trkpt lat="43.26375" lon="-0.402">
        <ele>307.997</ele>
        <time>2010-09-19T08:52:11Z</time>
      </trkpt>
      <trkpt lat="43.26408" lon="-0.40192">
        <ele>308.966</ele>
        <time>2010-09-19T08:52:20Z</time>
      </trkpt>
      <trkpt lat="43.2643" lon="-0.4019">
        <ele>309.484</ele>
        <time>2010-09-19T08:52:26Z</time>
      </trkpt>
      <trkpt lat="43.26456" lon="-0.40189">
        <ele>309.899</ele>
        <time>2010-09-19T08:52:33Z</time>
      </trkpt>
      <trkpt lat="43.26484" lon="-0.4019">
        <ele>309.798</ele>
        <time>2010-09-19T08:52:40Z</time>
      </trkpt>
      <trkpt lat="43.26513" lon="-0.40194">
        <ele>309.49</ele>
        <time>2010-09-19T08:52:47Z</time>
      </trkpt>
      <trkpt lat="43.26545" lon="-0.40199">
        <ele>309.97</ele>
        <time>2010-09-19T08:52:55Z</time>
      </trkpt>
      <trkpt lat="43.26577" lon="-0.402">
        <ele>310.942</ele>
        <time>2010-09-19T08:53:03Z</time>
      </trkpt>
      <trkpt lat="43.26608" lon="-0.40199">
        <ele>311.046</ele>
        <time>2010-09-19T08:53:11Z</time>
      </trkpt>
      <trkpt lat="43.26637" lon="-0.40199">
        <ele>309.744</ele>
        <time>2010-09-19T08:53:17Z</time>
      </trkpt>
      <trkpt lat="43.26665" lon="-0.40199">
        <ele>309.734</ele>
        <time>2010-09-19T08:53:23Z</time>
      </trkpt>
      <trkpt lat="43.26704" lon="-0.40199">
        <ele>309.598</ele>
        <time>2010-09-19T08:53:31Z</time>
      </trkpt>
      <trkpt lat="43.26723" lon="-0.40198">
        <ele>309.984</ele>
        <time>2010-09-19T08:53:35Z</time>
      </trkpt>
      <trkpt lat="43.26737" lon="-0.40191">
        <ele>310.6</ele>
        <time>2010-09-19T08:53:39Z</time>
      </trkpt>
      <trkpt lat="43.26751" lon="-0.40186">
        <ele>311.236</ele>
        <time>2010-09-19T08:53:43Z</time>
      </trkpt>
      <trkpt lat="43.26772" lon="-0.40185">
        <ele>312.499</ele>
        <time>2010-09-19T08:53:49Z</time>
      </trkpt>
      <trkpt lat="43.26783" lon="-0.4019">
        <ele>313.79</ele>
        <time>2010-09-19T08:53:52Z</time>
      </trkpt>
      <trkpt lat="43.26795" lon="-0.40201">
        <ele>315.181</ele>
        <time>2010-09-19T08:53:56Z</time>
      </trkpt>
      <trkpt lat="43.26807" lon="-0.40214">
        <ele>316.497</ele>
        <time>2010-09-19T08:54:00Z</time>
      </trkpt>
      <trkpt lat="43.2683" lon="-0.4024">
        <ele>317.484</ele>
        <time>2010-09-19T08:54:07Z</time>
      </trkpt>
      <trkpt lat="43.26864" lon="-0.40282">
        <ele>317.33</ele>
        <time>2010-09-19T08:54:17Z</time>
      </trkpt>
      <trkpt lat="43.26895" lon="-0.40316">
        <ele>317.09</ele>
        <time>2010-09-19T08:54:25Z</time>
      </trkpt>
      <trkpt lat="43.26903" lon="-0.40325">
        <ele>317.138</ele>
        <time>2010-09-19T08:54:27Z</time>
      </trkpt>
      <trkpt lat="43.2694" lon="-0.40363">
        <ele>317.111</ele>
        <time>2010-09-19T08:54:37Z</time>
      </trkpt>
      <trkpt lat="43.26969" lon="-0.40391">
        <ele>317.08</ele>
        <time>2010-09-19T08:54:45Z</time>
      </trkpt>
      <trkpt lat="43.27004" lon="-0.40417">
        <ele>317.87</ele>
        <time>2010-09-19T08:54:54Z</time>
      </trkpt>
      <trkpt lat="43.27015" lon="-0.40424">
        <ele>318.395</ele>
        <time>2010-09-19T08:54:57Z</time>
      </trkpt>
      <trkpt lat="43.2705" lon="-0.40436">
        <ele>319.954</ele>
        <time>2010-09-19T08:55:06Z</time>
      </trkpt>
      <trkpt lat="43.27077" lon="-0.40437">
        <ele>321.251</ele>
        <time>2010-09-19T08:55:13Z</time>
      </trkpt>
      <trkpt lat="43.27113" lon="-0.40431">
        <ele>322.701</ele>
        <time>2010-09-19T08:55:22Z</time>
      </trkpt>
      <trkpt lat="43.27146" lon="-0.40426">
        <ele>324.21</ele>
        <time>2010-09-19T08:55:31Z</time>
      </trkpt>
      <trkpt lat="43.27173" lon="-0.40419">
        <ele>325.675</ele>
        <time>2010-09-19T08:55:39Z</time>
      </trkpt>
      <trkpt lat="43.27196" lon="-0.40412">
        <ele>326.976</ele>
        <time>2010-09-19T08:55:46Z</time>
      </trkpt>
      <trkpt lat="43.27227" lon="-0.404">
        <ele>329.39</ele>
        <time>2010-09-19T08:55:56Z</time>
      </trkpt>
      <trkpt lat="43.27248" lon="-0.40395">
        <ele>331.204</ele>
        <time>2010-09-19T08:56:04Z</time>
      </trkpt>
      <trkpt lat="43.27259" lon="-0.40395">
        <ele>332.026</ele>
        <time>2010-09-19T08:56:09Z</time>
      </trkpt>
      <trkpt lat="43.27275" lon="-0.40401">
        <ele>331.466</ele>
        <time>2010-09-19T08:56:14Z</time>
      </trkpt>
      <trkpt lat="43.27303" lon="-0.40399">
        <ele>329.65</ele>
        <time>2010-09-19T08:56:19Z</time>
      </trkpt>
      <trkpt lat="43.27338" lon="-0.40392">
        <ele>327.234</ele>
        <time>2010-09-19T08:56:23Z</time>
      </trkpt>
      <trkpt lat="43.27386" lon="-0.40388">
        <ele>324.065</ele>
        <time>2010-09-19T08:56:28Z</time>
      </trkpt>
      <trkpt lat="43.2746" lon="-0.40389">
        <ele>318.739</ele>
        <time>2010-09-19T08:56:35Z</time>
      </trkpt>
      <trkpt lat="43.27504" lon="-0.40396">
        <ele>315.446</ele>
        <time>2010-09-19T08:56:39Z</time>
      </trkpt>
      <trkpt lat="43.27524" lon="-0.40402">
        <ele>313.233</ele>
        <time>2010-09-19T08:56:41Z</time>
      </trkpt>
      <trkpt lat="43.27557" lon="-0.40431">
        <ele>310.231</ele>
        <time>2010-09-19T08:56:45Z</time>
      </trkpt>
      <trkpt lat="43.27563" lon="-0.40442">
        <ele>309.44</ele>
        <time>2010-09-19T08:56:46Z</time>
      </trkpt>
      <trkpt lat="43.27575" lon="-0.40467">
        <ele>308.602</ele>
        <time>2010-09-19T08:56:48Z</time>
      </trkpt>
      <trkpt lat="43.27591" lon="-0.40501">
        <ele>308.684</ele>
        <time>2010-09-19T08:56:51Z</time>
      </trkpt>
      <trkpt lat="43.27611" lon="-0.40545">
        <ele>310.474</ele>
        <time>2010-09-19T08:56:56Z</time>
      </trkpt>
      <trkpt lat="43.2763" lon="-0.40578">
        <ele>311.82</ele>
        <time>2010-09-19T08:57:01Z</time>
      </trkpt>
      <trkpt lat="43.27644" lon="-0.40602">
        <ele>313.484</ele>
        <time>2010-09-19T08:57:06Z</time>
      </trkpt>
      <trkpt lat="43.27658" lon="-0.40618">
        <ele>314.95</ele>
        <time>2010-09-19T08:57:11Z</time>
      </trkpt>
      <trkpt lat="43.27681" lon="-0.40638">
        <ele>317.725</ele>
        <time>2010-09-19T08:57:19Z</time>
      </trkpt>
      <trkpt lat="43.27701" lon="-0.4066">
        <ele>319.779</ele>
        <time>2010-09-19T08:57:28Z</time>
      </trkpt>
      <trkpt lat="43.27715" lon="-0.40678">
        <ele>321.562</ele>
        <time>2010-09-19T08:57:35Z</time>
      </trkpt>
      <trkpt lat="43.27725" lon="-0.40692">
        <ele>323.148</ele>
        <time>2010-09-19T08:57:41Z</time>
      </trkpt>
      <trkpt lat="43.27723" lon="-0.40703">
        <ele>323.262</ele>
        <time>2010-09-19T08:57:45Z</time>
      </trkpt>
      <trkpt lat="43.27712" lon="-0.40724">
        <ele>320.19</ele>
        <time>2010-09-19T08:57:49Z</time>
      </trkpt>
      <trkpt lat="43.27697" lon="-0.40755">
        <ele>316.63</ele>
        <time>2010-09-19T08:57:52Z</time>
      </trkpt>
      <trkpt lat="43.2768" lon="-0.40796">
        <ele>309.385</ele>
        <time>2010-09-19T08:57:56Z</time>
      </trkpt>
      <trkpt lat="43.27659" lon="-0.40839">
        <ele>302.92</ele>
        <time>2010-09-19T08:58:00Z</time>
      </trkpt>
      <trkpt lat="43.27655" lon="-0.40852">
        <ele>300.476</ele>
        <time>2010-09-19T08:58:01Z</time>
      </trkpt>
      <trkpt lat="43.27645" lon="-0.40904">
        <ele>294.013</ele>
        <time>2010-09-19T08:58:05Z</time>
      </trkpt>
      <trkpt lat="43.27643" lon="-0.40957">
        <ele>288.777</ele>
        <time>2010-09-19T08:58:09Z</time>
      </trkpt>
      <trkpt lat="43.27644" lon="-0.41002">
        <ele>282.618</ele>
        <time>2010-09-19T08:58:13Z</time>
      </trkpt>
      <trkpt lat="43.27641" lon="-0.41031">
        <ele>279.434</ele>
        <time>2010-09-19T08:58:16Z</time>
      </trkpt>
      <trkpt lat="43.27636" lon="-0.41072">
        <ele>271.513</ele>
        <time>2010-09-19T08:58:21Z</time>
      </trkpt>
      <trkpt lat="43.27635" lon="-0.41083">
        <ele>268.603</ele>
        <time>2010-09-19T08:58:23Z</time>
      </trkpt>
      <trkpt lat="43.27639" lon="-0.41093">
        <ele>266.781</ele>
        <time>2010-09-19T08:58:26Z</time>
      </trkpt>
      <trkpt lat="43.27642" lon="-0.41096">
        <ele>266.066</ele>
        <time>2010-09-19T08:58:27Z</time>
      </trkpt>
      <trkpt lat="43.27654" lon="-0.41101">
        <ele>262.481</ele>
        <time>2010-09-19T08:58:32Z</time>
      </trkpt>
      <trkpt lat="43.27651" lon="-0.41113">
        <ele>258.624</ele>
        <time>2010-09-19T08:58:37Z</time>
      </trkpt>
      <trkpt lat="43.27641" lon="-0.41129">
        <ele>256.228</ele>
        <time>2010-09-19T08:58:39Z</time>
      </trkpt>
      <trkpt lat="43.27625" lon="-0.41152">
        <ele>250.276</ele>
        <time>2010-09-19T08:58:44Z</time>
      </trkpt>
      <trkpt lat="43.27611" lon="-0.41162">
        <ele>244.799</ele>
        <time>2010-09-19T08:58:49Z</time>
      </trkpt>
      <trkpt lat="43.27606" lon="-0.41167">
        <ele>242.61</ele>
        <time>2010-09-19T08:58:51Z</time>
      </trkpt>
      <trkpt lat="43.27593" lon="-0.41175">
        <ele>237.927</ele>
        <time>2010-09-19T08:58:56Z</time>
      </trkpt>
      <trkpt lat="43.27585" lon="-0.41163">
        <ele>234.048</ele>
        <time>2010-09-19T08:59:00Z</time>
      </trkpt>
      <trkpt lat="43.27579" lon="-0.4115">
        <ele>232.79</ele>
        <time>2010-09-19T08:59:02Z</time>
      </trkpt>
      <trkpt lat="43.27569" lon="-0.41135">
        <ele>230.365</ele>
        <time>2010-09-19T08:59:06Z</time>
      </trkpt>
      <trkpt lat="43.27564" lon="-0.41129">
        <ele>228.846</ele>
        <time>2010-09-19T08:59:08Z</time>
      </trkpt>
      <trkpt lat="43.27556" lon="-0.41134">
        <ele>227.658</ele>
        <time>2010-09-19T08:59:12Z</time>
      </trkpt>
      <trkpt lat="43.27556" lon="-0.4115">
        <ele>226.476</ele>
        <time>2010-09-19T08:59:15Z</time>
      </trkpt>
      <trkpt lat="43.27559" lon="-0.41171">
        <ele>225.259</ele>
        <time>2010-09-19T08:59:18Z</time>
      </trkpt>
      <trkpt lat="43.2756" lon="-0.41204">
        <ele>222.118</ele>
        <time>2010-09-19T08:59:23Z</time>
      </trkpt>
      <trkpt lat="43.2756" lon="-0.4121">
        <ele>221.821</ele>
        <time>2010-09-19T08:59:24Z</time>
      </trkpt>
      <trkpt lat="43.27558" lon="-0.41232">
        <ele>219.539</ele>
        <time>2010-09-19T08:59:29Z</time>
      </trkpt>
      <trkpt lat="43.27552" lon="-0.41242">
        <ele>219.392</ele>
        <time>2010-09-19T08:59:35Z</time>
      </trkpt>
      <trkpt lat="43.27545" lon="-0.41265">
        <ele>220.551</ele>
        <time>2010-09-19T08:59:41Z</time>
      </trkpt>
      <trkpt lat="43.27542" lon="-0.4127">
        <ele>220.447</ele>
        <time>2010-09-19T08:59:42Z</time>
      </trkpt>
      <trkpt lat="43.27533" lon="-0.41296">
        <ele>219.26</ele>
        <time>2010-09-19T08:59:46Z</time>
      </trkpt>
      <trkpt lat="43.27535" lon="-0.41328">
        <ele>218.104</ele>
        <time>2010-09-19T08:59:50Z</time>
      </trkpt>
      <trkpt lat="43.27543" lon="-0.41352">
        <ele>217.793</ele>
        <time>2010-09-19T08:59:53Z</time>
      </trkpt>
      <trkpt lat="43.27553" lon="-0.41375">
        <ele>216.881</ele>
        <time>2010-09-19T08:59:56Z</time>
      </trkpt>
      <trkpt lat="43.27566" lon="-0.41408">
        <ele>217.334</ele>
        <time>2010-09-19T09:00:01Z</time>
      </trkpt>
      <trkpt lat="43.27569" lon="-0.41423">
        <ele>215.997</ele>
        <time>2010-09-19T09:00:03Z</time>
      </trkpt>
      <trkpt lat="43.2758" lon="-0.41455">
        <ele>211.854</ele>
        <time>2010-09-19T09:00:07Z</time>
      </trkpt>
      <trkpt lat="43.27589" lon="-0.41478">
        <ele>209.463</ele>
        <time>2010-09-19T09:00:10Z</time>
      </trkpt>
      <trkpt lat="43.27599" lon="-0.41507">
        <ele>209.283</ele>
        <time>2010-09-19T09:00:14Z</time>
      </trkpt>
      <trkpt lat="43.27604" lon="-0.41544">
        <ele>207.496</ele>
        <time>2010-09-19T09:00:19Z</time>
      </trkpt>
      <trkpt lat="43.27605" lon="-0.41559">
        <ele>206.633</ele>
        <time>2010-09-19T09:00:21Z</time>
      </trkpt>
      <trkpt lat="43.27605" lon="-0.41567">
        <ele>206.044</ele>
        <time>2010-09-19T09:00:22Z</time>
      </trkpt>
      <trkpt lat="43.27608" lon="-0.41606">
        <ele>204.812</ele>
        <time>2010-09-19T09:00:27Z</time>
      </trkpt>
      <trkpt lat="43.2761" lon="-0.41638">
        <ele>203.543</ele>
        <time>2010-09-19T09:00:31Z</time>
      </trkpt>
      <trkpt lat="43.27623" lon="-0.41684">
        <ele>201.99</ele>
        <time>2010-09-19T09:00:37Z</time>
      </trkpt>
      <trkpt lat="43.27627" lon="-0.41692">
        <ele>201.75</ele>
        <time>2010-09-19T09:00:38Z</time>
      </trkpt>
      <trkpt lat="43.27625" lon="-0.41711">
        <ele>199.744</ele>
        <time>2010-09-19T09:00:42Z</time>
      </trkpt>
      <trkpt lat="43.27621" lon="-0.41717">
        <ele>199.202</ele>
        <time>2010-09-19T09:00:43Z</time>
      </trkpt>
      <trkpt lat="43.27614" lon="-0.4173">
        <ele>198.472</ele>
        <time>2010-09-19T09:00:45Z</time>
      </trkpt>
      <trkpt lat="43.27606" lon="-0.4176">
        <ele>197.026</ele>
        <time>2010-09-19T09:00:49Z</time>
      </trkpt>
      <trkpt lat="43.27594" lon="-0.41779">
        <ele>196.125</ele>
        <time>2010-09-19T09:00:53Z</time>
      </trkpt>
      <trkpt lat="43.27567" lon="-0.41801">
        <ele>195.3</ele>
        <time>2010-09-19T09:00:58Z</time>
      </trkpt>
      <trkpt lat="43.27554" lon="-0.41808">
        <ele>195.092</ele>
        <time>2010-09-19T09:01:01Z</time>
      </trkpt>
      <trkpt lat="43.27537" lon="-0.41821">
        <ele>195.324</ele>
        <time>2010-09-19T09:01:06Z</time>
      </trkpt>
      <trkpt lat="43.2753" lon="-0.41824">
        <ele>195.335</ele>
        <time>2010-09-19T09:01:08Z</time>
      </trkpt>
      <trkpt lat="43.27511" lon="-0.41831">
        <ele>196.324</ele>
        <time>2010-09-19T09:01:13Z</time>
      </trkpt>
      <trkpt lat="43.27498" lon="-0.41836">
        <ele>198.412</ele>
        <time>2010-09-19T09:01:19Z</time>
      </trkpt>
      <trkpt lat="43.27491" lon="-0.41836">
        <ele>200.296</ele>
        <time>2010-09-19T09:01:23Z</time>
      </trkpt>
      <trkpt lat="43.27487" lon="-0.41835">
        <ele>200.89</ele>
        <time>2010-09-19T09:01:25Z</time>
      </trkpt>
      <trkpt lat="43.27486" lon="-0.41835">
        <ele>201.245</ele>
        <time>2010-09-19T09:01:26Z</time>
      </trkpt>
      <trkpt lat="43.2748" lon="-0.41836">
        <ele>202.533</ele>
        <time>2010-09-19T09:01:30Z</time>
      </trkpt>
      <trkpt lat="43.2747" lon="-0.41834">
        <ele>204.437</ele>
        <time>2010-09-19T09:01:36Z</time>
      </trkpt>
      <trkpt lat="43.27457" lon="-0.4183">
        <ele>206.149</ele>
        <time>2010-09-19T09:01:42Z</time>
      </trkpt>
      <trkpt lat="43.27443" lon="-0.41829">
        <ele>207.281</ele>
        <time>2010-09-19T09:01:49Z</time>
      </trkpt>
      <trkpt lat="43.2743" lon="-0.41832">
        <ele>208.257</ele>
        <time>2010-09-19T09:01:56Z</time>
      </trkpt>
      <trkpt lat="43.27417" lon="-0.41837">
        <ele>209.615</ele>
        <time>2010-09-19T09:02:03Z</time>
      </trkpt>
      <trkpt lat="43.27407" lon="-0.41845">
        <ele>211.182</ele>
        <time>2010-09-19T09:02:10Z</time>
      </trkpt>
      <trkpt lat="43.27397" lon="-0.41855">
        <ele>213.1</ele>
        <time>2010-09-19T09:02:18Z</time>
      </trkpt>
      <trkpt lat="43.27391" lon="-0.41862">
        <ele>214.339</ele>
        <time>2010-09-19T09:02:24Z</time>
      </trkpt>
      <trkpt lat="43.27384" lon="-0.41871">
        <ele>216.444</ele>
        <time>2010-09-19T09:02:32Z</time>
      </trkpt>
      <trkpt lat="43.27374" lon="-0.41879">
        <ele>218.069</ele>
        <time>2010-09-19T09:02:39Z</time>
      </trkpt>
      <trkpt lat="43.27367" lon="-0.41887">
        <ele>219.683</ele>
        <time>2010-09-19T09:02:46Z</time>
      </trkpt>
      <trkpt lat="43.27365" lon="-0.41889">
        <ele>219.884</ele>
        <time>2010-09-19T09:02:48Z</time>
      </trkpt>
      <trkpt lat="43.27359" lon="-0.41892">
        <ele>220.799</ele>
        <time>2010-09-19T09:02:53Z</time>
      </trkpt>
      <trkpt lat="43.27352" lon="-0.41897">
        <ele>222.235</ele>
        <time>2010-09-19T09:03:00Z</time>
      </trkpt>
      <trkpt lat="43.27342" lon="-0.419">
        <ele>224.192</ele>
        <time>2010-09-19T09:03:08Z</time>
      </trkpt>
      <trkpt lat="43.2733" lon="-0.41901">
        <ele>225.945</ele>
        <time>2010-09-19T09:03:17Z</time>
      </trkpt>
      <trkpt lat="43.27321" lon="-0.41903">
        <ele>227.6</ele>
        <time>2010-09-19T09:03:25Z</time>
      </trkpt>
      <trkpt lat="43.27316" lon="-0.41904">
        <ele>228.476</ele>
        <time>2010-09-19T09:03:30Z</time>
      </trkpt>
      <trkpt lat="43.27307" lon="-0.41906">
        <ele>230.135</ele>
        <time>2010-09-19T09:03:39Z</time>
      </trkpt>
      <trkpt lat="43.27299" lon="-0.41908">
        <ele>231.665</ele>
        <time>2010-09-19T09:03:47Z</time>
      </trkpt>
      <trkpt lat="43.27288" lon="-0.41913">
        <ele>233.845</ele>
        <time>2010-09-19T09:03:58Z</time>
      </trkpt>
      <trkpt lat="43.27281" lon="-0.41916">
        <ele>235.437</ele>
        <time>2010-09-19T09:04:06Z</time>
      </trkpt>
      <trkpt lat="43.27271" lon="-0.41921">
        <ele>237.286</ele>
        <time>2010-09-19T09:04:16Z</time>
      </trkpt>
      <trkpt lat="43.27264" lon="-0.41924">
        <ele>238.951</ele>
        <time>2010-09-19T09:04:24Z</time>
      </trkpt>
      <trkpt lat="43.27263" lon="-0.41926">
        <ele>239.441</ele>
        <time>2010-09-19T09:04:34Z</time>
      </trkpt>
      <trkpt lat="43.27262" lon="-0.41927">
        <ele>239.834</ele>
        <time>2010-09-19T09:04:40Z</time>
      </trkpt>
      <trkpt lat="43.2726" lon="-0.41931">
        <ele>240.48</ele>
        <time>2010-09-19T09:04:49Z</time>
      </trkpt>
      <trkpt lat="43.27254" lon="-0.41936">
        <ele>242.257</ele>
        <time>2010-09-19T09:04:59Z</time>
      </trkpt>
      <trkpt lat="43.27249" lon="-0.41941">
        <ele>244.176</ele>
        <time>2010-09-19T09:05:09Z</time>
      </trkpt>
      <trkpt lat="43.27247" lon="-0.41946">
        <ele>245.356</ele>
        <time>2010-09-19T09:05:16Z</time>
      </trkpt>
      <trkpt lat="43.27245" lon="-0.41957">
        <ele>247.312</ele>
        <time>2010-09-19T09:05:26Z</time>
      </trkpt>
      <trkpt lat="43.27244" lon="-0.41965">
        <ele>248.58</ele>
        <time>2010-09-19T09:05:34Z</time>
      </trkpt>
      <trkpt lat="43.27241" lon="-0.41972">
        <ele>250.005</ele>
        <time>2010-09-19T09:05:43Z</time>
      </trkpt>
      <trkpt lat="43.2724" lon="-0.41977">
        <ele>251.185</ele>
        <time>2010-09-19T09:05:51Z</time>
      </trkpt>
      <trkpt lat="43.27237" lon="-0.4198">
        <ele>251.656</ele>
        <time>2010-09-19T09:05:56Z</time>
      </trkpt>
      <trkpt lat="43.2723" lon="-0.41985">
        <ele>252.9</ele>
        <time>2010-09-19T09:06:06Z</time>
      </trkpt>
      <trkpt lat="43.27224" lon="-0.41987">
        <ele>254.318</ele>
        <time>2010-09-19T09:06:15Z</time>
      </trkpt>
      <trkpt lat="43.27215" lon="-0.41991">
        <ele>255.973</ele>
        <time>2010-09-19T09:06:26Z</time>
      </trkpt>
      <trkpt lat="43.2721" lon="-0.41996">
        <ele>258.345</ele>
        <time>2010-09-19T09:06:36Z</time>
      </trkpt>
      <trkpt lat="43.27208" lon="-0.41998">
        <ele>259.042</ele>
        <time>2010-09-19T09:06:53Z</time>
      </trkpt>
      <trkpt lat="43.27207" lon="-0.42008">
        <ele>261.456</ele>
        <time>2010-09-19T09:07:11Z</time>
      </trkpt>
      <trkpt lat="43.27204" lon="-0.42015">
        <ele>262.869</ele>
        <time>2010-09-19T09:07:20Z</time>
      </trkpt>
      <trkpt lat="43.27203" lon="-0.42024">
        <ele>264.598</ele>
        <time>2010-09-19T09:07:28Z</time>
      </trkpt>
      <trkpt lat="43.27202" lon="-0.42029">
        <ele>265.155</ele>
        <time>2010-09-19T09:07:34Z</time>
      </trkpt>
      <trkpt lat="43.27202" lon="-0.42033">
        <ele>266.193</ele>
        <time>2010-09-19T09:07:41Z</time>
      </trkpt>
      <trkpt lat="43.27201" lon="-0.42038">
        <ele>266.768</ele>
        <time>2010-09-19T09:07:46Z</time>
      </trkpt>
      <trkpt lat="43.27201" lon="-0.42043">
        <ele>267.893</ele>
        <time>2010-09-19T09:07:53Z</time>
      </trkpt>
      <trkpt lat="43.272" lon="-0.42049">
        <ele>269.023</ele>
        <time>2010-09-19T09:08:00Z</time>
      </trkpt>
      <trkpt lat="43.272" lon="-0.42057">
        <ele>270.051</ele>
        <time>2010-09-19T09:08:07Z</time>
      </trkpt>
      <trkpt lat="43.272" lon="-0.42062">
        <ele>270.84</ele>
        <time>2010-09-19T09:08:13Z</time>
      </trkpt>
      <trkpt lat="43.27199" lon="-0.42068">
        <ele>271.566</ele>
        <time>2010-09-19T09:08:19Z</time>
      </trkpt>
      <trkpt lat="43.27197" lon="-0.42071">
        <ele>272.101</ele>
        <time>2010-09-19T09:08:25Z</time>
      </trkpt>
      <trkpt lat="43.27198" lon="-0.42077">
        <ele>272.493</ele>
        <time>2010-09-19T09:08:29Z</time>
      </trkpt>
      <trkpt lat="43.27198" lon="-0.42087">
        <ele>272.82</ele>
        <time>2010-09-19T09:08:36Z</time>
      </trkpt>
      <trkpt lat="43.272" lon="-0.42102">
        <ele>272.842</ele>
        <time>2010-09-19T09:08:43Z</time>
      </trkpt>
      <trkpt lat="43.27202" lon="-0.42105">
        <ele>272.815</ele>
        <time>2010-09-19T09:08:44Z</time>
      </trkpt>
      <trkpt lat="43.27208" lon="-0.42122">
        <ele>272.029</ele>
        <time>2010-09-19T09:08:48Z</time>
      </trkpt>
      <trkpt lat="43.27212" lon="-0.42135">
        <ele>271.275</ele>
        <time>2010-09-19T09:08:50Z</time>
      </trkpt>
      <trkpt lat="43.27218" lon="-0.42149">
        <ele>269.999</ele>
        <time>2010-09-19T09:08:52Z</time>
      </trkpt>
      <trkpt lat="43.27238" lon="-0.42185">
        <ele>265.56</ele>
        <time>2010-09-19T09:08:58Z</time>
      </trkpt>
      <trkpt lat="43.27242" lon="-0.42203">
        <ele>265.51</ele>
        <time>2010-09-19T09:09:02Z</time>
      </trkpt>
      <trkpt lat="43.27248" lon="-0.42217">
        <ele>267.448</ele>
        <time>2010-09-19T09:09:08Z</time>
      </trkpt>
      <trkpt lat="43.27253" lon="-0.42228">
        <ele>268.669</ele>
        <time>2010-09-19T09:09:13Z</time>
      </trkpt>
      <trkpt lat="43.27258" lon="-0.42247">
        <ele>270.516</ele>
        <time>2010-09-19T09:09:22Z</time>
      </trkpt>
      <trkpt lat="43.27261" lon="-0.42258">
        <ele>271.768</ele>
        <time>2010-09-19T09:09:28Z</time>
      </trkpt>
      <trkpt lat="43.27263" lon="-0.42267">
        <ele>273.485</ele>
        <time>2010-09-19T09:09:35Z</time>
      </trkpt>
      <trkpt lat="43.2727" lon="-0.42275">
        <ele>275.014</ele>
        <time>2010-09-19T09:09:42Z</time>
      </trkpt>
      <trkpt lat="43.27271" lon="-0.42287">
        <ele>276.625</ele>
        <time>2010-09-19T09:09:50Z</time>
      </trkpt>
      <trkpt lat="43.27272" lon="-0.42299">
        <ele>277.71</ele>
        <time>2010-09-19T09:09:57Z</time>
      </trkpt>
      <trkpt lat="43.27279" lon="-0.42312">
        <ele>278.786</ele>
        <time>2010-09-19T09:10:05Z</time>
      </trkpt>
      <trkpt lat="43.27289" lon="-0.42319">
        <ele>280.167</ele>
        <time>2010-09-19T09:10:13Z</time>
      </trkpt>
      <trkpt lat="43.273" lon="-0.42325">
        <ele>281.762</ele>
        <time>2010-09-19T09:10:21Z</time>
      </trkpt>
      <trkpt lat="43.2731" lon="-0.42329">
        <ele>282.89</ele>
        <time>2010-09-19T09:10:29Z</time>
      </trkpt>
      <trkpt lat="43.27314" lon="-0.42337">
        <ele>284.305</ele>
        <time>2010-09-19T09:10:36Z</time>
      </trkpt>
      <trkpt lat="43.27313" lon="-0.4234">
        <ele>285.203</ele>
        <time>2010-09-19T09:10:42Z</time>
      </trkpt>
      <trkpt lat="43.2731" lon="-0.42341">
        <ele>286.319</ele>
        <time>2010-09-19T09:10:47Z</time>
      </trkpt>
      <trkpt lat="43.27306" lon="-0.42343">
        <ele>287.94</ele>
        <time>2010-09-19T09:10:54Z</time>
      </trkpt>
      <trkpt lat="43.27302" lon="-0.42344">
        <ele>288.581</ele>
        <time>2010-09-19T09:10:58Z</time>
      </trkpt>
      <trkpt lat="43.273" lon="-0.42345">
        <ele>288.897</ele>
        <time>2010-09-19T09:11:00Z</time>
      </trkpt>
      <trkpt lat="43.27292" lon="-0.42345">
        <ele>289.776</ele>
        <time>2010-09-19T09:11:07Z</time>
      </trkpt>
      <trkpt lat="43.27282" lon="-0.42344">
        <ele>290.576</ele>
        <time>2010-09-19T09:11:15Z</time>
      </trkpt>
      <trkpt lat="43.27272" lon="-0.42342">
        <ele>291.842</ele>
        <time>2010-09-19T09:11:22Z</time>
      </trkpt>
      <trkpt lat="43.27265" lon="-0.4234">
        <ele>293.071</ele>
        <time>2010-09-19T09:11:29Z</time>
      </trkpt>
      <trkpt lat="43.27254" lon="-0.42334">
        <ele>294.477</ele>
        <time>2010-09-19T09:11:38Z</time>
      </trkpt>
      <trkpt lat="43.27248" lon="-0.42326">
        <ele>295.893</ele>
        <time>2010-09-19T09:11:45Z</time>
      </trkpt>
      <trkpt lat="43.27244" lon="-0.4232">
        <ele>297.028</ele>
        <time>2010-09-19T09:11:51Z</time>
      </trkpt>
      <trkpt lat="43.27235" lon="-0.42309">
        <ele>298.648</ele>
        <time>2010-09-19T09:11:58Z</time>
      </trkpt>
      <trkpt lat="43.27231" lon="-0.423">
        <ele>299.34</ele>
        <time>2010-09-19T09:12:05Z</time>
      </trkpt>
      <trkpt lat="43.27221" lon="-0.42286">
        <ele>300.047</ele>
        <time>2010-09-19T09:12:12Z</time>
      </trkpt>
      <trkpt lat="43.27217" lon="-0.42281">
        <ele>301.313</ele>
        <time>2010-09-19T09:12:17Z</time>
      </trkpt>
      <trkpt lat="43.27213" lon="-0.42274">
        <ele>302.884</ele>
        <time>2010-09-19T09:12:23Z</time>
      </trkpt>
      <trkpt lat="43.27209" lon="-0.4227">
        <ele>303.707</ele>
        <time>2010-09-19T09:12:26Z</time>
      </trkpt>
      <trkpt lat="43.27208" lon="-0.42265">
        <ele>304.106</ele>
        <time>2010-09-19T09:12:29Z</time>
      </trkpt>
      <trkpt lat="43.27204" lon="-0.42253">
        <ele>304.308</ele>
        <time>2010-09-19T09:12:35Z</time>
      </trkpt>
      <trkpt lat="43.27203" lon="-0.42251">
        <ele>304.316</ele>
        <time>2010-09-19T09:12:36Z</time>
      </trkpt>
      <trkpt lat="43.27193" lon="-0.42236">
        <ele>304.747</ele>
        <time>2010-09-19T09:12:43Z</time>
      </trkpt>
      <trkpt lat="43.27187" lon="-0.42223">
        <ele>305.07</ele>
        <time>2010-09-19T09:12:48Z</time>
      </trkpt>
      <trkpt lat="43.27181" lon="-0.42208">
        <ele>305.098</ele>
        <time>2010-09-19T09:12:53Z</time>
      </trkpt>
      <trkpt lat="43.27169" lon="-0.42203">
        <ele>305.954</ele>
        <time>2010-09-19T09:12:58Z</time>
      </trkpt>
      <trkpt lat="43.27156" lon="-0.42203">
        <ele>307.238</ele>
        <time>2010-09-19T09:13:05Z</time>
      </trkpt>
      <trkpt lat="43.27142" lon="-0.42208">
        <ele>308.12</ele>
        <time>2010-09-19T09:13:12Z</time>
      </trkpt>
      <trkpt lat="43.27131" lon="-0.42214">
        <ele>309.245</ele>
        <time>2010-09-19T09:13:19Z</time>
      </trkpt>
      <trkpt lat="43.2712" lon="-0.42221">
        <ele>310.37</ele>
        <time>2010-09-19T09:13:27Z</time>
      </trkpt>
      <trkpt lat="43.27107" lon="-0.42229">
        <ele>311.586</ele>
        <time>2010-09-19T09:13:36Z</time>
      </trkpt>
      <trkpt lat="43.27089" lon="-0.42235">
        <ele>312.516</ele>
        <time>2010-09-19T09:13:48Z</time>
      </trkpt>
      <trkpt lat="43.27076" lon="-0.42241">
        <ele>313.47</ele>
        <time>2010-09-19T09:13:58Z</time>
      </trkpt>
      <trkpt lat="43.27064" lon="-0.42243">
        <ele>313.934</ele>
        <time>2010-09-19T09:14:06Z</time>
      </trkpt>
      <trkpt lat="43.2705" lon="-0.42244">
        <ele>314.343</ele>
        <time>2010-09-19T09:14:15Z</time>
      </trkpt>
      <trkpt lat="43.27037" lon="-0.42243">
        <ele>314.297</ele>
        <time>2010-09-19T09:14:22Z</time>
      </trkpt>
      <trkpt lat="43.27022" lon="-0.42244">
        <ele>314.706</ele>
        <time>2010-09-19T09:14:28Z</time>
      </trkpt>
      <trkpt lat="43.27002" lon="-0.4225">
        <ele>314.916</ele>
        <time>2010-09-19T09:14:35Z</time>
      </trkpt>
      <trkpt lat="43.26987" lon="-0.42254">
        <ele>315.928</ele>
        <time>2010-09-19T09:14:41Z</time>
      </trkpt>
      <trkpt lat="43.26969" lon="-0.42249">
        <ele>315.542</ele>
        <time>2010-09-19T09:14:48Z</time>
      </trkpt>
      <trkpt lat="43.26955" lon="-0.42242">
        <ele>315.396</ele>
        <time>2010-09-19T09:14:54Z</time>
      </trkpt>
      <trkpt lat="43.26944" lon="-0.42236">
        <ele>315.373</ele>
        <time>2010-09-19T09:15:00Z</time>
      </trkpt>
      <trkpt lat="43.26941" lon="-0.42234">
        <ele>315.083</ele>
        <time>2010-09-19T09:15:04Z</time>
      </trkpt>
      <trkpt lat="43.26937" lon="-0.42233">
        <ele>315.723</ele>
        <time>2010-09-19T09:15:11Z</time>
      </trkpt>
      <trkpt lat="43.26934" lon="-0.42235">
        <ele>316.735</ele>
        <time>2010-09-19T09:15:15Z</time>
      </trkpt>
      <trkpt lat="43.26931" lon="-0.42238">
        <ele>318.494</ele>
        <time>2010-09-19T09:15:21Z</time>
      </trkpt>
      <trkpt lat="43.26929" lon="-0.42241">
        <ele>320.033</ele>
        <time>2010-09-19T09:15:27Z</time>
      </trkpt>
      <trkpt lat="43.26926" lon="-0.42244">
        <ele>321.141</ele>
        <time>2010-09-19T09:15:33Z</time>
      </trkpt>
      <trkpt lat="43.26922" lon="-0.42242">
        <ele>321.29</ele>
        <time>2010-09-19T09:15:38Z</time>
      </trkpt>
      <trkpt lat="43.26915" lon="-0.42234">
        <ele>321.43</ele>
        <time>2010-09-19T09:15:43Z</time>
      </trkpt>
      <trkpt lat="43.26901" lon="-0.42217">
        <ele>321.38</ele>
        <time>2010-09-19T09:15:49Z</time>
      </trkpt>
      <trkpt lat="43.26888" lon="-0.42196">
        <ele>321.66</ele>
        <time>2010-09-19T09:15:55Z</time>
      </trkpt>
      <trkpt lat="43.26881" lon="-0.42186">
        <ele>321.806</ele>
        <time>2010-09-19T09:15:58Z</time>
      </trkpt>
      <trkpt lat="43.26867" lon="-0.42183">
        <ele>323.092</ele>
        <time>2010-09-19T09:16:02Z</time>
      </trkpt>
      <trkpt lat="43.26865" lon="-0.42186">
        <ele>323.276</ele>
        <time>2010-09-19T09:16:03Z</time>
      </trkpt>
      <trkpt lat="43.2685" lon="-0.42205">
        <ele>323.674</ele>
        <time>2010-09-19T09:16:09Z</time>
      </trkpt>
      <trkpt lat="43.26843" lon="-0.42217">
        <ele>322.111</ele>
        <time>2010-09-19T09:16:12Z</time>
      </trkpt>
      <trkpt lat="43.26846" lon="-0.4223">
        <ele>320.434</ele>
        <time>2010-09-19T09:16:16Z</time>
      </trkpt>
      <trkpt lat="43.26871" lon="-0.42262">
        <ele>321.117</ele>
        <time>2010-09-19T09:16:25Z</time>
      </trkpt>
      <trkpt lat="43.26894" lon="-0.42292">
        <ele>321.86</ele>
        <time>2010-09-19T09:16:34Z</time>
      </trkpt>
      <trkpt lat="43.26908" lon="-0.42315">
        <ele>321.812</ele>
        <time>2010-09-19T09:16:40Z</time>
      </trkpt>
      <trkpt lat="43.2692" lon="-0.42326">
        <ele>321.565</ele>
        <time>2010-09-19T09:16:44Z</time>
      </trkpt>
      <trkpt lat="43.26936" lon="-0.42336">
        <ele>322.25</ele>
        <time>2010-09-19T09:16:50Z</time>
      </trkpt>
      <trkpt lat="43.26945" lon="-0.42334">
        <ele>323.063</ele>
        <time>2010-09-19T09:16:54Z</time>
      </trkpt>
      <trkpt lat="43.26949" lon="-0.42329">
        <ele>323.414</ele>
        <time>2010-09-19T09:16:56Z</time>
      </trkpt>
      <trkpt lat="43.26951" lon="-0.42324">
        <ele>323.814</ele>
        <time>2010-09-19T09:17:02Z</time>
      </trkpt>
      <trkpt lat="43.26951" lon="-0.42321">
        <ele>323.783</ele>
        <time>2010-09-19T09:17:09Z</time>
      </trkpt>
      <trkpt lat="43.26951" lon="-0.4232">
        <ele>324.311</ele>
        <time>2010-09-19T09:17:21Z</time>
      </trkpt>
      <trkpt lat="43.26952" lon="-0.42319">
        <ele>323.782</ele>
        <time>2010-09-19T09:17:32Z</time>
      </trkpt>
      <trkpt lat="43.26958" lon="-0.42319">
        <ele>323.901</ele>
        <time>2010-09-19T09:17:40Z</time>
      </trkpt>
      <trkpt lat="43.2696" lon="-0.42319">
        <ele>323.81</ele>
        <time>2010-09-19T09:18:03Z</time>
      </trkpt>
      <trkpt lat="43.26961" lon="-0.42319">
        <ele>324.005</ele>
        <time>2010-09-19T09:18:36Z</time>
      </trkpt>
      <trkpt lat="43.26959" lon="-0.42319">
        <ele>323.97</ele>
        <time>2010-09-19T09:19:00Z</time>
      </trkpt>
      <trkpt lat="43.26959" lon="-0.42319">
        <ele>324.276</ele>
        <time>2010-09-19T09:19:13Z</time>
      </trkpt>
      <trkpt lat="43.26961" lon="-0.42322">
        <ele>324.188</ele>
        <time>2010-09-19T09:19:22Z</time>
      </trkpt>
      <trkpt lat="43.2696" lon="-0.42324">
        <ele>324.314</ele>
        <time>2010-09-19T09:19:28Z</time>
      </trkpt>
      <trkpt lat="43.2696" lon="-0.42324">
        <ele>324.478</ele>
        <time>2010-09-19T09:19:33Z</time>
      </trkpt>
      <trkpt lat="43.2696" lon="-0.42325">
        <ele>324.51</ele>
        <time>2010-09-19T09:19:34Z</time>
      </trkpt>
      <trkpt lat="43.26955" lon="-0.4233">
        <ele>324.499</ele>
        <time>2010-09-19T09:19:41Z</time>
      </trkpt>
      <trkpt lat="43.26961" lon="-0.4232">
        <ele>324.193</ele>
        <time>2010-09-19T09:19:50Z</time>
      </trkpt>
      <trkpt lat="43.26963" lon="-0.42316">
        <ele>323.97</ele>
        <time>2010-09-19T09:19:56Z</time>
      </trkpt>
      <trkpt lat="43.26963" lon="-0.42316">
        <ele>323.993</ele>
        <time>2010-09-19T09:19:57Z</time>
      </trkpt>
      <trkpt lat="43.26966" lon="-0.42312">
        <ele>323.554</ele>
        <time>2010-09-19T09:20:03Z</time>
      </trkpt>
      <trkpt lat="43.26965" lon="-0.4231">
        <ele>323.449</ele>
        <time>2010-09-19T09:20:05Z</time>
      </trkpt>
      <trkpt lat="43.26965" lon="-0.4231">
        <ele>323.39</ele>
        <time>2010-09-19T09:20:08Z</time>
      </trkpt>
      <trkpt lat="43.26979" lon="-0.42305">
        <ele>323.157</ele>
        <time>2010-09-19T09:20:15Z</time>
      </trkpt>
      <trkpt lat="43.2698" lon="-0.42296">
        <ele>323.185</ele>
        <time>2010-09-19T09:20:36Z</time>
      </trkpt>
      <trkpt lat="43.26976" lon="-0.42294">
        <ele>322.95</ele>
        <time>2010-09-19T09:20:42Z</time>
      </trkpt>
      <trkpt lat="43.26983" lon="-0.4229">
        <ele>322.787</ele>
        <time>2010-09-19T09:20:47Z</time>
      </trkpt>
      <trkpt lat="43.26985" lon="-0.42291">
        <ele>322.714</ele>
        <time>2010-09-19T09:20:48Z</time>
      </trkpt>
      <trkpt lat="43.27" lon="-0.42299">
        <ele>322.897</ele>
        <time>2010-09-19T09:20:55Z</time>
      </trkpt>
      <trkpt lat="43.27016" lon="-0.42302">
        <ele>323.157</ele>
        <time>2010-09-19T09:21:01Z</time>
      </trkpt>
      <trkpt lat="43.2704" lon="-0.42309">
        <ele>323.221</ele>
        <time>2010-09-19T09:21:09Z</time>
      </trkpt>
      <trkpt lat="43.27069" lon="-0.4232">
        <ele>322.681</ele>
        <time>2010-09-19T09:21:17Z</time>
      </trkpt>
      <trkpt lat="43.27075" lon="-0.42323">
        <ele>322.145</ele>
        <time>2010-09-19T09:21:20Z</time>
      </trkpt>
      <trkpt lat="43.27086" lon="-0.42327">
        <ele>321.416</ele>
        <time>2010-09-19T09:21:26Z</time>
      </trkpt>
      <trkpt lat="43.27092" lon="-0.42331">
        <ele>320.83</ele>
        <time>2010-09-19T09:21:30Z</time>
      </trkpt>
      <trkpt lat="43.27109" lon="-0.42332">
        <ele>320.397</ele>
        <time>2010-09-19T09:21:34Z</time>
      </trkpt>
      <trkpt lat="43.27133" lon="-0.42338">
        <ele>319.315</ele>
        <time>2010-09-19T09:21:38Z</time>
      </trkpt>
      <trkpt lat="43.27173" lon="-0.42352">
        <ele>317.382</ele>
        <time>2010-09-19T09:21:46Z</time>
      </trkpt>
      <trkpt lat="43.27178" lon="-0.42355">
        <ele>317.209</ele>
        <time>2010-09-19T09:21:47Z</time>
      </trkpt>
      <trkpt lat="43.27199" lon="-0.42376">
        <ele>316.394</ele>
        <time>2010-09-19T09:21:52Z</time>
      </trkpt>
      <trkpt lat="43.27202" lon="-0.42381">
        <ele>316.227</ele>
        <time>2010-09-19T09:21:53Z</time>
      </trkpt>
      <trkpt lat="43.27229" lon="-0.42423">
        <ele>315.363</ele>
        <time>2010-09-19T09:22:00Z</time>
      </trkpt>
      <trkpt lat="43.27255" lon="-0.42454">
        <ele>315.079</ele>
        <time>2010-09-19T09:22:06Z</time>
      </trkpt>
      <trkpt lat="43.27264" lon="-0.42468">
        <ele>315.494</ele>
        <time>2010-09-19T09:22:10Z</time>
      </trkpt>
      <trkpt lat="43.27273" lon="-0.42483">
        <ele>315.629</ele>
        <time>2010-09-19T09:22:14Z</time>
      </trkpt>
      <trkpt lat="43.27291" lon="-0.42516">
        <ele>316.424</ele>
        <time>2010-09-19T09:22:21Z</time>
      </trkpt>
      <trkpt lat="43.27301" lon="-0.42534">
        <ele>316.836</ele>
        <time>2010-09-19T09:22:26Z</time>
      </trkpt>
      <trkpt lat="43.27316" lon="-0.42546">
        <ele>317.331</ele>
        <time>2010-09-19T09:22:31Z</time>
      </trkpt>
      <trkpt lat="43.2732" lon="-0.42546">
        <ele>317.396</ele>
        <time>2010-09-19T09:22:32Z</time>
      </trkpt>
      <trkpt lat="43.27351" lon="-0.42537">
        <ele>316.301</ele>
        <time>2010-09-19T09:22:38Z</time>
      </trkpt>
      <trkpt lat="43.27385" lon="-0.42527">
        <ele>314.275</ele>
        <time>2010-09-19T09:22:43Z</time>
      </trkpt>
      <trkpt lat="43.27393" lon="-0.42524">
        <ele>314.035</ele>
        <time>2010-09-19T09:22:44Z</time>
      </trkpt>
      <trkpt lat="43.27421" lon="-0.42526">
        <ele>312.807</ele>
        <time>2010-09-19T09:22:48Z</time>
      </trkpt>
      <trkpt lat="43.27427" lon="-0.42532">
        <ele>312.668</ele>
        <time>2010-09-19T09:22:49Z</time>
      </trkpt>
      <trkpt lat="43.27462" lon="-0.42571">
        <ele>311.43</ele>
        <time>2010-09-19T09:22:56Z</time>
      </trkpt>
      <trkpt lat="43.27484" lon="-0.42606">
        <ele>309.79</ele>
        <time>2010-09-19T09:23:01Z</time>
      </trkpt>
      <trkpt lat="43.27508" lon="-0.42649">
        <ele>305.448</ele>
        <time>2010-09-19T09:23:06Z</time>
      </trkpt>
      <trkpt lat="43.27536" lon="-0.42697">
        <ele>300.826</ele>
        <time>2010-09-19T09:23:11Z</time>
      </trkpt>
      <trkpt lat="43.27573" lon="-0.42769">
        <ele>294.819</ele>
        <time>2010-09-19T09:23:18Z</time>
      </trkpt>
      <trkpt lat="43.27579" lon="-0.4278">
        <ele>293.949</ele>
        <time>2010-09-19T09:23:19Z</time>
      </trkpt>
      <trkpt lat="43.27615" lon="-0.42815">
        <ele>290.355</ele>
        <time>2010-09-19T09:23:24Z</time>
      </trkpt>
      <trkpt lat="43.27638" lon="-0.42831">
        <ele>288.752</ele>
        <time>2010-09-19T09:23:27Z</time>
      </trkpt>
      <trkpt lat="43.27683" lon="-0.42871">
        <ele>286.572</ele>
        <time>2010-09-19T09:23:33Z</time>
      </trkpt>
      <trkpt lat="43.27733" lon="-0.42907">
        <ele>283.741</ele>
        <time>2010-09-19T09:23:39Z</time>
      </trkpt>
      <trkpt lat="43.27767" lon="-0.42925">
        <ele>282.241</ele>
        <time>2010-09-19T09:23:43Z</time>
      </trkpt>
      <trkpt lat="43.278" lon="-0.42957">
        <ele>280.983</ele>
        <time>2010-09-19T09:23:48Z</time>
      </trkpt>
      <trkpt lat="43.2783" lon="-0.42985">
        <ele>281.304</ele>
        <time>2010-09-19T09:23:53Z</time>
      </trkpt>
      <trkpt lat="43.27867" lon="-0.43004">
        <ele>282.177</ele>
        <time>2010-09-19T09:23:59Z</time>
      </trkpt>
      <trkpt lat="43.27905" lon="-0.43023">
        <ele>282.659</ele>
        <time>2010-09-19T09:24:06Z</time>
      </trkpt>
      <trkpt lat="43.27935" lon="-0.43046">
        <ele>282.517</ele>
        <time>2010-09-19T09:24:12Z</time>
      </trkpt>
      <trkpt lat="43.27976" lon="-0.43079">
        <ele>280.718</ele>
        <time>2010-09-19T09:24:20Z</time>
      </trkpt>
      <trkpt lat="43.28012" lon="-0.43115">
        <ele>278.475</ele>
        <time>2010-09-19T09:24:26Z</time>
      </trkpt>
      <trkpt lat="43.28054" lon="-0.4315">
        <ele>276.71</ele>
        <time>2010-09-19T09:24:33Z</time>
      </trkpt>
      <trkpt lat="43.28075" lon="-0.43163">
        <ele>274.887</ele>
        <time>2010-09-19T09:24:38Z</time>
      </trkpt>
      <trkpt lat="43.28077" lon="-0.43165">
        <ele>274.58</ele>
        <time>2010-09-19T09:24:39Z</time>
      </trkpt>
      <trkpt lat="43.28078" lon="-0.43171">
        <ele>274.336</ele>
        <time>2010-09-19T09:24:44Z</time>
      </trkpt>
      <trkpt lat="43.28076" lon="-0.43172">
        <ele>274.498</ele>
        <time>2010-09-19T09:24:48Z</time>
      </trkpt>
      <trkpt lat="43.28071" lon="-0.43178">
        <ele>275.31</ele>
        <time>2010-09-19T09:24:54Z</time>
      </trkpt>
      <trkpt lat="43.28064" lon="-0.43189">
        <ele>275.107</ele>
        <time>2010-09-19T09:24:57Z</time>
      </trkpt>
      <trkpt lat="43.28051" lon="-0.43224">
        <ele>272.281</ele>
        <time>2010-09-19T09:25:02Z</time>
      </trkpt>
      <trkpt lat="43.28041" lon="-0.43256">
        <ele>268.248</ele>
        <time>2010-09-19T09:25:06Z</time>
      </trkpt>
      <trkpt lat="43.28036" lon="-0.43282">
        <ele>263.983</ele>
        <time>2010-09-19T09:25:10Z</time>
      </trkpt>
      <trkpt lat="43.28023" lon="-0.43296">
        <ele>260.427</ele>
        <time>2010-09-19T09:25:14Z</time>
      </trkpt>
      <trkpt lat="43.2801" lon="-0.43298">
        <ele>259.339</ele>
        <time>2010-09-19T09:25:17Z</time>
      </trkpt>
      <trkpt lat="43.28001" lon="-0.43299">
        <ele>258.511</ele>
        <time>2010-09-19T09:25:19Z</time>
      </trkpt>
      <trkpt lat="43.27963" lon="-0.43308">
        <ele>252.069</ele>
        <time>2010-09-19T09:25:26Z</time>
      </trkpt>
      <trkpt lat="43.27939" lon="-0.433">
        <ele>248.533</ele>
        <time>2010-09-19T09:25:31Z</time>
      </trkpt>
      <trkpt lat="43.27929" lon="-0.43298">
        <ele>246.77</ele>
        <time>2010-09-19T09:25:34Z</time>
      </trkpt>
      <trkpt lat="43.27931" lon="-0.43309">
        <ele>245.366</ele>
        <time>2010-09-19T09:25:38Z</time>
      </trkpt>
      <trkpt lat="43.27934" lon="-0.43318">
        <ele>244.288</ele>
        <time>2010-09-19T09:25:40Z</time>
      </trkpt>
      <trkpt lat="43.27953" lon="-0.43354">
        <ele>237.193</ele>
        <time>2010-09-19T09:25:45Z</time>
      </trkpt>
      <trkpt lat="43.27961" lon="-0.43369">
        <ele>234.962</ele>
        <time>2010-09-19T09:25:47Z</time>
      </trkpt>
      <trkpt lat="43.27979" lon="-0.43404">
        <ele>228.763</ele>
        <time>2010-09-19T09:25:52Z</time>
      </trkpt>
      <trkpt lat="43.27981" lon="-0.43409">
        <ele>227.799</ele>
        <time>2010-09-19T09:25:53Z</time>
      </trkpt>
      <trkpt lat="43.27983" lon="-0.43415">
        <ele>225.973</ele>
        <time>2010-09-19T09:25:55Z</time>
      </trkpt>
      <trkpt lat="43.27966" lon="-0.43416">
        <ele>220.36</ele>
        <time>2010-09-19T09:25:59Z</time>
      </trkpt>
      <trkpt lat="43.27934" lon="-0.43414">
        <ele>211.67</ele>
        <time>2010-09-19T09:26:04Z</time>
      </trkpt>
      <trkpt lat="43.27928" lon="-0.43417">
        <ele>209.342</ele>
        <time>2010-09-19T09:26:06Z</time>
      </trkpt>
      <trkpt lat="43.27938" lon="-0.43442">
        <ele>204.906</ele>
        <time>2010-09-19T09:26:10Z</time>
      </trkpt>
      <trkpt lat="43.27943" lon="-0.4345">
        <ele>202.567</ele>
        <time>2010-09-19T09:26:11Z</time>
      </trkpt>
      <trkpt lat="43.27952" lon="-0.43466">
        <ele>197.886</ele>
        <time>2010-09-19T09:26:13Z</time>
      </trkpt>
      <trkpt lat="43.27964" lon="-0.43489">
        <ele>192.106</ele>
        <time>2010-09-19T09:26:17Z</time>
      </trkpt>
      <trkpt lat="43.27961" lon="-0.43489">
        <ele>189.816</ele>
        <time>2010-09-19T09:26:19Z</time>
      </trkpt>
      <trkpt lat="43.27944" lon="-0.43484">
        <ele>185.577</ele>
        <time>2010-09-19T09:26:24Z</time>
      </trkpt>
      <trkpt lat="43.27938" lon="-0.43484">
        <ele>184.926</ele>
        <time>2010-09-19T09:26:26Z</time>
      </trkpt>
      <trkpt lat="43.27927" lon="-0.4348">
        <ele>184.773</ele>
        <time>2010-09-19T09:26:30Z</time>
      </trkpt>
      <trkpt lat="43.27918" lon="-0.43471">
        <ele>185.459</ele>
        <time>2010-09-19T09:26:35Z</time>
      </trkpt>
      <trkpt lat="43.27915" lon="-0.43469">
        <ele>185.519</ele>
        <time>2010-09-19T09:26:36Z</time>
      </trkpt>
      <trkpt lat="43.27898" lon="-0.4346">
        <ele>186.06</ele>
        <time>2010-09-19T09:26:43Z</time>
      </trkpt>
      <trkpt lat="43.27884" lon="-0.43452">
        <ele>186.963</ele>
        <time>2010-09-19T09:26:49Z</time>
      </trkpt>
      <trkpt lat="43.27882" lon="-0.43449">
        <ele>187.499</ele>
        <time>2010-09-19T09:26:52Z</time>
      </trkpt>
      <trkpt lat="43.27879" lon="-0.43442">
        <ele>188.916</ele>
        <time>2010-09-19T09:26:58Z</time>
      </trkpt>
      <trkpt lat="43.27874" lon="-0.43437">
        <ele>190.04</ele>
        <time>2010-09-19T09:27:02Z</time>
      </trkpt>
      <trkpt lat="43.27861" lon="-0.4343">
        <ele>192.219</ele>
        <time>2010-09-19T09:27:09Z</time>
      </trkpt>
      <trkpt lat="43.27852" lon="-0.43421">
        <ele>193.805</ele>
        <time>2010-09-19T09:27:15Z</time>
      </trkpt>
      <trkpt lat="43.27848" lon="-0.43414">
        <ele>194.953</ele>
        <time>2010-09-19T09:27:20Z</time>
      </trkpt>
      <trkpt lat="43.27845" lon="-0.43414">
        <ele>195.089</ele>
        <time>2010-09-19T09:27:21Z</time>
      </trkpt>
      <trkpt lat="43.27844" lon="-0.43409">
        <ele>195.861</ele>
        <time>2010-09-19T09:27:24Z</time>
      </trkpt>
      <trkpt lat="43.27833" lon="-0.43405">
        <ele>197.072</ele>
        <time>2010-09-19T09:27:29Z</time>
      </trkpt>
      <trkpt lat="43.27815" lon="-0.43399">
        <ele>199.561</ele>
        <time>2010-09-19T09:27:37Z</time>
      </trkpt>
      <trkpt lat="43.27809" lon="-0.43397">
        <ele>200.73</ele>
        <time>2010-09-19T09:27:42Z</time>
      </trkpt>
      <trkpt lat="43.27805" lon="-0.43394">
        <ele>202.024</ele>
        <time>2010-09-19T09:27:47Z</time>
      </trkpt>
      <trkpt lat="43.27798" lon="-0.43391">
        <ele>203.595</ele>
        <time>2010-09-19T09:27:53Z</time>
      </trkpt>
      <trkpt lat="43.27796" lon="-0.43387">
        <ele>204.686</ele>
        <time>2010-09-19T09:27:58Z</time>
      </trkpt>
      <trkpt lat="43.27793" lon="-0.43386">
        <ele>205.657</ele>
        <time>2010-09-19T09:28:03Z</time>
      </trkpt>
      <trkpt lat="43.27786" lon="-0.43381">
        <ele>206.729</ele>
        <time>2010-09-19T09:28:09Z</time>
      </trkpt>
      <trkpt lat="43.27778" lon="-0.43373">
        <ele>207.755</ele>
        <time>2010-09-19T09:28:16Z</time>
      </trkpt>
      <trkpt lat="43.27767" lon="-0.43367">
        <ele>208.874</ele>
        <time>2010-09-19T09:28:23Z</time>
      </trkpt>
      <trkpt lat="43.27763" lon="-0.43365">
        <ele>209.731</ele>
        <time>2010-09-19T09:28:27Z</time>
      </trkpt>
      <trkpt lat="43.27761" lon="-0.43359">
        <ele>211.469</ele>
        <time>2010-09-19T09:28:35Z</time>
      </trkpt>
      <trkpt lat="43.27763" lon="-0.4336">
        <ele>211.97</ele>
        <time>2010-09-19T09:28:37Z</time>
      </trkpt>
      <trkpt lat="43.27764" lon="-0.43367">
        <ele>212.992</ele>
        <time>2010-09-19T09:28:43Z</time>
      </trkpt>
      <trkpt lat="43.27765" lon="-0.43371">
        <ele>213.273</ele>
        <time>2010-09-19T09:28:46Z</time>
      </trkpt>
      <trkpt lat="43.27771" lon="-0.43376">
        <ele>214.732</ele>
        <time>2010-09-19T09:28:53Z</time>
      </trkpt>
      <trkpt lat="43.27772" lon="-0.43377">
        <ele>214.935</ele>
        <time>2010-09-19T09:28:54Z</time>
      </trkpt>
      <trkpt lat="43.27778" lon="-0.43381">
        <ele>215.544</ele>
        <time>2010-09-19T09:28:58Z</time>
      </trkpt>
      <trkpt lat="43.27786" lon="-0.4339">
        <ele>216.994</ele>
        <time>2010-09-19T09:29:06Z</time>
      </trkpt>
      <trkpt lat="43.27792" lon="-0.43399">
        <ele>218.314</ele>
        <time>2010-09-19T09:29:13Z</time>
      </trkpt>
      <trkpt lat="43.27795" lon="-0.43406">
        <ele>219.432</ele>
        <time>2010-09-19T09:29:18Z</time>
      </trkpt>
      <trkpt lat="43.278" lon="-0.4341">
        <ele>220.636</ele>
        <time>2010-09-19T09:29:24Z</time>
      </trkpt>
      <trkpt lat="43.27793" lon="-0.43408">
        <ele>221.144</ele>
        <time>2010-09-19T09:29:28Z</time>
      </trkpt>
      <trkpt lat="43.27775" lon="-0.43403">
        <ele>222.709</ele>
        <time>2010-09-19T09:29:36Z</time>
      </trkpt>
      <trkpt lat="43.27765" lon="-0.434">
        <ele>224.117</ele>
        <time>2010-09-19T09:29:43Z</time>
      </trkpt>
      <trkpt lat="43.2776" lon="-0.43399">
        <ele>225.179</ele>
        <time>2010-09-19T09:29:48Z</time>
      </trkpt>
      <trkpt lat="43.27754" lon="-0.43398">
        <ele>226.601</ele>
        <time>2010-09-19T09:29:55Z</time>
      </trkpt>
      <trkpt lat="43.27745" lon="-0.43395">
        <ele>228.11</ele>
        <time>2010-09-19T09:30:04Z</time>
      </trkpt>
      <trkpt lat="43.27736" lon="-0.43391">
        <ele>229.756</ele>
        <time>2010-09-19T09:30:13Z</time>
      </trkpt>
      <trkpt lat="43.27732" lon="-0.43389">
        <ele>230.75</ele>
        <time>2010-09-19T09:30:19Z</time>
      </trkpt>
      <trkpt lat="43.27728" lon="-0.43383">
        <ele>232.512</ele>
        <time>2010-09-19T09:30:27Z</time>
      </trkpt>
      <trkpt lat="43.27723" lon="-0.43377">
        <ele>233.908</ele>
        <time>2010-09-19T09:30:34Z</time>
      </trkpt>
      <trkpt lat="43.27709" lon="-0.43371">
        <ele>235.312</ele>
        <time>2010-09-19T09:30:41Z</time>
      </trkpt>
      <trkpt lat="43.27703" lon="-0.43368">
        <ele>236.84</ele>
        <time>2010-09-19T09:30:48Z</time>
      </trkpt>
      <trkpt lat="43.27702" lon="-0.43368">
        <ele>237.148</ele>
        <time>2010-09-19T09:30:49Z</time>
      </trkpt>
      <trkpt lat="43.277" lon="-0.43372">
        <ele>237.925</ele>
        <time>2010-09-19T09:30:53Z</time>
      </trkpt>
      <trkpt lat="43.27702" lon="-0.43381">
        <ele>239.475</ele>
        <time>2010-09-19T09:31:00Z</time>
      </trkpt>
      <trkpt lat="43.27703" lon="-0.43383">
        <ele>240.012</ele>
        <time>2010-09-19T09:31:02Z</time>
      </trkpt>
      <trkpt lat="43.27708" lon="-0.43392">
        <ele>241.654</ele>
        <time>2010-09-19T09:31:10Z</time>
      </trkpt>
      <trkpt lat="43.27708" lon="-0.43398">
        <ele>242.642</ele>
        <time>2010-09-19T09:31:14Z</time>
      </trkpt>
      <trkpt lat="43.27711" lon="-0.43406">
        <ele>243.806</ele>
        <time>2010-09-19T09:31:20Z</time>
      </trkpt>
      <trkpt lat="43.27714" lon="-0.4341">
        <ele>244.428</ele>
        <time>2010-09-19T09:31:24Z</time>
      </trkpt>
      <trkpt lat="43.27717" lon="-0.43417">
        <ele>245.762</ele>
        <time>2010-09-19T09:31:31Z</time>
      </trkpt>
      <trkpt lat="43.2772" lon="-0.43421">
        <ele>246.312</ele>
        <time>2010-09-19T09:31:35Z</time>
      </trkpt>
      <trkpt lat="43.27726" lon="-0.43426">
        <ele>246.941</ele>
        <time>2010-09-19T09:31:40Z</time>
      </trkpt>
      <trkpt lat="43.27736" lon="-0.43435">
        <ele>247.873</ele>
        <time>2010-09-19T09:31:48Z</time>
      </trkpt>
      <trkpt lat="43.27744" lon="-0.43447">
        <ele>248.658</ele>
        <time>2010-09-19T09:31:54Z</time>
      </trkpt>
      <trkpt lat="43.27749" lon="-0.43453">
        <ele>248.646</ele>
        <time>2010-09-19T09:31:56Z</time>
      </trkpt>
      <trkpt lat="43.2776" lon="-0.43471">
        <ele>248.326</ele>
        <time>2010-09-19T09:32:01Z</time>
      </trkpt>
      <trkpt lat="43.27768" lon="-0.4348">
        <ele>247.794</ele>
        <time>2010-09-19T09:32:03Z</time>
      </trkpt>
      <trkpt lat="43.27791" lon="-0.43506">
        <ele>247.112</ele>
        <time>2010-09-19T09:32:09Z</time>
      </trkpt>
      <trkpt lat="43.27817" lon="-0.43537">
        <ele>246.994</ele>
        <time>2010-09-19T09:32:17Z</time>
      </trkpt>
      <trkpt lat="43.27824" lon="-0.43547">
        <ele>247.197</ele>
        <time>2010-09-19T09:32:21Z</time>
      </trkpt>
      <trkpt lat="43.27825" lon="-0.43548">
        <ele>246.895</ele>
        <time>2010-09-19T09:32:24Z</time>
      </trkpt>
      <trkpt lat="43.27828" lon="-0.43549">
        <ele>246.749</ele>
        <time>2010-09-19T09:32:31Z</time>
      </trkpt>
      <trkpt lat="43.27826" lon="-0.43549">
        <ele>246.598</ele>
        <time>2010-09-19T09:32:51Z</time>
      </trkpt>
      <trkpt lat="43.27826" lon="-0.4355">
        <ele>246.741</ele>
        <time>2010-09-19T09:33:06Z</time>
      </trkpt>
      <trkpt lat="43.27826" lon="-0.43553">
        <ele>246.79</ele>
        <time>2010-09-19T09:33:09Z</time>
      </trkpt>
      <trkpt lat="43.27821" lon="-0.43561">
        <ele>249.084</ele>
        <time>2010-09-19T09:33:15Z</time>
      </trkpt>
      <trkpt lat="43.27809" lon="-0.4356">
        <ele>250.672</ele>
        <time>2010-09-19T09:33:23Z</time>
      </trkpt>
      <trkpt lat="43.27799" lon="-0.43557">
        <ele>252.659</ele>
        <time>2010-09-19T09:33:30Z</time>
      </trkpt>
      <trkpt lat="43.27791" lon="-0.43553">
        <ele>254.656</ele>
        <time>2010-09-19T09:33:36Z</time>
      </trkpt>
      <trkpt lat="43.27782" lon="-0.43548">
        <ele>256.219</ele>
        <time>2010-09-19T09:33:45Z</time>
      </trkpt>
      <trkpt lat="43.27779" lon="-0.43547">
        <ele>256.559</ele>
        <time>2010-09-19T09:33:48Z</time>
      </trkpt>
      <trkpt lat="43.27774" lon="-0.43544">
        <ele>257.368</ele>
        <time>2010-09-19T09:33:54Z</time>
      </trkpt>
      <trkpt lat="43.27767" lon="-0.43543">
        <ele>258.499</ele>
        <time>2010-09-19T09:34:02Z</time>
      </trkpt>
      <trkpt lat="43.27759" lon="-0.4354">
        <ele>259.664</ele>
        <time>2010-09-19T09:34:10Z</time>
      </trkpt>
      <trkpt lat="43.27754" lon="-0.43538">
        <ele>260.608</ele>
        <time>2010-09-19T09:34:16Z</time>
      </trkpt>
      <trkpt lat="43.27746" lon="-0.43534">
        <ele>262.131</ele>
        <time>2010-09-19T09:34:25Z</time>
      </trkpt>
      <trkpt lat="43.27743" lon="-0.43533">
        <ele>262.482</ele>
        <time>2010-09-19T09:34:28Z</time>
      </trkpt>
      <trkpt lat="43.27738" lon="-0.43532">
        <ele>263.272</ele>
        <time>2010-09-19T09:34:31Z</time>
      </trkpt>
      <trkpt lat="43.27727" lon="-0.43527">
        <ele>264.296</ele>
        <time>2010-09-19T09:34:40Z</time>
      </trkpt>
      <trkpt lat="43.2772" lon="-0.43523">
        <ele>265.25</ele>
        <time>2010-09-19T09:34:47Z</time>
      </trkpt>
      <trkpt lat="43.27716" lon="-0.43519">
        <ele>266.072</ele>
        <time>2010-09-19T09:34:53Z</time>
      </trkpt>
      <trkpt lat="43.27713" lon="-0.43517">
        <ele>266.405</ele>
        <time>2010-09-19T09:34:57Z</time>
      </trkpt>
      <trkpt lat="43.2771" lon="-0.43512">
        <ele>267.321</ele>
        <time>2010-09-19T09:35:01Z</time>
      </trkpt>
      <trkpt lat="43.27705" lon="-0.43508">
        <ele>267.768</ele>
        <time>2010-09-19T09:35:05Z</time>
      </trkpt>
      <trkpt lat="43.27696" lon="-0.43501">
        <ele>269.196</ele>
        <time>2010-09-19T09:35:13Z</time>
      </trkpt>
      <trkpt lat="43.27687" lon="-0.43497">
        <ele>269.906</ele>
        <time>2010-09-19T09:35:19Z</time>
      </trkpt>
      <trkpt lat="43.27674" lon="-0.43495">
        <ele>271.057</ele>
        <time>2010-09-19T09:35:27Z</time>
      </trkpt>
      <trkpt lat="43.27668" lon="-0.43494">
        <ele>271.689</ele>
        <time>2010-09-19T09:35:31Z</time>
      </trkpt>
      <trkpt lat="43.2766" lon="-0.4349">
        <ele>272.586</ele>
        <time>2010-09-19T09:35:37Z</time>
      </trkpt>
      <trkpt lat="43.27658" lon="-0.4349">
        <ele>272.675</ele>
        <time>2010-09-19T09:35:38Z</time>
      </trkpt>
      <trkpt lat="43.2765" lon="-0.43486">
        <ele>273.428</ele>
        <time>2010-09-19T09:35:44Z</time>
      </trkpt>
      <trkpt lat="43.2764" lon="-0.43481">
        <ele>274.481</ele>
        <time>2010-09-19T09:35:51Z</time>
      </trkpt>
      <trkpt lat="43.27637" lon="-0.43479">
        <ele>274.815</ele>
        <time>2010-09-19T09:35:54Z</time>
      </trkpt>
      <trkpt lat="43.27628" lon="-0.43472">
        <ele>275.805</ele>
        <time>2010-09-19T09:36:00Z</time>
      </trkpt>
      <trkpt lat="43.27623" lon="-0.43467">
        <ele>276.126</ele>
        <time>2010-09-19T09:36:04Z</time>
      </trkpt>
      <trkpt lat="43.27612" lon="-0.43456">
        <ele>277.053</ele>
        <time>2010-09-19T09:36:12Z</time>
      </trkpt>
      <trkpt lat="43.27605" lon="-0.43449">
        <ele>277.712</ele>
        <time>2010-09-19T09:36:18Z</time>
      </trkpt>
      <trkpt lat="43.27603" lon="-0.43448">
        <ele>277.827</ele>
        <time>2010-09-19T09:36:19Z</time>
      </trkpt>
      <trkpt lat="43.27592" lon="-0.43438">
        <ele>278.862</ele>
        <time>2010-09-19T09:36:27Z</time>
      </trkpt>
      <trkpt lat="43.27583" lon="-0.43429">
        <ele>279.408</ele>
        <time>2010-09-19T09:36:33Z</time>
      </trkpt>
      <trkpt lat="43.2757" lon="-0.43414">
        <ele>280.371</ele>
        <time>2010-09-19T09:36:39Z</time>
      </trkpt>
      <trkpt lat="43.27561" lon="-0.43403">
        <ele>280.961</ele>
        <time>2010-09-19T09:36:44Z</time>
      </trkpt>
      <trkpt lat="43.27551" lon="-0.43398">
        <ele>282.469</ele>
        <time>2010-09-19T09:36:49Z</time>
      </trkpt>
      <trkpt lat="43.27542" lon="-0.43387">
        <ele>283.579</ele>
        <time>2010-09-19T09:36:55Z</time>
      </trkpt>
      <trkpt lat="43.27532" lon="-0.43376">
        <ele>284.44</ele>
        <time>2010-09-19T09:37:00Z</time>
      </trkpt>
      <trkpt lat="43.27525" lon="-0.43368">
        <ele>285.264</ele>
        <time>2010-09-19T09:37:06Z</time>
      </trkpt>
      <trkpt lat="43.27518" lon="-0.43358">
        <ele>286.44</ele>
        <time>2010-09-19T09:37:12Z</time>
      </trkpt>
      <trkpt lat="43.2751" lon="-0.43349">
        <ele>287.784</ele>
        <time>2010-09-19T09:37:18Z</time>
      </trkpt>
      <trkpt lat="43.27501" lon="-0.4334">
        <ele>289.322</ele>
        <time>2010-09-19T09:37:26Z</time>
      </trkpt>
      <trkpt lat="43.27497" lon="-0.43336">
        <ele>290.089</ele>
        <time>2010-09-19T09:37:30Z</time>
      </trkpt>
      <trkpt lat="43.27495" lon="-0.43335">
        <ele>290.378</ele>
        <time>2010-09-19T09:37:32Z</time>
      </trkpt>
      <trkpt lat="43.27487" lon="-0.4334">
        <ele>290.523</ele>
        <time>2010-09-19T09:37:38Z</time>
      </trkpt>
      <trkpt lat="43.2748" lon="-0.43338">
        <ele>290.137</ele>
        <time>2010-09-19T09:37:42Z</time>
      </trkpt>
      <trkpt lat="43.27478" lon="-0.43335">
        <ele>290.215</ele>
        <time>2010-09-19T09:37:43Z</time>
      </trkpt>
      <trkpt lat="43.27472" lon="-0.43316">
        <ele>291.022</ele>
        <time>2010-09-19T09:37:50Z</time>
      </trkpt>
      <trkpt lat="43.27468" lon="-0.43302">
        <ele>291.701</ele>
        <time>2010-09-19T09:37:56Z</time>
      </trkpt>
      <trkpt lat="43.27461" lon="-0.43289">
        <ele>292.11</ele>
        <time>2010-09-19T09:38:02Z</time>
      </trkpt>
      <trkpt lat="43.27453" lon="-0.43273">
        <ele>293.068</ele>
        <time>2010-09-19T09:38:09Z</time>
      </trkpt>
      <trkpt lat="43.27444" lon="-0.4325">
        <ele>294.495</ele>
        <time>2010-09-19T09:38:16Z</time>
      </trkpt>
      <trkpt lat="43.2743" lon="-0.43232">
        <ele>295.445</ele>
        <time>2010-09-19T09:38:23Z</time>
      </trkpt>
      <trkpt lat="43.27413" lon="-0.43216">
        <ele>296.181</ele>
        <time>2010-09-19T09:38:30Z</time>
      </trkpt>
      <trkpt lat="43.27397" lon="-0.43202">
        <ele>296.5</ele>
        <time>2010-09-19T09:38:36Z</time>
      </trkpt>
      <trkpt lat="43.27383" lon="-0.43192">
        <ele>295.84</ele>
        <time>2010-09-19T09:38:42Z</time>
      </trkpt>
      <trkpt lat="43.27377" lon="-0.43187">
        <ele>295.237</ele>
        <time>2010-09-19T09:38:44Z</time>
      </trkpt>
      <trkpt lat="43.27363" lon="-0.43172">
        <ele>293.913</ele>
        <time>2010-09-19T09:38:48Z</time>
      </trkpt>
      <trkpt lat="43.2736" lon="-0.43167">
        <ele>293.394</ele>
        <time>2010-09-19T09:38:49Z</time>
      </trkpt>
      <trkpt lat="43.27356" lon="-0.43158">
        <ele>292.529</ele>
        <time>2010-09-19T09:38:51Z</time>
      </trkpt>
      <trkpt lat="43.27356" lon="-0.43135">
        <ele>292.703</ele>
        <time>2010-09-19T09:38:56Z</time>
      </trkpt>
      <trkpt lat="43.27356" lon="-0.43102">
        <ele>293.647</ele>
        <time>2010-09-19T09:39:02Z</time>
      </trkpt>
      <trkpt lat="43.27356" lon="-0.43078">
        <ele>294.226</ele>
        <time>2010-09-19T09:39:06Z</time>
      </trkpt>
      <trkpt lat="43.27354" lon="-0.43048">
        <ele>294.464</ele>
        <time>2010-09-19T09:39:11Z</time>
      </trkpt>
      <trkpt lat="43.27354" lon="-0.4303">
        <ele>294.561</ele>
        <time>2010-09-19T09:39:14Z</time>
      </trkpt>
      <trkpt lat="43.27352" lon="-0.43002">
        <ele>294.363</ele>
        <time>2010-09-19T09:39:19Z</time>
      </trkpt>
      <trkpt lat="43.27351" lon="-0.42993">
        <ele>294.091</ele>
        <time>2010-09-19T09:39:21Z</time>
      </trkpt>
      <trkpt lat="43.2735" lon="-0.42962">
        <ele>294.088</ele>
        <time>2010-09-19T09:39:27Z</time>
      </trkpt>
      <trkpt lat="43.27342" lon="-0.42933">
        <ele>295.181</ele>
        <time>2010-09-19T09:39:33Z</time>
      </trkpt>
      <trkpt lat="43.27339" lon="-0.42912">
        <ele>296.42</ele>
        <time>2010-09-19T09:39:38Z</time>
      </trkpt>
      <trkpt lat="43.27335" lon="-0.4288">
        <ele>298.068</ele>
        <time>2010-09-19T09:39:47Z</time>
      </trkpt>
      <trkpt lat="43.27331" lon="-0.42864">
        <ele>298.561</ele>
        <time>2010-09-19T09:39:52Z</time>
      </trkpt>
      <trkpt lat="43.27322" lon="-0.42833">
        <ele>299.411</ele>
        <time>2010-09-19T09:40:01Z</time>
      </trkpt>
      <trkpt lat="43.27317" lon="-0.42818">
        <ele>299.84</ele>
        <time>2010-09-19T09:40:06Z</time>
      </trkpt>
      <trkpt lat="43.2731" lon="-0.42806">
        <ele>300.511</ele>
        <time>2010-09-19T09:40:11Z</time>
      </trkpt>
      <trkpt lat="43.27304" lon="-0.42795">
        <ele>301.413</ele>
        <time>2010-09-19T09:40:16Z</time>
      </trkpt>
      <trkpt lat="43.27297" lon="-0.42786">
        <ele>302.542</ele>
        <time>2010-09-19T09:40:21Z</time>
      </trkpt>
      <trkpt lat="43.27291" lon="-0.42769">
        <ele>305.212</ele>
        <time>2010-09-19T09:40:30Z</time>
      </trkpt>
      <trkpt lat="43.27287" lon="-0.42757">
        <ele>306.758</ele>
        <time>2010-09-19T09:40:38Z</time>
      </trkpt>
      <trkpt lat="43.27289" lon="-0.42746">
        <ele>308.28</ele>
        <time>2010-09-19T09:40:45Z</time>
      </trkpt>
      <trkpt lat="43.27291" lon="-0.42739">
        <ele>309.249</ele>
        <time>2010-09-19T09:40:50Z</time>
      </trkpt>
      <trkpt lat="43.27294" lon="-0.4273">
        <ele>310.934</ele>
        <time>2010-09-19T09:40:57Z</time>
      </trkpt>
      <trkpt lat="43.273" lon="-0.42718">
        <ele>312.696</ele>
        <time>2010-09-19T09:41:06Z</time>
      </trkpt>
      <trkpt lat="43.27303" lon="-0.42712">
        <ele>313.8</ele>
        <time>2010-09-19T09:41:11Z</time>
      </trkpt>
      <trkpt lat="43.27305" lon="-0.42709">
        <ele>314.57</ele>
        <time>2010-09-19T09:41:15Z</time>
      </trkpt>
      <trkpt lat="43.27308" lon="-0.42699">
        <ele>315.879</ele>
        <time>2010-09-19T09:41:22Z</time>
      </trkpt>
      <trkpt lat="43.27313" lon="-0.42695">
        <ele>316.663</ele>
        <time>2010-09-19T09:41:27Z</time>
      </trkpt>
      <trkpt lat="43.27319" lon="-0.4269">
        <ele>317.583</ele>
        <time>2010-09-19T09:41:34Z</time>
      </trkpt>
      <trkpt lat="43.27316" lon="-0.4268">
        <ele>318.694</ele>
        <time>2010-09-19T09:41:40Z</time>
      </trkpt>
      <trkpt lat="43.27315" lon="-0.42679">
        <ele>318.875</ele>
        <time>2010-09-19T09:41:41Z</time>
      </trkpt>
      <trkpt lat="43.27313" lon="-0.42676">
        <ele>318.882</ele>
        <time>2010-09-19T09:41:43Z</time>
      </trkpt>
      <trkpt lat="43.27305" lon="-0.42663">
        <ele>319.101</ele>
        <time>2010-09-19T09:41:50Z</time>
      </trkpt>
      <trkpt lat="43.27293" lon="-0.42636">
        <ele>319.137</ele>
        <time>2010-09-19T09:42:01Z</time>
      </trkpt>
      <trkpt lat="43.27282" lon="-0.42607">
        <ele>319.12</ele>
        <time>2010-09-19T09:42:11Z</time>
      </trkpt>
      <trkpt lat="43.27273" lon="-0.42589">
        <ele>318.339</ele>
        <time>2010-09-19T09:42:16Z</time>
      </trkpt>
      <trkpt lat="43.27257" lon="-0.42548">
        <ele>316.59</ele>
        <time>2010-09-19T09:42:24Z</time>
      </trkpt>
      <trkpt lat="43.27252" lon="-0.42536">
        <ele>316.306</ele>
        <time>2010-09-19T09:42:26Z</time>
      </trkpt>
      <trkpt lat="43.27241" lon="-0.42507">
        <ele>315.573</ele>
        <time>2010-09-19T09:42:32Z</time>
      </trkpt>
      <trkpt lat="43.27225" lon="-0.42476">
        <ele>315.581</ele>
        <time>2010-09-19T09:42:39Z</time>
      </trkpt>
      <trkpt lat="43.27206" lon="-0.42441">
        <ele>315.444</ele>
        <time>2010-09-19T09:42:48Z</time>
      </trkpt>
      <trkpt lat="43.27193" lon="-0.42423">
        <ele>315.721</ele>
        <time>2010-09-19T09:42:54Z</time>
      </trkpt>
      <trkpt lat="43.27186" lon="-0.42418">
        <ele>315.629</ele>
        <time>2010-09-19T09:42:56Z</time>
      </trkpt>
      <trkpt lat="43.27158" lon="-0.42412">
        <ele>314.208</ele>
        <time>2010-09-19T09:43:02Z</time>
      </trkpt>
      <trkpt lat="43.27135" lon="-0.42413">
        <ele>313.69</ele>
        <time>2010-09-19T09:43:07Z</time>
      </trkpt>
      <trkpt lat="43.27117" lon="-0.42416">
        <ele>314.61</ele>
        <time>2010-09-19T09:43:13Z</time>
      </trkpt>
      <trkpt lat="43.27106" lon="-0.42419">
        <ele>315.162</ele>
        <time>2010-09-19T09:43:18Z</time>
      </trkpt>
      <trkpt lat="43.27093" lon="-0.42438">
        <ele>314.827</ele>
        <time>2010-09-19T09:43:24Z</time>
      </trkpt>
      <trkpt lat="43.2707" lon="-0.42469">
        <ele>313.635</ele>
        <time>2010-09-19T09:43:32Z</time>
      </trkpt>
      <trkpt lat="43.27048" lon="-0.42501">
        <ele>313.021</ele>
        <time>2010-09-19T09:43:40Z</time>
      </trkpt>
      <trkpt lat="43.27034" lon="-0.42516">
        <ele>312.742</ele>
        <time>2010-09-19T09:43:46Z</time>
      </trkpt>
      <trkpt lat="43.27029" lon="-0.42525">
        <ele>312.392</ele>
        <time>2010-09-19T09:43:48Z</time>
      </trkpt>
      <trkpt lat="43.27019" lon="-0.42555">
        <ele>309.248</ele>
        <time>2010-09-19T09:43:52Z</time>
      </trkpt>
      <trkpt lat="43.27013" lon="-0.42582">
        <ele>303.291</ele>
        <time>2010-09-19T09:43:55Z</time>
      </trkpt>
      <trkpt lat="43.27" lon="-0.426">
        <ele>298.691</ele>
        <time>2010-09-19T09:43:59Z</time>
      </trkpt>
      <trkpt lat="43.2697" lon="-0.42608">
        <ele>292.717</ele>
        <time>2010-09-19T09:44:04Z</time>
      </trkpt>
      <trkpt lat="43.26953" lon="-0.42591">
        <ele>290.04</ele>
        <time>2010-09-19T09:44:07Z</time>
      </trkpt>
      <trkpt lat="43.26931" lon="-0.42564">
        <ele>286.702</ele>
        <time>2010-09-19T09:44:11Z</time>
      </trkpt>
      <trkpt lat="43.26919" lon="-0.42547">
        <ele>285.16</ele>
        <time>2010-09-19T09:44:14Z</time>
      </trkpt>
      <trkpt lat="43.26913" lon="-0.42535">
        <ele>284.452</ele>
        <time>2010-09-19T09:44:16Z</time>
      </trkpt>
      <trkpt lat="43.26903" lon="-0.42518">
        <ele>284.909</ele>
        <time>2010-09-19T09:44:20Z</time>
      </trkpt>
      <trkpt lat="43.26886" lon="-0.42504">
        <ele>285.936</ele>
        <time>2010-09-19T09:44:26Z</time>
      </trkpt>
      <trkpt lat="43.26871" lon="-0.42494">
        <ele>287.325</ele>
        <time>2010-09-19T09:44:32Z</time>
      </trkpt>
      <trkpt lat="43.26867" lon="-0.42493">
        <ele>287.735</ele>
        <time>2010-09-19T09:44:34Z</time>
      </trkpt>
      <trkpt lat="43.26856" lon="-0.42499">
        <ele>287.298</ele>
        <time>2010-09-19T09:44:38Z</time>
      </trkpt>
      <trkpt lat="43.2685" lon="-0.425">
        <ele>286.813</ele>
        <time>2010-09-19T09:44:39Z</time>
      </trkpt>
      <trkpt lat="43.26822" lon="-0.42497">
        <ele>281.737</ele>
        <time>2010-09-19T09:44:44Z</time>
      </trkpt>
      <trkpt lat="43.268" lon="-0.42482">
        <ele>278.622</ele>
        <time>2010-09-19T09:44:49Z</time>
      </trkpt>
      <trkpt lat="43.26788" lon="-0.42468">
        <ele>277.822</ele>
        <time>2010-09-19T09:44:53Z</time>
      </trkpt>
      <trkpt lat="43.26773" lon="-0.42453">
        <ele>274.997</ele>
        <time>2010-09-19T09:44:57Z</time>
      </trkpt>
      <trkpt lat="43.26756" lon="-0.42443">
        <ele>271.164</ele>
        <time>2010-09-19T09:45:01Z</time>
      </trkpt>
      <trkpt lat="43.26751" lon="-0.42454">
        <ele>268.675</ele>
        <time>2010-09-19T09:45:04Z</time>
      </trkpt>
      <trkpt lat="43.26755" lon="-0.4249">
        <ele>260.497</ele>
        <time>2010-09-19T09:45:10Z</time>
      </trkpt>
      <trkpt lat="43.26754" lon="-0.42525">
        <ele>252.09</ele>
        <time>2010-09-19T09:45:16Z</time>
      </trkpt>
      <trkpt lat="43.26747" lon="-0.42533">
        <ele>251.473</ele>
        <time>2010-09-19T09:45:18Z</time>
      </trkpt>
      <trkpt lat="43.26738" lon="-0.42546">
        <ele>252.432</ele>
        <time>2010-09-19T09:45:22Z</time>
      </trkpt>
      <trkpt lat="43.2674" lon="-0.42565">
        <ele>253.867</ele>
        <time>2010-09-19T09:45:28Z</time>
      </trkpt>
      <trkpt lat="43.26745" lon="-0.42581">
        <ele>254.716</ele>
        <time>2010-09-19T09:45:34Z</time>
      </trkpt>
      <trkpt lat="43.26745" lon="-0.426">
        <ele>255.652</ele>
        <time>2010-09-19T09:45:40Z</time>
      </trkpt>
      <trkpt lat="43.26745" lon="-0.42622">
        <ele>256.631</ele>
        <time>2010-09-19T09:45:48Z</time>
      </trkpt>
      <trkpt lat="43.26746" lon="-0.42638">
        <ele>257.476</ele>
        <time>2010-09-19T09:45:54Z</time>
      </trkpt>
      <trkpt lat="43.26744" lon="-0.42655">
        <ele>258.755</ele>
        <time>2010-09-19T09:46:01Z</time>
      </trkpt>
      <trkpt lat="43.26737" lon="-0.42678">
        <ele>260.131</ele>
        <time>2010-09-19T09:46:10Z</time>
      </trkpt>
      <trkpt lat="43.26728" lon="-0.42694">
        <ele>260.834</ele>
        <time>2010-09-19T09:46:17Z</time>
      </trkpt>
      <trkpt lat="43.26723" lon="-0.42713">
        <ele>261.517</ele>
        <time>2010-09-19T09:46:24Z</time>
      </trkpt>
      <trkpt lat="43.26728" lon="-0.4273">
        <ele>262.719</ele>
        <time>2010-09-19T09:46:31Z</time>
      </trkpt>
      <trkpt lat="43.26736" lon="-0.42748">
        <ele>264.006</ele>
        <time>2010-09-19T09:46:39Z</time>
      </trkpt>
      <trkpt lat="43.26743" lon="-0.4277">
        <ele>265.314</ele>
        <time>2010-09-19T09:46:48Z</time>
      </trkpt>
      <trkpt lat="43.26748" lon="-0.42793">
        <ele>266.603</ele>
        <time>2010-09-19T09:46:57Z</time>
      </trkpt>
      <trkpt lat="43.26751" lon="-0.42819">
        <ele>268.058</ele>
        <time>2010-09-19T09:47:07Z</time>
      </trkpt>
      <trkpt lat="43.26753" lon="-0.42839">
        <ele>269.229</ele>
        <time>2010-09-19T09:47:15Z</time>
      </trkpt>
      <trkpt lat="43.26756" lon="-0.42863">
        <ele>270.96</ele>
        <time>2010-09-19T09:47:24Z</time>
      </trkpt>
      <trkpt lat="43.2676" lon="-0.42884">
        <ele>271.919</ele>
        <time>2010-09-19T09:47:32Z</time>
      </trkpt>
      <trkpt lat="43.26763" lon="-0.42903">
        <ele>272.923</ele>
        <time>2010-09-19T09:47:39Z</time>
      </trkpt>
      <trkpt lat="43.26767" lon="-0.42928">
        <ele>274.368</ele>
        <time>2010-09-19T09:47:48Z</time>
      </trkpt>
      <trkpt lat="43.2677" lon="-0.4295">
        <ele>275.651</ele>
        <time>2010-09-19T09:47:56Z</time>
      </trkpt>
      <trkpt lat="43.26768" lon="-0.42963">
        <ele>276.87</ele>
        <time>2010-09-19T09:48:02Z</time>
      </trkpt>
      <trkpt lat="43.2677" lon="-0.42973">
        <ele>276.875</ele>
        <time>2010-09-19T09:48:06Z</time>
      </trkpt>
      <trkpt lat="43.26771" lon="-0.42983">
        <ele>276.346</ele>
        <time>2010-09-19T09:48:10Z</time>
      </trkpt>
      <trkpt lat="43.26778" lon="-0.43009">
        <ele>272.014</ele>
        <time>2010-09-19T09:48:16Z</time>
      </trkpt>
      <trkpt lat="43.26781" lon="-0.43013">
        <ele>271.357</ele>
        <time>2010-09-19T09:48:17Z</time>
      </trkpt>
      <trkpt lat="43.26808" lon="-0.43034">
        <ele>270.312</ele>
        <time>2010-09-19T09:48:21Z</time>
      </trkpt>
      <trkpt lat="43.26826" lon="-0.43047">
        <ele>271.225</ele>
        <time>2010-09-19T09:48:24Z</time>
      </trkpt>
      <trkpt lat="43.26844" lon="-0.43061">
        <ele>271.815</ele>
        <time>2010-09-19T09:48:29Z</time>
      </trkpt>
      <trkpt lat="43.26859" lon="-0.43087">
        <ele>271.249</ele>
        <time>2010-09-19T09:48:35Z</time>
      </trkpt>
      <trkpt lat="43.26872" lon="-0.43118">
        <ele>270.819</ele>
        <time>2010-09-19T09:48:42Z</time>
      </trkpt>
      <trkpt lat="43.26883" lon="-0.43152">
        <ele>270.026</ele>
        <time>2010-09-19T09:48:49Z</time>
      </trkpt>
      <trkpt lat="43.26892" lon="-0.43174">
        <ele>269.145</ele>
        <time>2010-09-19T09:48:53Z</time>
      </trkpt>
      <trkpt lat="43.26905" lon="-0.43199">
        <ele>267.972</ele>
        <time>2010-09-19T09:48:58Z</time>
      </trkpt>
      <trkpt lat="43.26917" lon="-0.43234">
        <ele>266.761</ele>
        <time>2010-09-19T09:49:05Z</time>
      </trkpt>
      <trkpt lat="43.26916" lon="-0.43249">
        <ele>266.664</ele>
        <time>2010-09-19T09:49:10Z</time>
      </trkpt>
      <trkpt lat="43.26909" lon="-0.43253">
        <ele>267.835</ele>
        <time>2010-09-19T09:49:15Z</time>
      </trkpt>
      <trkpt lat="43.26903" lon="-0.43254">
        <ele>268.651</ele>
        <time>2010-09-19T09:49:18Z</time>
      </trkpt>
      <trkpt lat="43.2689" lon="-0.43264">
        <ele>267.685</ele>
        <time>2010-09-19T09:49:24Z</time>
      </trkpt>
      <trkpt lat="43.26873" lon="-0.43269">
        <ele>265.911</ele>
        <time>2010-09-19T09:49:27Z</time>
      </trkpt>
      <trkpt lat="43.26846" lon="-0.43278">
        <ele>265.231</ele>
        <time>2010-09-19T09:49:32Z</time>
      </trkpt>
      <trkpt lat="43.26843" lon="-0.43278">
        <ele>265.104</ele>
        <time>2010-09-19T09:49:33Z</time>
      </trkpt>
      <trkpt lat="43.2683" lon="-0.43268">
        <ele>266.046</ele>
        <time>2010-09-19T09:49:38Z</time>
      </trkpt>
      <trkpt lat="43.2682" lon="-0.43262">
        <ele>267.57</ele>
        <time>2010-09-19T09:49:44Z</time>
      </trkpt>
      <trkpt lat="43.26816" lon="-0.43261">
        <ele>267.769</ele>
        <time>2010-09-19T09:49:46Z</time>
      </trkpt>
      <trkpt lat="43.26809" lon="-0.43254">
        <ele>268.229</ele>
        <time>2010-09-19T09:49:51Z</time>
      </trkpt>
      <trkpt lat="43.26801" lon="-0.43246">
        <ele>268.512</ele>
        <time>2010-09-19T09:49:57Z</time>
      </trkpt>
      <trkpt lat="43.26789" lon="-0.43236">
        <ele>269.644</ele>
        <time>2010-09-19T09:50:04Z</time>
      </trkpt>
      <trkpt lat="43.26781" lon="-0.43229">
        <ele>270.011</ele>
        <time>2010-09-19T09:50:09Z</time>
      </trkpt>
      <trkpt lat="43.26766" lon="-0.43219">
        <ele>270.398</ele>
        <time>2010-09-19T09:50:16Z</time>
      </trkpt>
      <trkpt lat="43.26755" lon="-0.43211">
        <ele>270.57</ele>
        <time>2010-09-19T09:50:21Z</time>
      </trkpt>
      <trkpt lat="43.26744" lon="-0.432">
        <ele>270.817</ele>
        <time>2010-09-19T09:50:26Z</time>
      </trkpt>
      <trkpt lat="43.26739" lon="-0.4319">
        <ele>271.642</ele>
        <time>2010-09-19T09:50:31Z</time>
      </trkpt>
      <trkpt lat="43.26733" lon="-0.43176">
        <ele>272.315</ele>
        <time>2010-09-19T09:50:37Z</time>
      </trkpt>
      <trkpt lat="43.26725" lon="-0.43155">
        <ele>273.637</ele>
        <time>2010-09-19T09:50:45Z</time>
      </trkpt>
      <trkpt lat="43.26723" lon="-0.4314">
        <ele>274.853</ele>
        <time>2010-09-19T09:50:52Z</time>
      </trkpt>
      <trkpt lat="43.26729" lon="-0.43126">
        <ele>276.413</ele>
        <time>2010-09-19T09:51:00Z</time>
      </trkpt>
      <trkpt lat="43.26738" lon="-0.43111">
        <ele>278.204</ele>
        <time>2010-09-19T09:51:10Z</time>
      </trkpt>
      <trkpt lat="43.26744" lon="-0.43102">
        <ele>279.006</ele>
        <time>2010-09-19T09:51:17Z</time>
      </trkpt>
      <trkpt lat="43.26747" lon="-0.43093">
        <ele>279.686</ele>
        <time>2010-09-19T09:51:23Z</time>
      </trkpt>
      <trkpt lat="43.26751" lon="-0.43081">
        <ele>280.67</ele>
        <time>2010-09-19T09:51:30Z</time>
      </trkpt>
      <trkpt lat="43.2675" lon="-0.43075">
        <ele>281.352</ele>
        <time>2010-09-19T09:51:34Z</time>
      </trkpt>
      <trkpt lat="43.26749" lon="-0.43057">
        <ele>282.246</ele>
        <time>2010-09-19T09:51:45Z</time>
      </trkpt>
      <trkpt lat="43.26748" lon="-0.43042">
        <ele>284.161</ele>
        <time>2010-09-19T09:51:53Z</time>
      </trkpt>
      <trkpt lat="43.26748" lon="-0.43034">
        <ele>286.085</ele>
        <time>2010-09-19T09:51:57Z</time>
      </trkpt>
      <trkpt lat="43.26748" lon="-0.43028">
        <ele>287.3</ele>
        <time>2010-09-19T09:52:01Z</time>
      </trkpt>
      <trkpt lat="43.26747" lon="-0.43016">
        <ele>288.044</ele>
        <time>2010-09-19T09:52:08Z</time>
      </trkpt>
      <trkpt lat="43.26747" lon="-0.43015">
        <ele>287.975</ele>
        <time>2010-09-19T09:52:09Z</time>
      </trkpt>
      <trkpt lat="43.26746" lon="-0.42995">
        <ele>289.115</ele>
        <time>2010-09-19T09:52:20Z</time>
      </trkpt>
      <trkpt lat="43.26739" lon="-0.42973">
        <ele>289.01</ele>
        <time>2010-09-19T09:52:28Z</time>
      </trkpt>
      <trkpt lat="43.26731" lon="-0.4295">
        <ele>289.866</ele>
        <time>2010-09-19T09:52:36Z</time>
      </trkpt>
      <trkpt lat="43.26721" lon="-0.42929">
        <ele>290.882</ele>
        <time>2010-09-19T09:52:44Z</time>
      </trkpt>
      <trkpt lat="43.26716" lon="-0.42909">
        <ele>291.375</ele>
        <time>2010-09-19T09:52:50Z</time>
      </trkpt>
      <trkpt lat="43.26709" lon="-0.42888">
        <ele>292.433</ele>
        <time>2010-09-19T09:52:56Z</time>
      </trkpt>
      <trkpt lat="43.26697" lon="-0.42858">
        <ele>293.719</ele>
        <time>2010-09-19T09:53:05Z</time>
      </trkpt>
      <trkpt lat="43.26686" lon="-0.4283">
        <ele>294.072</ele>
        <time>2010-09-19T09:53:14Z</time>
      </trkpt>
      <trkpt lat="43.26676" lon="-0.42802">
        <ele>294.341</ele>
        <time>2010-09-19T09:53:22Z</time>
      </trkpt>
      <trkpt lat="43.26664" lon="-0.42774">
        <ele>294.412</ele>
        <time>2010-09-19T09:53:29Z</time>
      </trkpt>
      <trkpt lat="43.26653" lon="-0.4275">
        <ele>294.61</ele>
        <time>2010-09-19T09:53:35Z</time>
      </trkpt>
      <trkpt lat="43.26647" lon="-0.42723">
        <ele>294.655</ele>
        <time>2010-09-19T09:53:42Z</time>
      </trkpt>
      <trkpt lat="43.2664" lon="-0.42704">
        <ele>295.056</ele>
        <time>2010-09-19T09:53:47Z</time>
      </trkpt>
      <trkpt lat="43.2663" lon="-0.42679">
        <ele>295.677</ele>
        <time>2010-09-19T09:53:55Z</time>
      </trkpt>
      <trkpt lat="43.26623" lon="-0.42659">
        <ele>295.281</ele>
        <time>2010-09-19T09:54:01Z</time>
      </trkpt>
      <trkpt lat="43.26618" lon="-0.42639">
        <ele>295.694</ele>
        <time>2010-09-19T09:54:07Z</time>
      </trkpt>
      <trkpt lat="43.26611" lon="-0.42622">
        <ele>296.468</ele>
        <time>2010-09-19T09:54:13Z</time>
      </trkpt>
      <trkpt lat="43.26602" lon="-0.42595">
        <ele>297.832</ele>
        <time>2010-09-19T09:54:22Z</time>
      </trkpt>
      <trkpt lat="43.26593" lon="-0.42567">
        <ele>299.606</ele>
        <time>2010-09-19T09:54:31Z</time>
      </trkpt>
      <trkpt lat="43.26582" lon="-0.42536">
        <ele>301.448</ele>
        <time>2010-09-19T09:54:41Z</time>
      </trkpt>
      <trkpt lat="43.26575" lon="-0.42514">
        <ele>302.913</ele>
        <time>2010-09-19T09:54:49Z</time>
      </trkpt>
      <trkpt lat="43.26567" lon="-0.42496">
        <ele>304.168</ele>
        <time>2010-09-19T09:54:57Z</time>
      </trkpt>
      <trkpt lat="43.26555" lon="-0.42474">
        <ele>305.651</ele>
        <time>2010-09-19T09:55:07Z</time>
      </trkpt>
      <trkpt lat="43.26547" lon="-0.42459">
        <ele>306.69</ele>
        <time>2010-09-19T09:55:15Z</time>
      </trkpt>
      <trkpt lat="43.26537" lon="-0.42442">
        <ele>308.043</ele>
        <time>2010-09-19T09:55:25Z</time>
      </trkpt>
      <trkpt lat="43.26543" lon="-0.42439">
        <ele>309.091</ele>
        <time>2010-09-19T09:55:30Z</time>
      </trkpt>
      <trkpt lat="43.26545" lon="-0.4244">
        <ele>309.289</ele>
        <time>2010-09-19T09:55:31Z</time>
      </trkpt>
      <trkpt lat="43.26558" lon="-0.42442">
        <ele>310.887</ele>
        <time>2010-09-19T09:55:39Z</time>
      </trkpt>
      <trkpt lat="43.26561" lon="-0.42442">
        <ele>310.852</ele>
        <time>2010-09-19T09:55:45Z</time>
      </trkpt>
      <trkpt lat="43.26562" lon="-0.42443">
        <ele>311.01</ele>
        <time>2010-09-19T09:55:56Z</time>
      </trkpt>
      <trkpt lat="43.2656" lon="-0.42441">
        <ele>310.961</ele>
        <time>2010-09-19T09:56:13Z</time>
      </trkpt>
      <trkpt lat="43.26556" lon="-0.42433">
        <ele>311.67</ele>
        <time>2010-09-19T09:56:20Z</time>
      </trkpt>
      <trkpt lat="43.26549" lon="-0.42426">
        <ele>312.168</ele>
        <time>2010-09-19T09:56:27Z</time>
      </trkpt>
      <trkpt lat="43.26547" lon="-0.42417">
        <ele>313.22</ele>
        <time>2010-09-19T09:56:33Z</time>
      </trkpt>
      <trkpt lat="43.26541" lon="-0.42403">
        <ele>315.612</ele>
        <time>2010-09-19T09:56:43Z</time>
      </trkpt>
      <trkpt lat="43.26536" lon="-0.42389">
        <ele>318.096</ele>
        <time>2010-09-19T09:56:54Z</time>
      </trkpt>
      <trkpt lat="43.26534" lon="-0.42381">
        <ele>319.414</ele>
        <time>2010-09-19T09:57:00Z</time>
      </trkpt>
      <trkpt lat="43.26531" lon="-0.42374">
        <ele>320.681</ele>
        <time>2010-09-19T09:57:06Z</time>
      </trkpt>
      <trkpt lat="43.26527" lon="-0.4236">
        <ele>322.73</ele>
        <time>2010-09-19T09:57:17Z</time>
      </trkpt>
      <trkpt lat="43.26523" lon="-0.42349">
        <ele>324.86</ele>
        <time>2010-09-19T09:57:27Z</time>
      </trkpt>
      <trkpt lat="43.26521" lon="-0.42339">
        <ele>326.42</ele>
        <time>2010-09-19T09:57:36Z</time>
      </trkpt>
      <trkpt lat="43.26518" lon="-0.42329">
        <ele>327.625</ele>
        <time>2010-09-19T09:57:44Z</time>
      </trkpt>
      <trkpt lat="43.26517" lon="-0.42321">
        <ele>328.949</ele>
        <time>2010-09-19T09:57:51Z</time>
      </trkpt>
      <trkpt lat="43.26514" lon="-0.42309">
        <ele>330.213</ele>
        <time>2010-09-19T09:58:00Z</time>
      </trkpt>
      <trkpt lat="43.2651" lon="-0.42293">
        <ele>332.179</ele>
        <time>2010-09-19T09:58:13Z</time>
      </trkpt>
      <trkpt lat="43.26508" lon="-0.42282">
        <ele>333.157</ele>
        <time>2010-09-19T09:58:21Z</time>
      </trkpt>
      <trkpt lat="43.26504" lon="-0.42269">
        <ele>334.321</ele>
        <time>2010-09-19T09:58:33Z</time>
      </trkpt>
      <trkpt lat="43.265" lon="-0.42259">
        <ele>334.797</ele>
        <time>2010-09-19T09:58:42Z</time>
      </trkpt>
      <trkpt lat="43.26493" lon="-0.42256">
        <ele>335.164</ele>
        <time>2010-09-19T09:58:51Z</time>
      </trkpt>
      <trkpt lat="43.26486" lon="-0.4226">
        <ele>335.3</ele>
        <time>2010-09-19T09:58:58Z</time>
      </trkpt>
      <trkpt lat="43.2648" lon="-0.42259">
        <ele>335.434</ele>
        <time>2010-09-19T09:59:03Z</time>
      </trkpt>
      <trkpt lat="43.26471" lon="-0.42264">
        <ele>335.535</ele>
        <time>2010-09-19T09:59:11Z</time>
      </trkpt>
      <trkpt lat="43.2646" lon="-0.42273">
        <ele>335.141</ele>
        <time>2010-09-19T09:59:17Z</time>
      </trkpt>
      <trkpt lat="43.26439" lon="-0.42291">
        <ele>334.566</ele>
        <time>2010-09-19T09:59:25Z</time>
      </trkpt>
      <trkpt lat="43.26422" lon="-0.42303">
        <ele>334.426</ele>
        <time>2010-09-19T09:59:31Z</time>
      </trkpt>
      <trkpt lat="43.26409" lon="-0.42314">
        <ele>334.533</ele>
        <time>2010-09-19T09:59:37Z</time>
      </trkpt>
      <trkpt lat="43.26396" lon="-0.42325">
        <ele>334.657</ele>
        <time>2010-09-19T09:59:44Z</time>
      </trkpt>
      <trkpt lat="43.2638" lon="-0.42337">
        <ele>335.066</ele>
        <time>2010-09-19T09:59:52Z</time>
      </trkpt>
      <trkpt lat="43.26365" lon="-0.42351">
        <ele>335.86</ele>
        <time>2010-09-19T10:00:00Z</time>
      </trkpt>
      <trkpt lat="43.2635" lon="-0.42358">
        <ele>336.761</ele>
        <time>2010-09-19T10:00:07Z</time>
      </trkpt>
      <trkpt lat="43.26337" lon="-0.42356">
        <ele>337.306</ele>
        <time>2010-09-19T10:00:14Z</time>
      </trkpt>
      <trkpt lat="43.26323" lon="-0.42347">
        <ele>336.994</ele>
        <time>2010-09-19T10:00:20Z</time>
      </trkpt>
      <trkpt lat="43.26309" lon="-0.42335">
        <ele>336.312</ele>
        <time>2010-09-19T10:00:24Z</time>
      </trkpt>
      <trkpt lat="43.26283" lon="-0.42314">
        <ele>334.147</ele>
        <time>2010-09-19T10:00:30Z</time>
      </trkpt>
      <trkpt lat="43.26269" lon="-0.42303">
        <ele>332.261</ele>
        <time>2010-09-19T10:00:34Z</time>
      </trkpt>
      <trkpt lat="43.26256" lon="-0.42296">
        <ele>330.747</ele>
        <time>2010-09-19T10:00:39Z</time>
      </trkpt>
      <trkpt lat="43.26236" lon="-0.42294">
        <ele>328.596</ele>
        <time>2010-09-19T10:00:45Z</time>
      </trkpt>
      <trkpt lat="43.26209" lon="-0.42289">
        <ele>326.355</ele>
        <time>2010-09-19T10:00:51Z</time>
      </trkpt>
      <trkpt lat="43.2619" lon="-0.42286">
        <ele>325.623</ele>
        <time>2010-09-19T10:00:55Z</time>
      </trkpt>
      <trkpt lat="43.26155" lon="-0.42283">
        <ele>324.545</ele>
        <time>2010-09-19T10:01:02Z</time>
      </trkpt>
      <trkpt lat="43.26133" lon="-0.4228">
        <ele>323.795</ele>
        <time>2010-09-19T10:01:06Z</time>
      </trkpt>
      <trkpt lat="43.2611" lon="-0.42264">
        <ele>323.362</ele>
        <time>2010-09-19T10:01:11Z</time>
      </trkpt>
      <trkpt lat="43.26094" lon="-0.42245">
        <ele>324.698</ele>
        <time>2010-09-19T10:01:17Z</time>
      </trkpt>
      <trkpt lat="43.26076" lon="-0.42221">
        <ele>326.431</ele>
        <time>2010-09-19T10:01:26Z</time>
      </trkpt>
      <trkpt lat="43.26063" lon="-0.42202">
        <ele>328.02</ele>
        <time>2010-09-19T10:01:33Z</time>
      </trkpt>
      <trkpt lat="43.26052" lon="-0.42189">
        <ele>328.857</ele>
        <time>2010-09-19T10:01:38Z</time>
      </trkpt>
      <trkpt lat="43.26042" lon="-0.42182">
        <ele>329.756</ele>
        <time>2010-09-19T10:01:43Z</time>
      </trkpt>
      <trkpt lat="43.2603" lon="-0.42182">
        <ele>330.296</ele>
        <time>2010-09-19T10:01:51Z</time>
      </trkpt>
      <trkpt lat="43.2603" lon="-0.42183">
        <ele>330.247</ele>
        <time>2010-09-19T10:02:00Z</time>
      </trkpt>
    </trkseg>
  </trk>
</gpx>